[[{"header":{"parameterUnit":"m.s-1","parameterCategory":1,"la1":30.6,"la2":28.766,"lo1":-90.7593,"lo2":-88.6598,"dy":0.0162,"dx":0.0183,"nx":116,"ny":114,"refTime":"2023-03-11T06:00:00:Z","depth":0,"parameterNumber":2,"parameterNumberName":"U-component_of_WINDS"},"data":[0.0,0.0,0.0,0.0,0.0,0.0,0.0,0.0,0.0,0.0,0.0,0.0,0.0,0.0,0.0,0.0,0.0,0.0,0.0,0.0,0.0,0.0,0.0,0.0,0.0,0.0,0.0,0.0,0.0,0.0,0.0,0.0,0.0,0.0,0.0,0.0,0.0,0.0,0.0,0.0,0.0,0.0,0.0,0.0,0.0,0.0,0.0,0.0,0.0,0.0,0.0,0.0,0.0,0.0,0.0,0.0,0.0,0.0,0.0,0.0,0.0,0.0,0.0,0.0,0.0,0.0,0.0,0.0,0.0,0.0,0.0,0.0,0.0,0.0,0.0,0.0,0.0,0.0,0.0,0.0,0.0,0.0,0.0,0.0,0.0,0.0,0.0,0.0,0.0,0.0,0.0,0.0,0.0,0.0,0.0,0.0,0.0,0.0,0.0,0.0,0.0,0.0,0.0,0.0,0.0,0.0,0.0,0.0,0.0,0.0,0.0,0.0,0.0,0.0,0.0,0.0,0.0,0.0,0.0,0.0,0.0,0.0,0.0,0.0,0.0,0.0,0.0,0.0,0.0,0.0,0.0,0.0,0.0,0.0,0.0,0.0,0.0,0.0,0.0,0.0,0.0,0.0,0.0,0.0,0.0,0.0,0.0,0.0,0.0,0.0,0.0,0.0,0.0,0.0,0.0,0.0,0.0,0.0,0.0,0.0,0.0,0.0,0.0,0.0,0.0,0.0,0.0,0.0,0.0,0.0,0.0,0.0,0.0,0.0,0.0,0.0,0.0,0.0,0.0,0.0,0.0,0.0,0.0,0.0,0.0,0.0,0.0,0.0,0.0,0.0,0.0,0.0,0.0,0.0,0.0,0.0,0.0,0.0,0.0,0.0,0.0,0.0,0.0,0.0,0.0,0.0,0.0,0.0,0.0,0.0,0.0,0.0,0.0,0.0,0.0,0.0,0.0,0.0,0.0,0.0,0.0,0.0,0.0,0.0,0.0,0.0,0.0,0.0,0.0,0.0,0.0,0.0,0.0,0.0,0.0,0.0,0.0,0.0,0.0,0.0,0.0,0.0,0.0,0.0,0.0,0.0,0.0,0.0,0.0,0.0,0.0,0.0,0.0,0.0,0.0,0.0,0.0,0.0,0.0,0.0,0.0,0.0,0.0,0.0,0.0,0.0,0.0,0.0,0.0,0.0,0.0,0.0,0.0,0.0,0.0,0.0,0.0,0.0,0.0,0.0,0.0,0.0,0.0,0.0,0.0,0.0,0.0,0.0,0.0,0.0,0.0,0.0,0.0,0.0,0.0,0.0,0.0,0.0,0.0,0.0,0.0,0.0,0.0,0.0,0.0,0.0,0.0,0.0,0.0,0.0,0.0,0.0,0.0,0.0,0.0,0.0,0.0,0.0,0.0,0.0,0.0,0.0,0.0,0.0,0.0,0.0,0.0,0.0,0.0,0.0,0.0,0.0,0.0,0.0,0.0,0.0,0.0,0.0,0.0,0.0,0.0,0.0,0.0,0.0,0.0,0.0,0.0,0.0,0.0,0.0,0.0,0.0,0.0,0.0,0.0,0.0,0.0,0.0,0.0,0.0,0.0,0.0,0.0,0.0,0.0,0.0,0.0,0.0,0.0,0.0,0.0,0.0,0.0,0.0,0.0,0.0,0.0,0.0,0.0,0.0,0.0,0.0,0.0,0.0,0.0,0.0,0.0,0.0,0.0,0.0,0.0,0.0,0.0,0.0,0.0,0.0,0.0,0.0,0.0,0.0,0.0,0.0,0.0,0.0,0.0,0.0,0.0,0.0,0.0,0.0,0.0,0.0,0.0,0.0,0.0,0.0,0.0,0.0,0.0,0.0,0.0,0.0,0.0,0.0,0.0,0.0,0.0,0.0,0.0,0.0,0.0,0.0,0.0,0.0,0.0,0.0,0.0,0.0,0.0,0.0,0.0,0.0,0.0,0.0,0.0,0.0,0.0,0.0,0.0,0.0,0.0,0.0,0.0,0.0,0.0,0.0,0.0,0.0,0.0,0.0,0.0,0.0,0.0,0.0,0.0,0.0,0.0,0.0,0.0,0.0,0.0,0.0,0.0,0.0,0.0,0.0,0.0,0.0,0.0,0.0,0.0,0.0,0.0,0.0,0.0,0.0,0.0,0.0,0.0,0.0,0.0,0.0,0.0,0.0,0.0,0.0,0.0,0.0,0.0,0.0,0.0,0.0,0.0,0.0,0.0,0.0,0.0,0.0,0.0,0.0,0.0,0.0,0.0,0.0,0.0,0.0,0.0,0.0,0.0,0.0,0.0,0.0,0.0,0.0,0.0,0.0,0.0,0.0,0.0,0.0,0.0,0.0,0.0,0.0,0.0,0.0,0.0,0.0,0.0,0.0,0.0,0.0,0.0,0.0,0.0,0.0,0.0,0.0,0.0,0.0,0.0,0.0,0.0,0.0,0.0,0.0,0.0,0.0,0.0,0.0,0.0,0.0,0.0,0.0,0.0,0.0,0.0,0.0,0.0,0.0,0.0,0.0,0.0,0.0,0.0,0.0,0.0,0.0,0.0,0.0,0.0,0.0,0.0,0.0,0.0,0.0,0.0,0.0,0.0,0.0,0.0,0.0,0.0,0.0,0.0,0.0,0.0,0.0,0.0,0.0,0.0,0.0,0.0,0.0,0.0,0.0,0.0,0.0,0.0,0.0,0.0,0.0,0.0,0.0,0.0,0.0,0.0,0.0,0.0,0.0,0.0,0.0,0.0,0.0,0.0,0.0,0.0,0.0,0.0,0.0,0.0,0.0,0.0,0.0,0.0,0.0,0.0,0.0,0.0,0.0,0.0,0.0,0.0,0.0,0.0,0.0,0.0,0.0,0.0,0.0,0.0,0.0,0.0,0.0,0.0,0.0,0.0,0.0,0.0,0.0,0.0,0.0,0.0,0.0,0.0,0.0,0.0,0.0,0.0,0.0,0.0,0.0,0.0,0.0,0.0,0.0,0.0,0.0,0.0,0.0,0.0,0.0,0.0,0.0,0.0,0.0,0.0,0.0,0.0,0.0,0.0,0.0,0.0,0.0,0.0,0.0,0.0,0.0,0.0,0.0,0.0,0.0,0.0,0.0,0.0,0.0,0.0,0.0,0.0,0.0,0.0,0.0,0.0,0.0,0.0,0.0,0.0,0.0,0.0,0.0,0.0,0.0,0.0,0.0,0.0,0.0,0.0,0.0,0.0,0.0,0.0,0.0,0.0,0.0,0.0,0.0,0.0,0.0,0.0,0.0,0.0,0.0,0.0,0.0,0.0,0.0,0.0,0.0,0.0,0.0,0.0,0.0,0.0,0.0,0.0,0.0,0.0,0.0,0.0,0.0,0.0,0.0,0.0,0.0,0.0,0.0,0.0,0.0,0.0,0.0,0.0,0.0,0.0,0.0,0.0,0.0,0.0,0.0,0.0,0.0,0.0,0.0,0.0,0.0,0.0,0.0,0.0,0.0,0.0,0.0,0.0,0.0,0.0,0.0,0.0,0.0,0.0,0.0,0.0,0.0,0.0,0.0,0.0,0.0,0.0,0.0,0.0,0.0,0.0,0.0,0.0,0.0,0.0,0.0,0.0,0.0,0.0,0.0,0.0,0.0,0.0,0.0,0.0,0.0,0.0,0.0,0.0,0.0,0.0,0.0,0.0,0.0,0.0,0.0,0.0,0.0,0.0,0.0,0.0,0.0,0.0,0.0,0.0,0.0,0.0,0.0,0.0,0.0,0.0,0.0,0.0,0.0,0.0,0.0,0.0,0.0,0.0,0.0,0.0,0.0,0.0,0.0,0.0,0.0,0.0,0.0,0.0,0.0,0.0,0.0,0.0,0.0,0.0,0.0,0.0,0.0,0.0,0.0,0.0,0.0,0.0,0.0,0.0,0.0,0.0,0.0,0.0,0.0,0.0,0.0,0.0,0.0,0.0,0.0,0.0,0.0,0.0,0.0,0.0,0.0,0.0,0.0,0.0,0.0,0.0,0.0,0.0,0.0,0.0,0.0,0.0,0.0,0.0,0.0,0.0,0.0,0.0,0.0,0.0,0.0,0.0,0.0,0.0,0.0,0.0,0.0,0.0,0.0,0.0,0.0,0.0,0.0,0.0,0.0,0.0,0.0,0.0,0.0,0.0,0.0,0.0,0.0,0.0,0.0,0.0,0.0,0.0,0.0,0.0,0.0,0.0,0.0,0.0,0.0,0.0,0.0,0.0,0.0,0.0,0.0,0.0,0.0,0.0,0.0,0.0,0.0,0.0,0.0,0.0,0.0,0.0,0.0,0.0,0.0,0.0,0.0,0.0,0.0,0.0,0.0,0.0,0.0,0.0,0.0,0.0,0.0,0.0,0.0,0.0,0.0,0.0,0.0,0.0,0.0,0.0,0.0,0.0,0.0,0.0,0.0,0.0,0.0,0.0,0.0,0.0,0.0,0.0,0.0,0.0,0.0,0.0,0.0,0.0,0.0,0.0,0.0,0.0,0.0,0.0,0.0,0.0,0.0,0.0,0.0,0.0,0.0,0.0,0.0,0.0,0.0,0.0,0.0,0.0,0.0,0.0,0.0,0.0,0.0,0.0,0.0,0.0,0.0,0.0,0.0,0.0,0.0,0.0,0.0,0.0,0.0,0.0,0.0,0.0,0.0,0.0,0.0,0.0,0.0,0.0,0.0,0.0,0.0,0.0,0.0,0.0,0.0,0.0,0.0,0.0,0.0,0.0,0.0,0.0,0.0,0.0,0.0,0.0,0.0,0.0,0.0,0.0,0.0,0.0,0.0,0.0,0.0,0.0,0.0,0.0,0.0,0.0,0.0,0.0,0.0,0.0,0.0,0.0,0.0,0.0,0.0,0.0,0.0,0.0,0.0,0.0,0.0,0.0,0.0,0.0,0.0,0.0,0.0,0.0,0.0,0.0,0.0,0.0,0.0,0.0,0.0,0.0,0.0,0.0,0.0,0.0,0.0,0.0,0.0,0.0,0.0,0.0,0.0,0.0,0.0,0.0,0.0,0.0,0.0,0.0,0.0,0.0,0.0,0.0,0.0,0.0,0.0,0.0,0.0,0.0,0.0,0.0,0.0,0.0,0.0,0.0,0.0,0.0,0.0,0.0,0.0,0.0,0.0,0.0,0.0,0.0,0.0,0.0,0.0,0.0,0.0,0.0,0.0,0.0,0.0,0.0,0.0,0.0,0.0,0.0,0.0,0.0,0.0,0.0,0.0,0.0,0.0,0.0,0.0,0.0,0.0,0.0,0.0,0.0,0.0,0.0,0.0,0.0,0.0,0.0,0.0,0.0,0.0,0.0,0.0,0.0,0.0,0.0,0.0,0.0,0.0,0.0,0.0,0.0,0.0,0.0,0.0,0.0,0.0,0.0,0.0,0.0,0.0,0.0,0.0,0.0,0.0,0.0,0.0,0.0,0.0,0.0,0.0,0.0,0.0,0.0,0.0,0.0,0.0,0.0,0.0,0.0,0.0,0.0,0.0,0.0,0.0,0.0,0.0,0.0,0.0,0.0,0.0,0.0,0.0,0.0,0.0,0.0,0.0,0.0,0.0,0.0,0.0,0.0,0.0,0.0,0.0,0.0,0.0,0.0,0.0,0.0,0.0,0.0,0.0,0.0,0.0,0.0,0.0,0.0,0.0,0.0,0.0,0.0,0.0,0.0,0.0,0.0,0.0,0.0,0.0,0.0,0.0,0.0,0.0,0.0,0.0,0.0,0.0,0.0,0.0,0.0,0.0,0.0,0.0,0.0,0.0,0.0,0.0,0.0,0.0,0.0,0.0,0.0,0.0,0.0,0.0,0.0,0.0,0.0,0.0,0.0,0.0,0.0,0.0,0.0,0.0,0.0,0.0,0.0,0.0,0.0,0.0,0.0,0.0,0.0,0.0,0.0,0.0,0.0,0.0,0.0,0.0,0.0,0.0,0.0,0.0,0.0,0.0,0.0,0.0,0.0,0.0,0.0,0.0,0.0,0.0,0.0,0.0,0.0,0.0,0.0,0.0,0.0,0.0,0.0,0.0,0.0,0.0,0.0,0.0,0.0,0.0,0.0,0.0,0.0,0.0,0.0,0.0,0.0,0.0,4.0162,0.0,0.0,0.0,0.0,0.0,0.0,0.0,0.0,0.0,0.0,0.0,0.0,0.0,0.0,0.0,0.0,0.0,0.0,0.0,0.0,0.0,0.0,0.0,0.0,0.0,0.0,0.0,0.0,0.0,0.0,0.0,0.0,0.0,0.0,0.0,0.0,0.0,0.0,0.0,2.9248,2.9835,3.0573,3.0852,3.0642,3.0055,0.0,0.0,0.0,0.0,0.0,0.0,0.0,0.0,0.0,0.0,0.0,0.0,0.0,0.0,0.0,0.0,0.0,0.0,0.0,0.0,0.0,0.0,0.0,0.0,0.0,0.0,0.0,0.0,0.0,0.0,0.0,0.0,0.0,0.0,0.0,0.0,0.0,0.0,0.0,0.0,0.0,0.0,0.0,0.0,0.0,0.0,0.0,0.0,0.0,0.0,0.0,0.0,0.0,0.0,0.0,0.0,0.0,0.0,0.0,0.0,0.0,0.0,0.0,0.0,0.0,0.0,0.0,0.0,0.0,0.0,0.0,4.1305,0.0,0.0,0.0,0.0,0.0,0.0,0.0,0.0,0.0,0.0,0.0,0.0,0.0,0.0,0.0,0.0,0.0,0.0,0.0,0.0,0.0,0.0,0.0,0.0,0.0,0.0,0.0,0.0,0.0,0.0,0.0,0.0,0.0,0.0,0.0,0.0,0.0,2.8743,3.0016,3.1236,3.242,3.1963,3.1204,3.0212,3.0787,0.0,0.0,0.0,0.0,0.0,0.0,0.0,0.0,0.0,0.0,0.0,0.0,0.0,0.0,0.0,0.0,0.0,0.0,0.0,0.0,0.0,0.0,0.0,0.0,0.0,0.0,0.0,0.0,0.0,0.0,0.0,0.0,0.0,0.0,0.0,0.0,0.0,0.0,0.0,0.0,0.0,0.0,0.0,0.0,0.0,0.0,0.0,0.0,0.0,0.0,0.0,0.0,0.0,0.0,0.0,0.0,0.0,0.0,0.0,0.0,0.0,0.0,0.0,0.0,0.0,4.4218,4.4972,4.5198,4.497,4.3435,4.2291,4.1565,0.0,0.0,0.0,0.0,0.0,0.0,0.0,0.0,0.0,0.0,0.0,0.0,0.0,0.0,0.0,0.0,0.0,0.0,0.0,0.0,0.0,0.0,2.684,2.7202,2.8155,2.8572,2.8941,0.0,0.0,0.0,0.0,0.0,0.0,0.0,2.9215,2.9766,2.972,3.0661,3.1013,3.0915,3.1345,3.1447,3.1317,3.1548,3.2013,3.2526,0.0,0.0,0.0,0.0,0.0,0.0,0.0,0.0,0.0,0.0,0.0,0.0,0.0,0.0,0.0,0.0,0.0,0.0,0.0,0.0,0.0,0.0,0.0,0.0,0.0,0.0,0.0,0.0,0.0,0.0,0.0,0.0,0.0,0.0,0.0,0.0,0.0,0.0,0.0,0.0,0.0,3.8632,3.798,0.0,0.0,0.0,0.0,0.0,0.0,0.0,0.0,0.0,0.0,0.0,0.0,0.0,0.0,4.5121,4.4737,4.4437,4.4333,4.4425,4.4532,4.4664,4.5387,4.5711,4.5662,4.554,0.0,4.4331,4.3863,0.0,0.0,0.0,0.0,0.0,0.0,0.0,0.0,0.0,0.0,0.0,0.0,0.0,0.0,0.0,0.0,0.0,0.0,0.0,0.0,0.0,2.7457,2.7717,2.8781,2.8854,2.8823,2.882,0.0,0.0,0.0,0.0,2.8826,2.9031,2.993,3.0844,3.1698,3.1854,3.2199,3.2753,3.2998,3.3135,3.3122,3.3229,3.3036,3.2594,3.1929,0.0,0.0,0.0,0.0,0.0,0.0,0.0,0.0,0.0,0.0,0.0,0.0,0.0,0.0,0.0,0.0,0.0,0.0,0.0,0.0,0.0,0.0,0.0,0.0,0.0,0.0,0.0,0.0,0.0,0.0,0.0,0.0,0.0,0.0,0.0,0.0,0.0,0.0,0.0,3.9261,3.9794,3.9465,3.9888,4.0256,0.0,0.0,0.0,0.0,0.0,0.0,0.0,0.0,0.0,4.2461,4.3649,4.4367,4.4549,4.512,4.5387,4.5325,4.5723,4.5955,4.5955,4.6717,4.704,4.7048,4.7087,4.6937,4.658,4.5634,4.5206,4.515,0.0,0.0,0.0,0.0,0.0,0.0,0.0,0.0,0.0,0.0,0.0,0.0,0.0,0.0,0.0,0.0,0.0,0.0,2.8059,2.8016,2.8327,2.929,2.9216,2.9097,2.9025,2.8982,0.0,0.0,0.0,2.9178,2.9568,3.0492,3.1775,3.3421,3.3122,3.3549,3.4661,3.4661,3.4739,3.4884,3.4884,3.4188,3.2961,3.265,3.2513,3.2454,0.0,0.0,0.0,0.0,0.0,0.0,0.0,0.0,0.0,0.0,0.0,0.0,0.0,0.0,0.0,0.0,0.0,0.0,0.0,0.0,0.0,0.0,0.0,0.0,0.0,0.0,0.0,0.0,0.0,0.0,0.0,0.0,0.0,0.0,0.0,0.0,0.0,4.0152,4.0408,4.0406,4.0068,4.0064,0.0,0.0,0.0,0.0,0.0,0.0,4.2486,4.3649,4.3802,4.2719,4.3937,4.4464,4.415,4.5212,4.5864,4.6041,4.6609,4.697,4.7206,4.7736,4.8001,4.8001,4.8001,4.8001,4.7918,4.6887,4.6075,4.5507,4.6029,4.6239,0.0,4.6231,4.6216,4.6208,0.0,0.0,0.0,0.0,0.0,0.0,0.0,0.0,0.0,0.0,0.0,2.7673,2.7723,2.8288,2.8898,2.953,2.9976,3.0461,3.1034,3.0888,3.0596,3.0142,2.9578,2.9132,2.8772,3.054,3.2407,3.4329,3.4312,3.4661,3.5363,3.5363,3.5665,3.619,3.619,3.5494,3.4324,3.4939,3.5189,3.5189,3.516,0.0,0.0,0.0,0.0,0.0,0.0,0.0,0.0,0.0,0.0,0.0,0.0,0.0,0.0,0.0,0.0,0.0,0.0,0.0,0.0,0.0,0.0,0.0,0.0,0.0,0.0,0.0,0.0,0.0,0.0,0.0,0.0,0.0,0.0,0.0,0.0,0.0,0.0,4.0388,4.0988,0.0,0.0,0.0,0.0,4.3304,4.3433,4.314,4.2433,4.3132,4.3528,4.3453,4.4185,4.4924,4.5593,4.5669,4.6076,4.6732,4.6806,4.7204,4.7968,4.7968,4.8001,4.8001,4.8001,4.8001,4.7934,4.7189,4.692,4.6913,4.6262,4.6114,4.6287,4.6091,4.6004,4.6014,0.0,0.0,0.0,0.0,0.0,0.0,0.0,0.0,0.0,2.6807,2.7332,2.7847,2.8303,2.8906,2.9552,3.0198,3.0397,3.0573,3.0785,3.0337,3.0183,3.0441,2.9834,3.0017,3.1119,3.223,3.3545,3.5026,3.5026,3.5375,3.5976,3.5976,3.6083,3.6306,3.6306,3.6045,3.561,3.5471,3.5392,3.5363,3.4939,3.4748,0.0,0.0,0.0,0.0,0.0,0.0,0.0,0.0,0.0,0.0,0.0,0.0,0.0,0.0,0.0,0.0,0.0,0.0,0.0,0.0,0.0,0.0,0.0,0.0,0.0,0.0,0.0,0.0,0.0,0.0,0.0,0.0,0.0,0.0,0.0,0.0,0.0,4.2275,4.1837,0.0,0.0,4.1488,4.1421,4.2084,4.2596,4.2712,4.2419,4.3494,4.3892,4.3388,4.4553,4.5309,4.5577,4.6463,4.7057,4.7293,4.7293,4.7753,4.8581,4.8581,4.8882,4.9417,4.9417,4.9417,4.9417,4.9119,4.8489,4.7651,4.7394,4.7326,4.7399,4.731,4.7294,4.7286,0.0,0.0,0.0,0.0,0.0,0.0,0.0,0.0,0.0,2.7084,2.7658,2.8267,2.892,2.9552,3.011,3.0561,3.0786,3.0894,3.0894,3.0502,3.0444,3.0894,3.0473,3.1154,3.3106,3.3595,3.4416,3.5703,3.5703,3.6005,3.6626,3.6626,3.6742,3.6954,3.6954,3.6954,3.6916,3.6498,3.6226,3.6014,3.5561,3.5378,3.5407,0.0,0.0,0.0,0.0,0.0,0.0,0.0,0.0,0.0,0.0,0.0,0.0,0.0,0.0,0.0,0.0,0.0,0.0,0.0,0.0,0.0,0.0,0.0,0.0,0.0,0.0,0.0,0.0,0.0,0.0,0.0,0.0,0.0,0.0,0.0,4.1821,4.2998,4.2108,4.1652,4.232,4.1605,4.1334,4.1983,4.2487,4.2866,4.3019,4.3921,4.4273,4.3988,4.491,4.5421,4.5421,4.6374,4.6952,4.7223,4.7463,4.8013,4.8826,4.9041,4.9448,5.0,5.0067,5.0092,5.011,5.0158,4.9615,4.8754,4.8754,4.8754,4.8754,4.8754,4.8754,4.8754,0.0,0.0,0.0,0.0,0.0,0.0,0.0,2.6807,2.7033,2.7608,2.8274,2.892,2.953,3.0198,3.059,3.059,3.1148,3.151,3.151,3.1502,3.1531,3.1531,3.1568,3.2468,3.4362,3.4449,3.5058,3.6335,3.6335,3.6713,3.7351,3.738,3.7699,3.826,3.826,3.826,3.826,3.826,3.7912,3.738,3.7351,3.7331,3.7264,0.0,0.0,0.0,0.0,0.0,0.0,0.0,0.0,0.0,0.0,0.0,0.0,0.0,0.0,0.0,0.0,0.0,0.0,0.0,0.0,0.0,0.0,0.0,0.0,0.0,0.0,0.0,0.0,0.0,0.0,0.0,0.0,0.0,4.2308,4.1875,4.1667,4.234,4.1866,4.1703,4.2381,4.244,4.2681,4.33,4.3359,4.3658,4.4307,4.4337,4.4636,4.5304,4.5345,4.5364,4.5394,4.5404,4.5817,4.6595,4.7262,4.7933,4.8696,4.9337,4.9671,4.9708,4.9912,5.0006,5.0057,5.0246,5.0336,5.0336,5.0245,5.0203,5.0203,5.0203,5.0203,5.0203,0.0,0.0,0.0,0.0,0.0,0.0,0.0,2.6807,2.7033,2.7608,2.8274,2.892,2.953,3.0198,3.059,3.059,3.1148,3.151,3.151,3.1974,3.2235,3.2235,3.3106,3.386,3.4391,3.5291,3.619,3.7041,3.7467,3.8028,3.8696,3.9131,3.9421,3.9567,3.9567,3.9567,3.9567,3.9567,3.9479,3.9247,3.8318,3.7932,3.7941,0.0,0.0,0.0,0.0,0.0,0.0,0.0,0.0,0.0,0.0,0.0,0.0,0.0,0.0,0.0,0.0,0.0,0.0,0.0,0.0,0.0,0.0,0.0,0.0,0.0,0.0,0.0,0.0,0.0,0.0,0.0,0.0,4.1984,4.236,4.2249,4.2349,4.2994,4.2898,4.2861,4.304,4.3479,4.3838,4.3997,4.4486,4.4825,4.5005,4.5035,4.5324,4.6012,4.6491,4.698,4.747,4.7959,4.832,4.8519,4.8731,4.9207,4.9996,5.0182,5.0964,5.2204,5.2256,5.2643,5.3226,5.3291,5.3316,5.3117,5.1031,5.0203,5.0203,5.0203,5.0203,5.0203,0.0,0.0,0.0,0.0,0.0,0.0,0.0,2.6807,2.712,2.8006,2.8455,2.9043,2.9929,3.0379,3.0706,3.0953,3.1315,3.151,3.151,3.185,3.2431,3.3251,3.4005,3.4797,3.561,3.6597,3.7409,3.8115,3.8696,3.9189,3.9567,3.9954,4.0089,4.0089,4.0089,4.0089,4.0089,4.0089,4.0089,4.0041,3.9305,3.8986,3.8986,3.8986,3.8986,3.8957,3.8609,3.8454,3.8394,3.7932,0.0,0.0,0.0,0.0,0.0,0.0,0.0,0.0,0.0,0.0,0.0,0.0,0.0,0.0,0.0,0.0,0.0,0.0,0.0,0.0,0.0,0.0,0.0,0.0,4.1712,4.2491,4.2741,4.2771,4.291,4.327,4.3539,4.3718,4.3718,4.4337,4.4725,4.4725,4.5324,4.5832,4.6112,4.6411,4.686,4.7549,4.7938,4.8308,4.8708,4.9108,4.9288,4.9288,4.9565,4.9915,5.0377,5.0661,5.137,0.0,5.2873,5.3363,5.3854,5.4317,5.4508,0.0,0.0,0.0,0.0,0.0,5.1991,5.1991,0.0,0.0,0.0,0.0,0.0,0.0,0.0,2.6807,2.7249,2.8527,2.8702,2.9203,3.0445,3.059,3.0844,3.1452,3.151,3.1568,3.1721,3.1721,3.2563,3.442,3.4594,3.5465,3.7264,3.797,3.8609,3.9189,3.9886,4.0205,4.0205,4.0292,4.0331,4.0331,4.0331,4.0331,4.0331,4.0331,4.0262,4.0153,4.0282,4.0234,4.0089,4.0089,4.0089,4.0089,4.0089,4.0089,4.0119,4.0247,0.0,0.0,0.0,0.0,0.0,0.0,0.0,0.0,0.0,0.0,0.0,0.0,0.0,0.0,0.0,0.0,0.0,0.0,0.0,0.0,0.0,0.0,0.0,0.0,4.2131,4.281,4.3339,4.3479,4.3509,4.3419,4.3997,4.4426,4.4426,4.5095,4.5524,4.5524,4.6221,4.6909,4.7478,0.0,0.0,0.0,0.0,4.9546,4.9617,4.9707,4.9737,4.9737,5.029,5.0536,5.0566,5.1146,5.1556,5.1811,5.2824,5.3376,5.3658,5.4602,5.5005,5.4972,5.4641,5.4508,5.4508,5.4508,5.4508,0.0,0.0,0.0,0.0,0.0,0.0,0.0,0.0,2.6807,2.7249,2.8527,2.8702,2.9203,3.0445,3.059,3.0844,3.1452,3.151,3.1953,3.3022,3.3117,3.3728,3.5151,3.5677,3.6364,3.7264,3.8434,3.9073,3.9189,4.036,4.0902,4.0931,4.1464,4.1715,4.1715,4.1715,4.1715,4.1715,4.1715,4.1245,4.0583,4.1379,4.1076,4.0089,4.0089,4.0089,4.0089,4.0089,4.0089,4.007,3.978,3.9825,4.0014,4.0075,0.0,0.0,0.0,0.0,0.0,0.0,0.0,0.0,0.0,0.0,0.0,0.0,0.0,0.0,0.0,0.0,0.0,0.0,0.0,0.0,4.2111,4.3169,4.3978,4.4087,4.4576,4.4696,4.4177,4.4696,4.5095,4.5095,4.6202,4.692,4.692,4.8038,4.8768,4.8917,4.9048,0.0,5.0009,5.0559,5.1109,5.163,5.2169,5.245,5.245,0.0,0.0,5.2618,5.2737,5.3631,5.5066,5.5296,5.6285,5.7753,5.7975,5.8038,5.7806,5.5435,5.4508,5.4508,5.4508,5.4508,5.4508,0.0,0.0,0.0,0.0,0.0,0.0,0.0,2.6807,2.7126,2.8071,2.8491,2.9043,2.9994,3.0408,3.0844,3.1452,3.18,3.2264,3.2956,3.3595,3.4524,3.5773,3.646,3.7264,3.8231,3.916,3.9799,4.0147,4.1105,4.1599,4.1599,4.1947,4.2092,4.2082,4.1566,4.1339,4.1318,4.0862,4.0363,3.9956,4.0449,4.0255,3.9749,4.0742,4.1105,4.1105,4.1105,4.1105,4.1067,4.0867,4.0929,4.1087,4.0958,4.0804,4.0666,0.0,0.0,0.0,0.0,0.0,0.0,0.0,0.0,0.0,0.0,0.0,0.0,0.0,0.0,4.0885,0.0,0.0,4.2452,4.2791,4.3658,4.4426,4.4766,4.5663,4.5933,4.4915,4.5693,4.6292,4.6292,4.75,4.8308,4.8308,4.9194,4.9763,4.9763,5.0403,5.087,5.1176,5.1846,5.2366,5.2707,5.3037,5.3198,5.3198,5.3198,5.3198,5.3198,5.3198,5.3723,5.4665,5.5574,5.6559,5.7513,5.8513,5.8899,5.8734,5.7276,5.6703,5.6703,5.6703,5.6703,5.6703,0.0,0.0,0.0,0.0,0.0,0.0,0.0,0.0,2.7033,2.7608,2.8274,2.892,2.953,3.0198,3.0786,3.1286,3.2156,3.265,3.2526,3.3811,3.5087,3.6248,3.6945,3.7912,3.918,3.9799,4.0437,4.1105,4.1773,4.2092,4.2092,4.1887,4.1814,4.1773,4.0781,4.0346,4.0292,3.953,3.9099,3.8944,3.9133,3.921,3.9398,4.1128,4.1814,4.1835,4.203,4.2015,4.1928,4.2073,4.2159,4.2169,4.196,4.1932,4.1812,4.087,4.0885,0.0,0.0,0.0,0.0,0.0,0.0,0.0,0.0,0.0,4.1403,4.1403,4.1832,4.2131,4.1813,4.2601,4.3389,4.3658,4.4237,4.4935,4.5574,4.6741,4.713,4.6183,4.7021,4.7698,4.7698,4.8757,4.9486,4.9486,5.017,5.0596,5.0596,5.1726,5.2396,5.2396,5.3037,5.3396,5.3396,5.3516,5.3588,5.3588,5.3588,5.3588,5.3588,5.3795,5.3972,5.4255,5.632,5.7284,5.7533,5.9128,5.9738,5.9738,5.9738,5.9738,5.9705,5.9098,5.8899,5.8899,0.0,0.0,0.0,0.0,0.0,0.0,0.0,0.0,0.0,2.7608,2.8274,2.892,2.953,3.0198,3.0619,3.0677,3.2362,3.3138,3.2526,3.4242,3.5578,3.6277,3.6945,3.7912,3.918,3.9799,4.0437,4.1105,4.1773,4.2092,4.2082,4.1202,4.0763,4.0721,3.9793,3.9365,3.9354,3.9243,3.872,3.8024,3.8854,3.921,3.9321,4.0367,4.0763,4.087,4.1783,4.1715,4.1308,4.1889,4.1839,4.1652,4.2362,4.2327,4.1911,4.1427,0.0,4.0337,3.9601,3.9939,0.0,4.1254,4.1403,4.1403,0.0,0.0,4.1403,4.1403,4.1463,4.1843,4.2891,4.321,4.3698,4.4875,4.5653,4.63,4.698,4.7739,4.8338,4.8809,4.8989,4.9078,4.9078,4.9703,5.0088,5.0088,5.1277,5.1977,5.1977,5.2677,5.3109,5.3109,5.3743,5.4089,5.4089,5.467,5.4982,5.4982,5.4982,5.4982,5.5007,5.5835,5.6715,5.77,6.0359,6.188,6.2495,6.2722,6.2797,6.2797,6.2797,6.2797,6.2498,5.987,5.8899,5.8899,0.0,0.0,0.0,0.0,0.0,0.0,0.0,0.0,0.0,0.0,2.8085,2.8811,2.9058,3.0002,3.059,3.059,3.2027,3.2803,3.2526,3.4661,3.6034,3.6277,3.7264,3.826,3.9189,3.9268,3.9888,4.1105,4.0647,4.0685,4.1212,4.0238,3.9804,3.9749,3.8798,3.8398,3.8364,3.7807,3.7335,3.7013,3.7405,3.791,3.8473,3.9442,4.013,4.0664,4.1309,4.1347,0.0,4.1424,4.1379,4.1374,4.2258,4.2196,4.1755,4.1325,4.112,0.0,4.1134,0.0,0.0,0.0,4.2512,4.2512,4.2512,4.2512,4.2631,4.3,4.309,4.3359,4.4307,4.4456,4.4905,0.0,4.67,4.7238,4.8308,4.9015,4.9512,4.9781,5.0182,5.0242,4.9841,5.0769,5.1367,5.1367,5.2247,5.2797,5.2797,5.3426,5.3773,5.3773,5.4431,5.479,5.479,5.5461,5.579,5.5803,5.6149,5.6299,5.6312,5.6717,5.7556,5.8728,5.9471,6.0652,6.2024,6.2024,6.2024,6.2024,6.2024,6.2024,6.1991,6.1593,6.1461,6.1461,0.0,0.0,0.0,0.0,0.0,0.0,0.0,0.0,0.0,0.0,2.7917,2.8818,2.9203,3.0038,3.059,3.059,3.1758,3.2497,3.2497,3.4739,3.6141,3.6277,3.7351,3.8347,3.9189,3.872,3.9139,4.0493,3.9495,3.9338,3.9987,3.9184,3.881,3.8765,3.783,3.7419,3.7373,3.6699,3.6393,3.6417,3.6687,3.7187,3.7921,3.9133,3.99,4.0439,4.0935,4.0989,4.0815,4.0815,4.0749,4.0799,4.1691,4.1773,4.144,4.1039,4.0882,4.1035,4.1892,0.0,0.0,4.2971,4.33,4.3359,4.3539,4.3569,4.3758,4.4426,4.4576,4.4785,4.5443,4.5723,4.6232,4.7399,4.7728,4.8248,4.9385,4.9931,5.0327,5.0715,5.1187,5.1367,5.1056,5.1726,5.2276,5.2456,5.3097,5.3486,5.3486,5.4102,5.4551,5.476,5.5222,5.5551,5.573,5.6209,5.6462,5.6449,5.6898,5.7094,5.7107,5.7376,5.8473,6.0093,5.9599,6.0502,6.2301,6.2301,6.2301,6.2301,6.2301,6.2168,6.2146,6.3227,6.3227,6.2687,0.0,0.0,0.0,0.0,0.0,0.0,0.0,0.0,0.0,0.0,0.0,0.0,0.0,3.0569,3.059,3.059,3.1758,3.2497,3.2497,3.4329,3.5703,3.6277,3.6945,3.7912,3.918,3.8372,3.8257,3.8984,3.8604,3.8439,3.8477,3.8043,3.783,3.781,3.6849,3.644,3.644,3.6405,3.6393,3.6476,3.7396,3.7761,3.8001,3.9858,4.0206,3.9854,4.0762,4.067,4.0118,4.0118,3.9887,3.969,4.0576,4.0985,0.0,4.0571,3.9969,0.0,0.0,0.0,4.1693,4.2971,4.33,4.3479,4.4117,4.4267,4.4456,4.5125,4.5274,4.5484,4.6151,4.679,4.7459,4.8158,4.8828,4.9445,5.0088,5.0207,5.0686,5.1965,5.2157,5.2438,0.0,5.2558,5.2456,5.3126,5.3773,5.4179,5.4179,5.479,5.5461,5.6132,5.6162,5.6449,5.7034,5.7064,5.7064,5.7064,5.7107,5.7094,5.7133,5.8103,6.0054,6.2703,6.267,6.3646,6.5282,6.5282,6.5282,6.5282,6.5282,6.4862,6.4321,6.4354,6.3018,6.1175,0.0,0.0,0.0,0.0,0.0,0.0,0.0,0.0,0.0,0.0,0.0,0.0,0.0,0.0,0.0,0.0,3.1351,3.2032,3.2468,3.3898,3.5212,3.6248,3.6945,3.742,3.7679,3.7224,3.7112,3.7356,3.6397,3.6259,3.6872,3.6452,3.6269,3.6294,3.6346,3.6393,3.6393,3.6393,3.6393,3.6428,3.6758,3.7612,3.8798,3.9442,4.0079,4.0613,0.0,4.0031,3.9509,3.9509,3.9508,3.9612,4.0314,0.0,0.0,4.0401,0.0,0.0,0.0,0.0,4.2861,4.3758,4.4307,4.4696,4.4915,4.4975,4.5144,4.5832,4.5603,4.5793,4.7339,4.7459,4.7818,4.9321,4.974,5.011,5.0757,5.1236,5.1696,5.2157,5.2588,0.0,0.0,0.0,0.0,5.3832,5.4491,5.485,5.485,5.5491,5.5983,5.6192,5.6598,5.6898,5.7094,5.753,5.7769,5.7769,5.8218,5.8441,5.8451,5.9051,6.0204,6.1751,6.2019,6.2842,6.4012,6.4012,6.4012,6.4012,6.4012,6.3857,6.3658,6.3658,6.3194,6.2554,0.0,0.0,0.0,0.0,0.0,0.0,0.0,0.0,0.0,0.0,0.0,0.0,0.0,0.0,0.0,0.0,0.0,3.2024,3.2468,3.3686,3.4855,3.5947,3.6122,3.6217,3.6295,3.5534,3.5166,3.5217,3.4471,3.4443,3.5041,3.535,3.5508,3.5533,3.6118,3.6393,3.6393,3.6393,3.6281,3.6127,3.681,3.7475,3.8154,3.9143,3.9696,0.0,3.9807,3.9431,3.8936,3.8936,3.9088,3.9335,0.0,0.0,0.0,0.0,0.0,0.0,0.0,4.299,4.3509,4.4426,4.4975,4.5364,4.5603,4.5663,4.5862,4.651,4.6311,4.6411,4.7698,4.7967,4.8416,4.9662,5.0249,5.0787,5.1457,5.1947,5.2366,5.2875,5.3306,0.0,0.0,0.0,0.0,5.4551,5.5192,5.5551,5.5551,5.6162,5.6628,5.6868,5.7244,5.7573,5.7812,5.8248,5.8457,5.8457,5.8876,5.9099,5.9126,5.9766,6.062,6.1629,6.2266,6.3114,6.4045,6.4045,6.4045,6.4045,6.4045,6.3912,6.3691,6.3691,6.3526,6.3294,0.0,0.0,0.0,0.0,0.0,0.0,0.0,0.0,0.0,0.0,0.0,0.0,0.0,0.0,0.0,0.0,0.0,0.0,3.2497,3.3628,3.4615,3.5311,3.4608,3.4478,3.5068,3.3499,3.2686,3.2636,3.2881,3.3014,3.304,3.4603,3.5344,3.5382,3.5993,3.6292,3.6318,3.6318,3.6016,3.5674,3.748,3.7363,3.6425,3.9023,3.9113,3.7995,3.8899,3.8916,3.8512,3.8512,0.0,0.0,0.0,0.0,0.0,0.0,0.0,4.1783,4.3,4.3389,4.3748,4.5035,4.5364,4.5574,4.6211,4.636,4.654,4.7179,4.7268,4.7268,0.0,0.0,4.9258,4.9348,5.0391,5.1427,5.2097,5.2217,5.2725,0.0,0.0,0.0,0.0,0.0,0.0,5.5251,0.0,5.6222,5.6252,5.6808,5.7453,5.8085,5.8115,5.8457,5.9085,5.9099,5.9099,5.9099,5.9099,5.9126,5.9221,6.0285,6.1375,6.2428,6.3507,6.4499,6.5414,6.5414,6.5414,6.5414,6.5414,6.5028,6.4443,6.4443,6.4023,6.3393,0.0,0.0,0.0,0.0,0.0,0.0,0.0,0.0,0.0,0.0,0.0,0.0,0.0,0.0,0.0,0.0,0.0,0.0,3.2439,3.2816,3.3445,3.4471,3.4314,3.3919,3.3354,3.2932,3.2378,3.1742,3.1786,3.1823,3.1848,3.2656,3.3283,3.3732,3.4285,3.4751,3.5116,3.5116,3.5412,3.5919,3.64,3.7161,3.809,3.8779,3.8964,3.8899,3.9295,3.9019,3.8512,3.8512,0.0,0.0,0.0,4.0967,4.1254,0.0,0.0,4.307,4.3818,4.4765,4.5613,4.5942,4.6431,4.682,4.6999,4.7059,4.7089,4.7268,4.6909,4.685,0.0,0.0,0.0,4.9811,5.0667,0.0,5.2097,5.2618,0.0,5.4089,0.0,5.4999,5.5179,5.5192,0.0,0.0,5.6102,5.6402,5.6838,5.7483,5.7919,5.8085,5.8577,5.8949,5.9099,5.9099,5.9099,5.9099,5.9099,5.9526,6.0324,6.1413,6.2485,6.3543,6.4568,6.5146,6.5414,6.5414,6.5414,6.5414,6.5414,6.5315,6.516,6.516,6.5017,6.4862,0.0,0.0,0.0,0.0,0.0,0.0,0.0,0.0,0.0,0.0,0.0,0.0,0.0,0.0,0.0,0.0,0.0,0.0,0.0,3.26,3.3231,3.3868,3.351,3.3019,3.2446,3.1779,3.1198,3.0693,3.0934,3.106,3.106,3.1828,3.238,3.2763,3.3954,3.4627,3.497,3.5587,3.6005,0.0,0.0,3.7229,3.7952,3.832,3.8658,3.8925,3.9019,3.912,3.925,3.9638,0.0,4.0754,4.1255,4.1583,4.1982,4.2631,0.0,4.4018,4.4935,4.5732,4.636,4.667,4.7029,4.7309,4.7309,4.7309,4.7309,4.7309,4.6999,0.0,4.7728,0.0,0.0,0.0,0.0,0.0,5.2546,5.3216,5.3892,0.0,5.497,0.0,5.5611,5.5641,5.603,0.0,5.6748,5.6868,5.7513,5.8158,5.8547,5.8547,5.8906,5.9099,5.9099,5.9099,5.9099,5.9099,5.9099,5.9673,6.0753,6.1797,6.2887,6.3953,0.0,6.5414,6.5414,6.5414,6.5414,6.5414,6.5414,6.5414,6.5414,6.5414,6.5414,6.5414,0.0,0.0,0.0,0.0,0.0,0.0,0.0,0.0,0.0,0.0,0.0,0.0,0.0,0.0,0.0,0.0,0.0,0.0,0.0,0.0,3.328,3.3334,3.2559,3.2064,3.1937,3.0627,2.9945,2.9914,3.0297,3.0573,3.0723,3.1501,3.1953,3.2171,3.3948,3.4831,3.5052,3.6378,3.6791,3.6627,3.7385,3.7428,3.7173,0.0,3.8343,3.8521,3.8577,3.9326,4.0401,4.1137,4.1463,4.1553,4.1643,4.2122,4.276,4.3339,4.4018,4.4805,4.5971,4.636,4.657,4.7149,4.7309,4.7309,4.7309,4.7309,4.7309,4.7309,0.0,4.7309,4.7309,4.8308,4.9198,4.9288,0.0,5.2336,5.3109,5.3773,5.4461,5.5119,5.5192,5.5461,5.6132,5.6192,5.6718,5.7995,5.756,5.7543,5.8218,5.8786,5.9099,5.9099,5.9099,5.9099,5.9099,5.9099,5.9099,5.9099,5.9247,5.9868,6.0941,6.204,6.308,6.414,0.0,0.0,6.5414,6.5414,6.5414,6.5414,6.5414,6.5414,6.5414,6.5414,6.5414,6.5414,0.0,0.0,0.0,0.0,0.0,0.0,0.0,0.0,0.0,0.0,2.806,2.8428,0.0,0.0,0.0,0.0,0.0,0.0,0.0,0.0,0.0,3.2506,3.2347,3.1895,3.112,3.0839,3.0631,3.0472,3.0105,3.0382,3.1246,3.0532,3.0693,3.1553,3.2084,3.2861,3.3847,3.4774,3.5804,3.6846,3.6993,3.7413,3.8023,3.8324,0.0,0.0,3.8891,3.9917,4.1206,4.1364,4.1772,4.2311,4.2811,4.3439,4.3978,4.4097,4.4995,4.6001,4.6241,4.6689,4.7149,4.7268,4.7309,4.7309,4.7309,4.7309,0.0,0.0,4.7309,4.7309,4.7309,4.7948,4.8648,4.9198,5.0463,5.1786,5.3049,0.0,5.4461,0.0,0.0,0.0,0.0,0.0,0.0,0.0,0.0,0.0,5.8876,5.9039,5.9099,5.9099,5.9099,5.9099,5.9099,5.9099,5.9099,5.9099,6.0,6.0979,6.2046,6.3148,6.4175,6.5135,0.0,0.0,6.5414,6.5414,6.5414,6.5414,6.5414,6.5414,6.5414,6.5414,6.5414,6.5414,0.0,0.0,0.0,0.0,0.0,0.0,0.0,3.0247,2.887,2.7764,2.763,2.7887,2.8543,2.9211,0.0,0.0,0.0,0.0,0.0,0.0,0.0,0.0,3.2162,3.1892,3.1027,3.1348,0.0,0.0,0.0,3.1665,3.2089,0.0,0.0,0.0,3.3282,3.3851,3.4471,3.5569,3.6467,3.7139,3.7463,3.7881,3.8361,0.0,0.0,0.0,0.0,3.9955,4.0945,4.1274,4.1862,4.2521,4.31,4.3748,4.4366,4.4736,4.5523,4.639,4.673,4.7059,4.7309,4.7309,4.7309,4.7309,4.7309,0.0,0.0,0.0,4.7309,4.7309,4.7309,4.7848,4.8409,4.8738,5.0421,5.1935,5.2588,5.3875,0.0,0.0,0.0,0.0,0.0,0.0,0.0,0.0,0.0,0.0,5.9085,5.9099,5.9099,5.9099,5.9099,5.9099,5.9099,5.9099,5.9365,5.9934,6.0455,6.1552,6.316,6.3682,6.4462,6.5414,0.0,0.0,6.5414,6.5414,6.5414,6.5414,6.5414,6.5414,6.5414,6.5414,6.5414,6.5414,0.0,0.0,0.0,0.0,0.0,0.0,0.0,3.011,2.8792,2.7694,2.7456,2.744,2.7529,2.8557,2.9327,0.0,0.0,0.0,0.0,0.0,0.0,0.0,0.0,0.0,0.0,0.0,0.0,0.0,0.0,0.0,0.0,0.0,0.0,0.0,0.0,0.0,0.0,3.6661,3.7299,0.0,0.0,0.0,0.0,0.0,0.0,0.0,0.0,3.9819,4.0487,4.1005,4.1643,4.2281,4.2901,4.3768,4.4616,4.5155,4.5862,4.6629,4.7149,4.7309,4.7309,4.7309,4.7309,4.7309,4.7309,4.7309,0.0,0.0,4.7309,4.7309,4.7309,4.7728,4.8128,4.8278,5.0242,5.1876,5.2157,5.3803,5.5042,0.0,0.0,0.0,0.0,0.0,0.0,0.0,0.0,0.0,5.9099,5.9099,5.9099,5.9099,5.9099,5.9099,5.9099,5.9099,5.9646,6.0714,6.0928,6.2053,6.3906,6.4116,6.4658,6.5414,0.0,0.0,0.0,6.5414,6.5414,6.5414,6.5414,6.5414,6.5414,6.5414,6.5414,6.5414,0.0,0.0,0.0,0.0,0.0,0.0,0.0,2.9933,2.832,2.8058,2.7654,2.7307,2.7098,2.7649,2.8464,0.0,0.0,0.0,0.0,0.0,0.0,0.0,0.0,0.0,0.0,0.0,0.0,0.0,0.0,0.0,0.0,0.0,0.0,0.0,0.0,0.0,0.0,0.0,0.0,0.0,0.0,0.0,0.0,0.0,0.0,0.0,0.0,3.9819,4.0397,4.0457,4.0945,4.1613,4.2281,4.3738,4.5214,4.5274,0.0,0.0,4.7268,4.7309,4.7309,4.7309,4.7309,4.7309,4.7309,0.0,4.7309,4.7309,4.7309,4.7309,4.7309,4.7369,4.7578,4.8188,4.9482,5.0817,5.2037,5.3414,5.4521,5.5132,0.0,0.0,0.0,0.0,0.0,0.0,0.0,0.0,0.0,5.9099,5.9099,5.9099,5.9099,5.9099,5.9099,5.9099,5.9646,6.0696,6.1703,6.2766,6.3929,6.4852,6.5292,6.5414,0.0,0.0,0.0,6.5414,6.5414,6.5414,6.5414,6.5414,6.5414,6.5414,6.5414,6.5414,0.0,0.0,0.0,0.0,0.0,0.0,3.0994,2.9198,2.7848,2.7816,2.7629,2.745,2.7275,2.7391,2.7739,0.0,0.0,0.0,0.0,0.0,0.0,0.0,0.0,0.0,0.0,0.0,0.0,0.0,0.0,0.0,0.0,0.0,0.0,0.0,0.0,0.0,0.0,0.0,0.0,0.0,0.0,0.0,0.0,0.0,0.0,0.0,0.0,0.0,0.0,0.0,4.0586,4.0975,4.2071,4.319,4.4247,0.0,4.5952,4.679,4.7179,4.7309,4.7309,4.7309,4.7608,4.7788,4.7399,0.0,4.7788,4.7388,4.7309,4.7309,4.7309,4.7309,4.7399,4.7638,4.9112,5.0387,5.0936,5.2516,5.3845,5.4521,5.5551,0.0,0.0,0.0,0.0,0.0,0.0,0.0,0.0,5.9099,5.9099,5.9099,5.9099,5.9099,5.9099,5.9099,5.9961,6.1678,6.2115,6.3176,6.4818,6.5202,6.5414,6.5414,0.0,0.0,0.0,6.5414,6.5414,6.5414,6.5414,6.5414,6.5414,6.5414,6.5414,6.5414,0.0,0.0,0.0,0.0,0.0,3.0986,3.0309,2.8732,2.7591,2.7591,2.7591,2.7558,2.7399,2.7316,2.7306,2.7471,0.0,0.0,0.0,0.0,0.0,0.0,0.0,0.0,0.0,0.0,0.0,0.0,0.0,0.0,0.0,0.0,0.0,0.0,0.0,0.0,0.0,0.0,0.0,0.0,0.0,0.0,0.0,0.0,0.0,0.0,0.0,0.0,0.0,0.0,0.0,4.0337,4.1673,4.2411,4.305,4.4556,4.5623,4.639,4.6879,4.7149,4.7309,4.7309,4.7638,4.7889,0.0,0.0,4.7878,4.7399,4.7309,4.7309,4.7309,4.7309,4.7309,4.7309,4.8794,5.0009,5.0177,5.1756,5.3156,0.0,0.0,0.0,0.0,0.0,0.0,0.0,0.0,0.0,0.0,5.9099,5.9099,5.9099,5.9099,5.9099,5.9099,5.9099,6.0198,6.2281,6.2281,6.3392,6.5414,6.5414,6.5414,0.0,0.0,0.0,0.0,6.5414,6.5414,6.5414,6.5414,6.5414,6.5414,6.5414,6.5414,6.5414,0.0,0.0,0.0,0.0,0.0,0.0,3.0309,2.8732,2.7591,2.7591,2.7591,2.7558,2.7399,2.7386,2.7301,2.7023,0.0,0.0,0.0,0.0,0.0,0.0,0.0,0.0,0.0,0.0,0.0,3.1516,0.0,0.0,0.0,0.0,0.0,0.0,0.0,0.0,0.0,0.0,0.0,0.0,0.0,0.0,0.0,0.0,0.0,0.0,0.0,0.0,0.0,0.0,0.0,0.0,0.0,4.1403,4.1783,4.3738,4.5254,4.63,4.63,4.6779,4.7309,4.7309,4.7309,4.7298,0.0,0.0,4.7298,4.7309,4.7309,4.7309,4.7309,4.7309,4.7309,4.7309,4.8427,4.9505,5.0117,5.1367,5.2456,0.0,0.0,0.0,0.0,0.0,0.0,0.0,0.0,0.0,0.0,5.9099,5.9099,5.9099,5.9099,5.9099,5.9099,5.9099,6.0198,6.2281,6.2281,6.3392,6.5414,6.5414,0.0,0.0,0.0,0.0,0.0,6.5414,6.5414,6.5414,6.5414,6.5414,6.5414,6.5414,6.5414,6.5414,0.0,0.0,0.0,0.0,0.0,0.0,0.0,2.8406,2.7591,2.7591,2.7591,2.7572,2.7552,2.745,2.7384,2.7294,0.0,0.0,0.0,0.0,0.0,0.0,0.0,0.0,0.0,0.0,3.109,3.151,3.2057,3.2603,0.0,0.0,0.0,0.0,0.0,0.0,0.0,0.0,0.0,0.0,0.0,0.0,0.0,0.0,0.0,0.0,0.0,0.0,0.0,0.0,0.0,0.0,0.0,0.0,0.0,4.27,4.3928,4.5014,4.5503,4.5783,4.5933,4.5933,4.6621,4.7179,4.6719,4.7339,4.7848,4.7388,4.7309,4.7309,4.7309,4.7309,4.7309,4.7309,4.8038,4.8846,4.9505,0.0,0.0,5.3079,0.0,0.0,0.0,0.0,0.0,0.0,0.0,0.0,0.0,0.0,5.9099,5.9099,5.9099,5.9099,5.9099,5.9815,6.089,6.2293,6.3032,6.4116,6.5414,6.5414,0.0,0.0,0.0,0.0,0.0,6.5414,6.5414,6.5414,6.5414,6.5414,6.5414,6.5414,6.5414,6.5414,0.0,0.0,0.0,0.0,0.0,0.0,0.0,2.8107,2.7591,2.7591,2.7591,2.7591,2.7591,2.7533,2.745,2.7393,0.0,0.0,0.0,0.0,0.0,0.0,0.0,0.0,0.0,3.0672,3.0899,3.1353,3.1466,3.181,3.2329,3.3606,0.0,0.0,0.0,0.0,0.0,0.0,0.0,0.0,0.0,0.0,3.8123,0.0,0.0,0.0,0.0,0.0,0.0,0.0,0.0,0.0,0.0,0.0,0.0,0.0,4.313,4.4057,4.4736,4.5095,4.5315,4.5315,4.6112,0.0,0.0,4.7149,4.7788,4.7399,4.7309,4.7309,4.7309,4.7309,4.7309,4.7309,4.8068,4.8906,4.9565,0.0,0.0,0.0,0.0,0.0,0.0,0.0,0.0,0.0,0.0,0.0,0.0,0.0,5.9099,5.9099,5.9099,5.9099,5.9099,6.0141,6.1248,6.2306,6.3388,6.4451,6.5414,0.0,0.0,0.0,0.0,0.0,0.0,6.5414,6.5414,6.5414,6.5414,6.5414,6.5414,6.5414,6.5414,6.5414,0.0,0.0,0.0,0.0,0.0,0.0,0.0,0.0,2.7591,2.7591,2.7591,2.7591,2.7591,2.7591,2.7558,2.7418,0.0,0.0,0.0,0.0,0.0,0.0,0.0,0.0,0.0,3.0828,3.091,3.1087,3.1102,3.1412,3.1949,3.2702,3.3683,3.4905,0.0,0.0,0.0,0.0,0.0,0.0,0.0,0.0,0.0,0.0,0.0,0.0,0.0,0.0,0.0,0.0,0.0,0.0,0.0,0.0,0.0,0.0,0.0,0.0,0.0,4.4666,4.5155,0.0,0.0,0.0,4.6241,4.679,0.0,4.7309,4.7309,4.7309,4.7309,4.7309,4.7309,4.7309,4.8409,0.0,0.0,5.1427,0.0,0.0,0.0,0.0,0.0,0.0,0.0,0.0,0.0,0.0,0.0,0.0,0.0,5.9099,5.9099,5.9099,5.9099,6.0233,6.1311,6.2306,6.346,6.4508,6.5414,0.0,0.0,0.0,0.0,0.0,0.0,6.5414,6.5414,6.5414,6.5414,6.5414,6.5414,6.5414,6.5414,6.5414,0.0,0.0,0.0,0.0,0.0,0.0,0.0,0.0,0.0,0.0,2.7591,2.7591,2.7591,2.7591,2.7602,0.0,0.0,0.0,0.0,0.0,0.0,0.0,0.0,0.0,0.0,3.1028,3.1043,3.1087,3.1205,3.1264,3.1345,3.2719,3.3716,3.4459,3.6454,0.0,0.0,0.0,0.0,0.0,0.0,0.0,0.0,0.0,0.0,0.0,3.9391,3.9391,0.0,0.0,0.0,0.0,0.0,0.0,0.0,0.0,4.2432,0.0,0.0,0.0,4.3778,4.3778,4.4666,4.5544,0.0,4.6441,4.7309,4.7309,4.7309,4.7309,4.7309,4.7309,4.7309,0.0,0.0,0.0,0.0,0.0,0.0,0.0,0.0,0.0,0.0,0.0,0.0,0.0,0.0,0.0,0.0,0.0,0.0,5.9099,5.9099,5.9099,5.9099,6.0967,6.2033,6.2306,6.4165,6.5157,6.5414,0.0,0.0,0.0,0.0,0.0,6.5414,6.5414,6.5414,6.5414,6.5414,6.5414,6.5414,6.5414,6.5414,6.5414,0.0,0.0,0.0,0.0,0.0,0.0,0.0,0.0,0.0,0.0,0.0,0.0,0.0,0.0,0.0,0.0,0.0,0.0,0.0,0.0,0.0,0.0,0.0,0.0,3.1168,3.1198,3.1227,3.1278,3.1366,3.1366,3.1315,3.2811,3.3655,3.3958,3.6055,3.6985,0.0,0.0,0.0,0.0,0.0,0.0,0.0,0.0,0.0,0.0,3.9897,3.9897,0.0,4.0365,4.0218,4.0038,0.0,0.0,0.0,0.0,4.2789,4.3771,4.3399,4.33,4.33,4.33,4.4087,4.4915,4.5225,4.6112,4.6939,4.7249,4.7309,4.7388,4.7698,4.7519,0.0,0.0,4.8555,0.0,0.0,0.0,0.0,0.0,0.0,0.0,0.0,0.0,0.0,0.0,0.0,0.0,0.0,0.0,0.0,0.0,5.9099,5.9099,5.9099,6.1235,6.2281,6.2337,6.4397,6.5414,6.5414,0.0,0.0,0.0,0.0,0.0,6.5414,6.5414,6.5414,6.5414,6.5414,6.5414,6.5414,6.5414,6.5414,6.5414,0.0,0.0,0.0,0.0,0.0,0.0,0.0,0.0,0.0,0.0,0.0,0.0,0.0,0.0,0.0,0.0,0.0,0.0,0.0,0.0,0.0,0.0,0.0,3.0428,3.1321,3.1321,3.1379,3.1503,3.1503,3.1503,3.154,3.2878,3.3664,3.4031,3.5737,3.6493,0.0,0.0,0.0,0.0,0.0,0.0,0.0,0.0,0.0,0.0,0.0,0.0,0.0,4.0795,4.0752,4.0786,4.1451,0.0,0.0,0.0,0.0,0.0,4.3527,4.3359,4.3419,4.3329,4.3818,4.4486,4.5155,4.5832,4.648,4.7149,4.7309,4.7489,4.8038,4.7769,0.0,0.0,0.0,0.0,0.0,0.0,0.0,0.0,0.0,0.0,0.0,0.0,0.0,0.0,0.0,0.0,0.0,0.0,0.0,0.0,5.9099,5.9099,5.9099,6.1235,6.2281,6.2337,6.4397,6.5414,6.5414,6.5414,0.0,0.0,0.0,0.0,6.5414,6.5414,6.5414,6.5414,6.5414,6.5414,6.5414,6.5414,6.5414,6.5414,0.0,0.0,0.0,0.0,0.0,0.0,0.0,0.0,0.0,0.0,0.0,0.0,0.0,0.0,0.0,0.0,0.0,0.0,0.0,0.0,0.0,0.0,2.963,3.0227,3.1445,3.1482,3.1489,3.1503,3.1503,3.1503,3.154,3.2878,3.442,3.6036,3.6365,3.6493,3.6455,0.0,0.0,0.0,0.0,0.0,0.0,0.0,0.0,0.0,0.0,0.0,0.0,4.2061,4.186,4.1476,4.2189,0.0,0.0,0.0,0.0,0.0,4.3527,4.3718,4.3997,4.3449,4.3818,4.4486,4.5155,4.5832,4.648,4.7149,4.7309,4.7328,4.7418,4.7818,4.8188,0.0,0.0,0.0,0.0,0.0,0.0,0.0,0.0,0.0,0.0,0.0,0.0,0.0,0.0,0.0,0.0,0.0,0.0,0.0,0.0,5.9099,5.9099,6.1235,6.2281,6.2337,6.4397,6.5414,6.5414,6.5414,6.5414,0.0,0.0,6.5414,6.5414,6.5414,6.5414,6.5414,6.5414,6.5414,6.5414,6.5414,6.5414,6.5414,0.0,0.0,0.0,0.0,0.0,0.0,0.0,0.0,0.0,0.0,0.0,0.0,0.0,0.0,0.0,0.0,0.0,0.0,0.0,0.0,0.0,2.9555,2.99,3.0515,3.1481,3.1503,3.1503,3.1503,3.1503,3.169,3.2093,3.3743,3.5036,3.5985,3.6291,3.6453,3.6422,3.6119,0.0,0.0,0.0,0.0,0.0,0.0,0.0,0.0,0.0,0.0,0.0,0.0,4.238,4.2205,4.2904,0.0,0.0,0.0,0.0,0.0,4.3625,4.3509,4.3778,4.3818,4.4326,4.5035,4.5683,4.6061,4.648,4.7149,4.7309,4.7429,0.0,0.0,0.0,0.0,0.0,0.0,0.0,0.0,0.0,0.0,0.0,0.0,0.0,0.0,0.0,0.0,0.0,0.0,0.0,0.0,0.0,0.0,0.0,5.9099,5.9099,6.1235,6.2281,6.2337,6.4397,6.5414,6.5414,6.5414,6.5414,0.0,0.0,6.5414,6.5414,6.5414,6.5414,6.5414,6.5414,6.5414,6.5414,6.5414,6.5414,6.5414,0.0,0.0,0.0,0.0,0.0,0.0,0.0,0.0,0.0,0.0,0.0,0.0,0.0,0.0,0.0,0.0,0.0,0.0,0.0,0.0,2.8966,2.9788,3.0395,3.0979,3.1473,3.1503,3.1503,3.1503,3.1503,3.1987,3.2975,3.4789,3.5653,3.5748,3.6506,3.6685,3.6422,3.6562,3.7697,0.0,0.0,0.0,0.0,0.0,0.0,0.0,0.0,0.0,0.0,0.0,0.0,0.0,0.0,0.0,0.0,4.3939,4.4546,4.535,4.3732,4.3419,4.3658,4.4177,4.4696,4.5274,4.6121,4.63,4.654,4.7369,0.0,0.0,0.0,4.8787,0.0,0.0,0.0,0.0,0.0,0.0,0.0,0.0,0.0,0.0,0.0,0.0,0.0,0.0,0.0,0.0,0.0,0.0,0.0,0.0,0.0,0.0,5.9099,6.0967,6.2033,6.2337,6.4397,6.5414,6.5414,6.5414,6.5414,6.5414,6.5414,6.5414,6.5414,6.5414,6.5414,6.5414,6.5414,6.5414,6.5414,6.5414,6.5414,6.5414,0.0,0.0,0.0,0.0,0.0,0.0,0.0,0.0,0.0,0.0,0.0,0.0,0.0,0.0,0.0,0.0,0.0,0.0,0.0,0.0,2.9146,3.0365,3.1069,3.1444,3.1503,3.1503,3.1503,3.1503,3.1503,3.2437,3.4285,3.5684,3.633,3.6406,3.7684,3.7576,3.643,3.7048,3.8128,3.9448,0.0,0.0,0.0,0.0,0.0,0.0,0.0,0.0,0.0,0.0,0.0,0.0,0.0,0.0,4.5514,4.3939,4.4546,4.535,4.3732,4.3758,4.4247,4.4307,4.4337,4.4715,4.6001,4.63,4.667,4.7978,0.0,0.0,0.0,0.0,0.0,0.0,0.0,0.0,0.0,0.0,0.0,0.0,0.0,0.0,0.0,0.0,0.0,0.0,0.0,0.0,0.0,0.0,0.0,0.0,0.0,0.0,5.9099,6.0233,6.1324,6.2337,6.4397,6.5414,6.5414,6.5414,6.5414,6.5414,6.5414,6.5414,6.5414,6.5414,6.5414,6.5414,6.5414,6.5414,6.5414,6.5414,6.5414,6.5414,0.0,0.0,0.0,0.0,0.0,0.0,0.0,0.0,0.0,0.0,0.0,0.0,0.0,0.0,0.0,0.0,0.0,0.0,0.0,0.0,2.9907,3.0476,3.1129,3.1503,3.1503,3.1899,3.2096,3.2072,3.327,3.4249,3.5051,3.6794,3.7376,3.7064,3.7934,3.8056,3.7628,3.8345,3.9423,4.0712,4.1435,0.0,0.0,0.0,0.0,0.0,0.0,0.0,0.0,0.0,4.3606,4.3606,4.3606,4.4614,4.5601,4.4493,4.5244,4.6033,4.4472,4.454,4.4939,4.4408,4.4606,4.5144,4.6091,4.6629,4.7179,4.8098,4.8648,0.0,0.0,0.0,0.0,0.0,0.0,0.0,0.0,0.0,0.0,0.0,0.0,0.0,0.0,0.0,0.0,0.0,0.0,0.0,0.0,0.0,0.0,0.0,0.0,5.9099,5.9099,6.0141,6.1248,6.2337,6.3768,6.4795,6.5414,6.5414,6.5414,6.5414,6.5414,6.5414,6.5414,6.5414,6.5414,6.5414,6.5414,6.5414,6.5414,6.5414,6.5414,6.5414,0.0,0.0,0.0,0.0,0.0,0.0,0.0,0.0,0.0,0.0,0.0,0.0,0.0,0.0,0.0,0.0,0.0,0.0,2.9122,3.0293,3.1005,3.1099,3.1746,3.2089,3.2027,3.2744,3.2879,3.2433,3.4366,3.5558,3.6028,3.7562,3.8073,3.7706,3.8346,3.8644,3.8702,3.9421,4.0486,4.1792,4.2289,4.2943,0.0,0.0,0.0,0.0,0.0,0.0,0.0,0.0,4.3606,4.3606,4.3606,4.4614,4.5648,4.4854,4.5468,4.6158,4.4868,4.4791,4.5008,4.4448,4.4796,4.5514,4.642,4.6969,4.7608,4.8686,4.9595,0.0,0.0,0.0,0.0,0.0,0.0,0.0,0.0,0.0,0.0,0.0,0.0,0.0,0.0,0.0,0.0,0.0,0.0,0.0,0.0,0.0,0.0,0.0,0.0,0.0,5.9099,5.9815,6.0722,6.1828,6.2875,6.392,6.4943,6.528,6.5213,6.4943,6.5247,6.5414,6.5414,6.5414,6.5414,6.5414,6.5414,6.5414,6.5414,6.5414,6.5414,6.5414,0.0,0.0,0.0,0.0,0.0,0.0,0.0,0.0,0.0,0.0,0.0,0.0,0.0,0.0,0.0,0.0,0.0,0.0,3.0305,3.163,3.2396,3.242,3.3116,3.3412,3.3219,3.401,3.3812,3.2534,3.4492,3.6079,3.731,3.7996,3.8299,3.8327,3.9019,3.936,3.9459,4.012,4.1217,4.2513,4.252,4.2943,0.0,0.0,0.0,0.0,0.0,0.0,0.0,0.0,4.3606,4.3606,4.3606,4.4614,4.5648,4.4862,4.5149,4.5533,4.4727,4.4422,4.4317,4.4307,4.4825,4.5663,4.6999,4.7298,4.7867,4.9818,5.1265,5.2187,5.2187,0.0,0.0,0.0,0.0,0.0,0.0,0.0,0.0,0.0,0.0,0.0,0.0,0.0,0.0,0.0,0.0,0.0,0.0,0.0,0.0,0.0,0.0,0.0,5.9099,5.9099,5.9646,6.0696,6.179,6.2851,6.3929,6.4943,6.4863,6.3964,6.4965,6.5414,6.5414,6.5414,6.5414,6.5414,6.5414,6.5414,6.5414,6.5414,6.5414,6.5414,0.0,0.0,0.0,0.0,0.0,0.0,0.0,0.0,0.0,0.0,0.0,0.0,0.0,0.0,0.0,0.0,0.0,0.0,3.2299,3.2776,3.302,3.3168,3.3743,3.3865,3.3412,3.5498,3.613,3.523,3.6682,3.7577,3.8029,3.8704,3.8986,3.9026,3.9764,4.0074,4.0186,4.1371,4.2123,4.2546,4.3076,4.34,0.0,0.0,0.0,0.0,0.0,0.0,0.0,0.0,0.0,0.0,4.4224,4.5019,4.5849,4.6131,4.6343,4.6322,4.5561,4.5582,0.0,4.4578,0.0,0.0,0.0,4.8008,4.8566,0.0,5.1606,5.2187,0.0,0.0,0.0,0.0,0.0,0.0,0.0,0.0,0.0,0.0,0.0,0.0,0.0,0.0,0.0,0.0,0.0,0.0,0.0,0.0,0.0,0.0,0.0,0.0,5.9099,5.9099,5.9646,6.0683,6.1018,6.2127,6.3929,6.4943,6.5225,6.4965,6.5258,6.5414,6.5414,6.5414,6.5414,6.5414,6.5414,6.5414,6.5414,6.5414,6.5414,6.5414,0.0,0.0,0.0,0.0,0.0,0.0,0.0,0.0,0.0,0.0,2.8192,2.8528,0.0,0.0,0.0,0.0,0.0,0.0,0.0,3.3952,3.4287,3.4134,3.4489,3.4927,3.5433,3.7278,3.814,3.7971,3.8436,3.8692,3.8694,3.9114,3.9448,3.9746,4.0203,4.0727,4.1283,4.2123,4.2679,4.2977,4.3433,4.3606,4.3606,0.0,0.0,0.0,0.0,0.0,0.0,0.0,0.0,0.0,4.4464,4.52,4.5867,4.6306,4.6396,4.6239,4.5747,4.5827,0.0,4.5238,4.6102,4.7448,4.8775,0.0,0.0,0.0,0.0,0.0,0.0,0.0,0.0,0.0,0.0,0.0,0.0,0.0,0.0,0.0,0.0,0.0,0.0,0.0,0.0,0.0,0.0,0.0,0.0,0.0,0.0,0.0,0.0,0.0,5.9099,5.9099,5.9419,6.0079,6.0507,6.1375,6.2644,6.372,6.4177,6.4212,6.5045,6.5414,6.5414,6.5414,6.5414,6.5414,6.5414,6.5414,6.5414,6.5414,6.5414,6.5414,0.0,0.0,0.0,0.0,0.0,0.0,0.0,0.0,0.0,0.0,2.8571,2.9013,0.0,0.0,0.0,0.0,0.0,0.0,0.0,0.0,3.5842,3.5228,3.5393,3.6418,3.8432,3.9165,3.9806,4.0402,3.9799,3.9413,3.9315,3.9381,3.9746,4.0402,4.0528,4.1309,4.2513,4.2579,4.2977,4.3606,4.3606,4.3606,4.3606,4.3606,0.0,0.0,0.0,0.0,0.0,0.0,0.0,0.0,4.4563,4.5292,4.5879,4.5813,4.5798,4.5744,4.5534,4.5445,4.5544,4.6151,4.7369,0.0,4.9908,5.0727,0.0,0.0,0.0,0.0,0.0,0.0,0.0,0.0,0.0,0.0,0.0,0.0,0.0,0.0,0.0,0.0,0.0,0.0,0.0,0.0,0.0,0.0,0.0,0.0,0.0,0.0,0.0,0.0,5.9099,5.9099,5.9099,0.0,6.0106,6.0559,6.0598,6.1778,6.2342,6.257,6.442,6.5336,6.5414,6.5414,6.5414,6.5414,6.5414,6.5414,6.5414,6.5414,6.5414,6.5414,0.0,0.0,0.0,0.0,0.0,0.0,0.0,0.0,0.0,0.0,0.0,0.0,0.0,0.0,0.0,0.0,0.0,0.0,0.0,0.0,3.6109,3.5986,3.6566,3.7554,3.9068,4.0326,4.0779,4.0402,4.0245,3.9882,3.9315,3.9905,4.0236,4.0435,4.1574,4.2222,4.2553,4.3109,4.3433,4.3606,4.3606,4.3606,4.3606,4.3606,4.3606,0.0,0.0,0.0,0.0,0.0,0.0,0.0,4.5325,4.6054,4.6639,4.6569,4.6525,4.6346,4.5688,4.5789,4.6121,4.6271,4.7698,4.9265,5.0028,5.0727,5.1397,0.0,0.0,0.0,0.0,0.0,0.0,0.0,0.0,0.0,0.0,0.0,0.0,0.0,0.0,0.0,0.0,0.0,0.0,0.0,0.0,0.0,0.0,0.0,0.0,0.0,0.0,5.9099,5.9099,5.9099,5.9099,0.0,5.9312,5.9432,5.9513,6.1438,6.2753,6.3566,6.4023,6.4681,6.5414,6.5414,6.5414,6.5414,6.5414,6.5414,6.5414,6.5414,6.5414,6.5414,0.0,0.0,0.0,0.0,0.0,0.0,0.0,0.0,0.0,0.0,0.0,0.0,0.0,0.0,0.0,0.0,0.0,0.0,0.0,0.0,3.6934,3.7642,3.8036,3.9058,4.0779,4.1203,4.1236,4.0878,4.0561,4.0004,3.9315,4.0038,4.0561,4.0912,4.2024,4.2719,4.3043,4.344,4.3606,4.3606,4.3606,4.3606,4.3606,4.3606,4.3606,0.0,0.0,0.0,0.0,0.0,0.0,0.0,0.0,0.0,4.6903,4.683,4.6534,4.6198,4.6028,4.589,4.6132,4.7429,0.0,4.9546,5.0458,5.0936,5.1397,0.0,0.0,0.0,0.0,0.0,0.0,0.0,0.0,0.0,0.0,0.0,0.0,0.0,0.0,0.0,0.0,0.0,0.0,0.0,0.0,0.0,0.0,0.0,0.0,0.0,5.9099,5.9099,5.9099,5.9099,5.9099,5.9099,5.9099,5.9099,5.9153,6.0805,6.1853,6.2423,6.3436,6.4186,6.4726,6.5191,6.5414,6.5414,6.5414,6.5414,6.5414,6.5414,6.5414,6.5414,0.0,0.0,0.0,0.0,0.0,0.0,0.0,0.0,0.0,0.0,0.0,0.0,0.0,0.0,0.0,0.0,0.0,0.0,0.0,0.0,0.0,3.9249,3.954,4.0554,4.2454,4.1792,4.1394,4.1394,4.0852,4.0203,3.9514,4.0236,4.0952,4.1626,4.2348,4.3043,4.3606,4.3606,4.3606,4.3606,4.3606,4.3606,4.3606,0.0,0.0,0.0,0.0,0.0,0.0,0.0,0.0,0.0,0.0,0.0,4.7068,4.6871,4.6351,4.5956,4.6245,4.592,4.6093,4.8659,4.9288,0.0,5.0918,5.1206,5.1397,0.0,0.0,0.0,0.0,0.0,0.0,0.0,0.0,0.0,0.0,0.0,0.0,0.0,0.0,0.0,0.0,0.0,0.0,0.0,0.0,0.0,0.0,0.0,5.9099,5.9099,5.9099,5.9099,5.9099,5.9099,5.9099,5.9099,5.9099,5.9099,5.9126,6.0027,6.0533,6.0818,6.257,6.3575,6.3953,6.4806,6.5225,6.5414,6.5414,6.5414,6.5414,6.5414,6.5414,6.5414,0.0,0.0,0.0,0.0,0.0,0.0,0.0,0.0,0.0,0.0,3.2612,3.3805,0.0,0.0,0.0,0.0,0.0,0.0,0.0,0.0,0.0,3.9282,4.0488,4.156,4.248,4.1792,4.1394,4.1394,4.1295,4.0912,4.027,4.0945,4.1659,4.2381,4.3109,4.3506,4.3606,4.3606,4.3606,4.3606,4.3606,4.3606,4.3606,0.0,0.0,0.0,0.0,0.0,0.0,0.0,0.0,0.0,0.0,0.0,0.0,4.7001,4.6685,4.6441,4.5812,4.588,4.667,4.8768,4.9288,4.9636,0.0,0.0,5.1397,0.0,0.0,0.0,0.0,0.0,0.0,0.0,0.0,0.0,0.0,0.0,0.0,0.0,0.0,0.0,0.0,0.0,0.0,0.0,0.0,0.0,0.0,5.9099,5.9099,5.9099,5.9099,5.9099,5.9099,5.9099,5.9099,5.9099,5.9099,5.9099,5.9099,5.9261,5.9815,6.0727,6.0992,6.2177,6.3906,6.4035,6.4591,6.5414,6.5414,6.5414,6.5414,6.5414,6.5414,6.5414,0.0,0.0,0.0,0.0,0.0,0.0,0.0,0.0,0.0,0.0,0.0,3.5313,0.0,0.0,0.0,0.0,0.0,0.0,0.0,0.0,0.0,4.1044,4.17,4.2189,4.248,4.1792,4.1394,4.1394,4.1004,4.1077,4.1567,4.1891,4.2189,4.2513,4.3275,4.3606,4.3606,4.3606,4.3606,4.3606,4.3606,4.3845,0.0,0.0,0.0,0.0,0.0,0.0,0.0,0.0,0.0,0.0,0.0,0.0,0.0,0.0,4.7132,4.6652,4.6185,4.6518,4.7263,4.8429,4.9007,4.9546,5.0428,5.0936,5.1265,0.0,0.0,0.0,0.0,0.0,0.0,0.0,0.0,0.0,0.0,0.0,0.0,0.0,0.0,0.0,0.0,0.0,0.0,0.0,0.0,0.0,5.9099,5.9099,5.9099,5.9099,5.9099,5.9099,5.9099,5.9099,5.9099,5.9099,5.9099,5.9099,5.9099,5.9099,5.9369,5.9829,6.0442,6.1577,6.3032,6.3658,6.4476,6.5414,6.5414,6.5414,6.5414,6.5414,6.5414,6.5414,0.0,0.0,0.0,0.0,0.0,0.0,0.0,0.0,0.0,0.0,0.0,0.0,0.0,0.0,0.0,0.0,0.0,0.0,0.0,0.0,0.0,4.2189,4.2222,4.2314,4.2513,4.1792,4.1394,4.1394,4.1077,4.1475,4.2513,4.2679,4.2778,4.2811,4.3341,4.3606,4.3606,4.3606,4.3606,4.3606,4.3812,0.0,0.0,0.0,0.0,0.0,0.0,0.0,0.0,0.0,0.0,0.0,0.0,0.0,0.0,0.0,0.0,4.6729,4.6334,4.6605,4.715,4.7856,4.8558,4.9247,0.0,0.0,0.0,0.0,0.0,0.0,0.0,0.0,0.0,0.0,0.0,0.0,0.0,0.0,0.0,0.0,0.0,0.0,0.0,0.0,0.0,0.0,0.0,0.0,5.9099,5.9099,5.9099,5.9099,5.9099,5.9099,5.9099,5.9099,5.9099,5.9099,5.9099,5.9099,5.9099,5.9099,5.9099,5.914,5.9948,6.089,6.1965,6.2741,6.3838,6.5011,6.5011,6.5168,6.5414,6.5414,6.5414,6.5414,0.0,0.0,0.0,0.0,0.0,0.0,0.0,0.0,0.0,0.0,0.0,0.0,0.0,0.0,3.8454,3.9183,3.9839,4.0263,4.0336,4.0978,4.1394,4.1461,4.1461,0.0,4.248,4.1792,4.1394,4.1394,4.2057,4.2421,4.2513,4.3208,4.3539,4.3539,4.3565,4.3606,4.3606,0.0,0.0,0.0,0.0,0.0,0.0,0.0,0.0,0.0,0.0,0.0,0.0,0.0,0.0,0.0,0.0,0.0,0.0,0.0,0.0,0.0,4.5785,4.5599,4.5905,4.7074,4.7859,4.8697,0.0,0.0,0.0,0.0,0.0,0.0,0.0,0.0,0.0,0.0,0.0,0.0,0.0,0.0,0.0,0.0,0.0,0.0,0.0,0.0,0.0,0.0,0.0,0.0,5.9099,5.9099,5.9099,5.9099,5.9099,5.9099,5.9099,5.9099,5.9099,5.9099,5.9099,5.9099,5.9099,5.9099,5.9099,5.9099,5.9153,5.9776,6.0805,6.0825,6.2102,6.3976,6.3976,6.4577,6.5414,6.5414,6.5414,6.5414,0.0,0.0,0.0,0.0,0.0,0.0,0.0,0.0,0.0,0.0,0.0,0.0,0.0,3.8904,3.9202,3.9938,4.0654,4.0852,4.0435,4.1044,4.1394,4.1394,4.1858,4.2024,4.1792,4.199,4.2123,4.2123,4.2381,4.2745,4.3208,4.3473,4.3606,4.3606,4.3606,4.3606,4.3606,4.3606,0.0,0.0,0.0,0.0,0.0,0.0,0.0,0.0,0.0,0.0,0.0,0.0,0.0,0.0,0.0,0.0,0.0,0.0,0.0,4.6818,4.6948,4.625,4.5818,4.7108,4.7869,4.8517,4.9415,5.044,0.0,0.0,0.0,0.0,0.0,0.0,0.0,0.0,0.0,0.0,0.0,0.0,0.0,0.0,0.0,0.0,0.0,0.0,0.0,0.0,0.0,0.0,5.9069,5.9099,5.9099,5.9099,5.9099,5.9099,5.9099,5.9099,5.9099,5.9099,5.9099,5.9099,5.9099,5.9099,5.9099,5.9099,5.9099,5.9696,6.0714,6.0714,6.1564,6.2935,6.3614,6.4116,6.4531,6.5146,6.5414,6.5414,0.0,0.0,0.0,0.0,0.0,0.0,0.0,0.0,0.0,0.0,0.0,0.0,0.0,0.0,3.9613,4.0336,4.1011,4.1203,4.0753,4.1136,4.1494,4.1759,4.199,4.2024,4.1759,4.2024,4.2255,4.2513,4.2513,4.2877,4.3606,4.3606,4.3606,4.3606,4.3606,4.3606,0.0,0.0,0.0,4.4051,0.0,0.0,4.6518,0.0,0.0,0.0,0.0,0.0,0.0,0.0,0.0,0.0,0.0,0.0,0.0,0.0,0.0,0.0,4.7036,4.6305,4.5705,4.6559,4.7548,4.8468,4.9168,0.0,0.0,0.0,0.0,0.0,0.0,0.0,0.0,0.0,0.0,0.0,0.0,0.0,0.0,0.0,0.0,0.0,0.0,0.0,0.0,0.0,0.0,0.0,5.8726,5.8979,5.9099,5.9099,5.9099,5.9099,5.9099,5.9099,5.9099,5.9099,5.9099,5.9099,5.9099,5.9099,5.9099,5.9099,5.9099,5.9499,6.0141,6.0141,6.1005,6.2386,6.3068,6.3779,6.4464,6.5146,6.5414,6.5414,0.0,0.0,0.0,0.0,0.0,0.0,0.0,0.0,0.0,0.0,0.0,0.0,0.0,0.0,0.0,4.0369,4.1044,4.1428,4.1394,4.1394,4.1726,4.2447,4.1785,4.1759,4.248,4.1825,4.1825,4.2513,4.2513,4.291,4.3606,4.3606,4.3606,4.3606,4.3606,4.3639,4.3672,0.0,4.4703,4.4869,0.0,4.7371,4.7934,0.0,0.0,0.0,4.8365,4.8564,0.0,0.0,0.0,0.0,0.0,0.0,0.0,0.0,0.0,0.0,0.0,0.0,0.0,0.0,0.0,0.0,4.9138,0.0,0.0,0.0,0.0,0.0,0.0,0.0,0.0,0.0,0.0,0.0,0.0,0.0,0.0,0.0,0.0,0.0,0.0,0.0,0.0,0.0,0.0,5.8055,5.8085,5.8726,5.9099,5.9099,5.9099,5.9099,5.9099,5.9099,5.9099,5.9099,5.9099,5.9099,5.9099,5.9099,5.9099,5.9099,5.9099,5.9099,5.9099,5.9099,6.0324,6.2195,6.2269,6.3534,6.5336,6.5392,6.5414,6.5414,0.0,0.0,0.0,0.0,0.0,0.0,0.0,0.0,0.0,0.0,0.0,0.0,0.0,0.0,4.1468,4.1143,4.1792,4.1957,4.1428,4.1394,4.1494,4.1692,4.2024,4.2281,4.2513,4.2811,4.3076,4.3308,4.3308,4.3407,4.3606,4.3606,4.3606,4.3606,4.4158,4.4397,4.4397,4.4604,0.0,0.0,4.7106,4.7835,0.0,0.0,0.0,0.0,0.0,5.0536,0.0,0.0,5.0286,4.9284,0.0,0.0,0.0,0.0,0.0,0.0,4.6187,0.0,0.0,0.0,0.0,0.0,0.0,0.0,0.0,0.0,0.0,0.0,0.0,0.0,0.0,0.0,0.0,0.0,0.0,0.0,0.0,0.0,0.0,0.0,0.0,0.0,0.0,0.0,5.6521,5.7124,5.8055,5.8726,5.9099,5.9099,5.9099,5.9099,5.9099,5.9099,5.9099,5.9099,5.9099,5.9099,5.9099,5.9099,5.9099,5.9099,5.9099,5.9099,5.9099,5.9099,5.9446,6.0158,6.1671,6.2636,6.3344,6.4842,6.5414,6.5414,0.0,0.0,0.0,0.0,0.0,0.0,0.0,0.0,0.0,0.0,0.0,0.0,0.0,0.0,4.2081,4.1063,4.1641,4.199,4.1858,4.1858,4.199,4.2314,4.2745,4.2943,4.2943,4.3076,4.3275,4.3606,4.3275,4.3308,4.3606,4.3606,4.3771,0.0,4.4497,4.5027,0.0,0.0,0.0,0.0,4.7868,0.0,0.0,4.988,5.0651,0.0,0.0,0.0,5.134,5.1671,5.0792,0.0,0.0,0.0,0.0,0.0,0.0,0.0,0.0,0.0,0.0,0.0,0.0,0.0,4.9067,4.9763,0.0,0.0,0.0,0.0,0.0,0.0,0.0,0.0,0.0,0.0,0.0,0.0,0.0,0.0,0.0,0.0,0.0,0.0,0.0,0.0,5.6042,5.6748,5.8025,5.8487,5.8816,5.9099,5.9099,5.9099,5.9099,5.9099,5.9099,5.9099,5.9099,5.9099,5.9099,5.9099,5.9099,5.9099,5.9099,5.9099,5.9099,5.9099,5.9633,6.0572,6.1797,6.2838,6.3735,6.4932,6.5414,6.5414,0.0,0.0,0.0,0.0,0.0,0.0,0.0,0.0,0.0,0.0,0.0,0.0,0.0,0.0,0.0,0.0,4.1238,4.1924,4.2579,4.2612,4.291,4.3573,4.3606,4.3606,4.3606,4.2943,4.2943,4.3606,4.2943,4.2914,4.3501,4.3642,0.0,0.0,0.0,0.0,0.0,0.0,0.0,4.7272,4.8655,4.9607,0.0,0.0,5.085,0.0,5.1439,5.1439,5.1505,5.2093,5.1327,0.0,0.0,0.0,0.0,0.0,4.8298,0.0,0.0,0.0,0.0,0.0,0.0,0.0,4.9138,4.9703,5.0308,0.0,0.0,0.0,0.0,0.0,0.0,0.0,0.0,0.0,0.0,0.0,0.0,0.0,0.0,0.0,0.0,0.0,5.5192,5.5192,5.582,5.6718,5.7919,5.8055,5.8427,5.9069,5.9099,5.9099,5.9099,5.9099,5.9099,5.9099,5.9099,5.9099,5.9099,5.9099,5.9099,5.9099,5.9099,5.9099,5.9099,5.9099,6.0207,6.1978,6.2226,6.3439,6.509,6.5303,6.5414,6.5414,4.0152,0.0,0.0,0.0,0.0,0.0,0.0,0.0,0.0,0.0,0.0,0.0,0.0,0.0,0.0,0.0,4.2745,4.3241,4.3374,4.3374,4.344,4.3598,4.3606,4.3606,4.3606,4.3473,4.3473,4.3606,4.3473,4.3179,4.2828,4.3956,4.4288,0.0,0.0,0.0,0.0,0.0,0.0,4.8754,4.9649,0.0,5.0336,5.1521,5.206,5.2201,5.2201,5.2201,5.2126,0.0,5.0841,4.9933,0.0,0.0,0.0,0.0,0.0,0.0,0.0,0.0,0.0,0.0,0.0,0.0,4.9007,4.9396,4.9804,0.0,0.0,0.0,0.0,0.0,0.0,0.0,0.0,0.0,0.0,0.0,0.0,0.0,0.0,0.0,0.0,0.0,5.5192,5.5192,5.582,5.6509,5.7244,5.7799,5.8427,5.9069,5.9099,5.9099,5.9099,5.9099,5.9099,5.9099,5.9099,5.9099,5.9099,5.9099,5.9099,5.9099,5.9099,5.9099,5.9099,5.9099,5.9369,5.9895,6.164,6.257,6.3116,6.4773,6.5414,6.5414,3.9322,0.0,0.0,0.0,0.0,0.0,0.0,0.0,0.0,4.1147,4.0966,0.0,0.0,0.0,0.0,0.0,0.0,0.0,0.0,4.3401,4.3464,4.312,4.3408,4.3606,4.3606,4.3606,4.3456,4.3105,4.3794,4.3799,4.3175,4.4602,4.5065,0.0,0.0,0.0,0.0,0.0,4.8431,4.9118,4.9426,0.0,5.0815,5.149,5.1762,5.1762,5.1762,5.148,5.1047,5.0691,5.022,0.0,0.0,4.8717,4.8515,0.0,4.7857,4.8031,0.0,0.0,0.0,4.7327,0.0,0.0,0.0,4.8798,4.9067,5.0044,0.0,0.0,0.0,0.0,0.0,0.0,0.0,0.0,0.0,0.0,0.0,0.0,0.0,0.0,0.0,0.0,5.5192,5.5192,5.5521,5.597,5.6611,5.7244,5.7919,5.8577,5.8949,5.9099,5.9099,5.9099,5.9099,5.9099,5.9099,5.9099,5.9099,5.9099,5.9099,5.9099,5.9099,5.9099,5.9099,5.9099,5.9099,5.9328,6.1476,6.2632,6.326,6.4819,6.5414,6.5414,3.844,0.0,0.0,0.0,0.0,0.0,0.0,0.0,0.0,4.0688,4.058,0.0,0.0,0.0,0.0,0.0,0.0,0.0,0.0,0.0,4.3098,4.242,4.3019,4.3386,4.3386,4.3639,4.346,4.2767,4.4212,4.4397,4.3474,4.5047,4.5669,4.5556,4.6469,0.0,0.0,0.0,0.0,4.9054,0.0,4.9688,5.1268,5.0964,5.0951,5.1065,5.0914,5.0403,4.9827,4.9953,0.0,4.9434,4.9142,4.9302,0.0,0.0,0.0,0.0,0.0,0.0,0.0,0.0,0.0,4.7489,0.0,0.0,0.0,4.9168,0.0,0.0,0.0,0.0,0.0,0.0,0.0,0.0,0.0,0.0,0.0,0.0,0.0,0.0,0.0,5.4999,5.5059,5.5192,5.5072,5.5371,5.6162,5.6658,5.7304,5.8085,5.8637,5.8966,5.9099,5.9099,5.9099,5.9099,5.9099,5.9099,5.9099,5.9099,5.9099,5.9099,5.9099,5.9099,5.9099,5.9099,5.9099,5.9328,6.1476,6.2826,6.372,6.4954,6.5414,6.5414,3.923,4.0329,0.0,0.0,0.0,0.0,0.0,0.0,4.1464,4.1382,4.1307,0.0,0.0,0.0,0.0,0.0,0.0,0.0,4.2541,0.0,0.0,4.1655,4.2284,4.2626,4.2626,4.3862,4.4143,4.3401,4.4942,4.4593,4.2571,4.4725,4.5383,4.4876,4.6149,0.0,0.0,0.0,4.8125,0.0,4.7999,4.9104,0.0,5.0278,5.0432,5.0999,5.0206,4.9874,4.989,0.0,4.9819,4.8924,0.0,4.994,0.0,0.0,0.0,0.0,0.0,0.0,0.0,0.0,4.7309,0.0,0.0,0.0,4.8498,4.9168,0.0,0.0,0.0,0.0,0.0,0.0,0.0,0.0,0.0,0.0,0.0,0.0,0.0,0.0,0.0,0.0,5.4551,5.5162,5.464,5.485,5.6132,5.6252,5.6855,5.8055,5.8175,5.8517,5.9085,5.9099,5.9099,5.9099,5.9099,5.9099,5.9099,5.9099,5.9099,5.9099,5.9099,5.9099,5.9099,5.9099,5.9099,5.9328,6.1476,6.2355,6.2729,6.4682,6.5414,6.5414,3.8789,3.9303,0.0,0.0,0.0,0.0,0.0,0.0,4.0279,4.0279,4.0251,0.0,0.0,0.0,0.0,0.0,0.0,0.0,0.0,0.0,0.0,4.2039,4.2702,4.3091,4.3091,4.3652,4.3605,4.2874,4.4353,4.4412,4.3085,4.4853,4.5308,4.4662,4.6076,0.0,4.6616,0.0,4.8054,0.0,0.0,0.0,0.0,4.96,4.9558,5.0127,4.9674,4.9509,4.954,0.0,4.9759,0.0,0.0,0.0,0.0,0.0,0.0,0.0,0.0,0.0,0.0,0.0,0.0,0.0,0.0,0.0,4.7788,0.0,0.0,0.0,0.0,0.0,0.0,0.0,0.0,0.0,0.0,0.0,0.0,0.0,0.0,0.0,0.0,0.0,0.0,0.0,0.0,5.461,5.5581,5.5983,5.6611,5.7483,5.7919,5.8427,5.9099,5.9099,5.9099,5.9099,5.9099,5.9099,5.9099,5.9099,5.9099,5.9099,5.9099,5.9099,5.9099,5.9099,5.9099,5.9261,6.0761,6.1734,6.2465,6.3967,6.4909,6.5414,3.8661,0.0,0.0,0.0,0.0,0.0,0.0,0.0,0.0,0.0,0.0,0.0,3.969,4.0588,0.0,0.0,0.0,4.2574,0.0,0.0,4.2964,0.0,4.291,0.0,0.0,4.3676,4.3415,4.2657,4.4166,4.4407,4.3474,4.4781,4.5157,4.4818,0.0,4.6248,4.6145,0.0,0.0,4.8347,4.7907,4.8665,5.003,4.9366,4.9266,4.9424,4.9332,4.9288,4.9318,4.9486,4.9733,0.0,4.9864,0.0,0.0,0.0,0.0,0.0,4.8147,0.0,0.0,0.0,0.0,0.0,0.0,0.0,0.0,0.0,0.0,0.0,0.0,0.0,0.0,0.0,0.0,0.0,0.0,0.0,0.0,0.0,0.0,0.0,0.0,0.0,0.0,0.0,5.3773,5.4102,5.5132,5.5671,5.6209,5.6838,5.7483,5.8158,5.8816,5.8996,5.9099,5.9099,5.9099,5.9099,5.9099,5.9099,5.9099,5.9099,5.9099,5.9099,5.9099,5.9099,5.9099,5.918,5.9961,6.0915,6.204,6.3388,6.4349,6.5022,3.9361,3.9361,0.0,0.0,0.0,0.0,0.0,0.0,0.0,0.0,0.0,0.0,0.0,0.0,0.0,0.0,0.0,4.302,4.244,0.0,4.2409,0.0,0.0,0.0,0.0,0.0,4.4058,4.3269,4.4862,4.4856,4.3319,4.4147,4.4858,4.5468,4.5384,4.6152,4.7513,4.737,4.7413,4.7589,4.8089,4.8314,4.8514,0.0,4.9956,4.9292,4.9299,0.0,0.0,4.9979,4.9781,0.0,0.0,0.0,0.0,0.0,0.0,0.0,0.0,0.0,0.0,0.0,0.0,0.0,0.0,0.0,4.7489,0.0,0.0,0.0,0.0,0.0,0.0,0.0,0.0,0.0,0.0,0.0,0.0,0.0,0.0,0.0,0.0,0.0,0.0,5.3067,5.2636,5.3114,5.5102,5.5222,5.5551,5.6222,5.6808,5.744,5.8115,5.8786,5.9099,5.9099,5.9099,5.9099,5.9099,5.9099,5.9099,5.9099,5.9099,5.9099,5.9099,5.9099,5.9099,5.9099,5.914,5.9802,6.0992,6.3124,6.3918,6.4081,0.0,0.0,0.0,0.0,0.0,0.0,0.0,3.9789,0.0,0.0,0.0,0.0,0.0,0.0,4.2771,0.0,0.0,4.3888,4.3658,4.3658,0.0,0.0,0.0,4.3289,0.0,0.0,0.0,0.0,4.3849,4.4042,4.3978,4.4228,4.474,4.5394,4.5778,4.6236,0.0,0.0,0.0,0.0,0.0,4.9206,4.9565,0.0,0.0,4.9408,5.0253,5.0571,0.0,5.0787,5.0739,5.0631,5.1068,5.1056,5.0787,5.0327,5.0207,0.0,0.0,0.0,4.9841,4.962,0.0,0.0,0.0,0.0,0.0,0.0,0.0,0.0,0.0,0.0,0.0,0.0,0.0,0.0,0.0,0.0,0.0,0.0,0.0,0.0,0.0,0.0,0.0,5.3037,5.2977,5.3545,0.0,5.5192,5.5521,5.6162,5.6402,5.7017,5.8085,5.8324,5.8667,5.9099,5.9099,5.9099,5.9099,5.9099,5.9099,5.9099,5.9099,5.9099,5.9099,5.9099,5.9099,5.9099,5.9099,5.9328,5.9802,6.1235,6.2226,6.2984,3.9391,0.0,0.0,0.0,0.0,0.0,0.0,0.0,0.0,0.0,4.1534,0.0,4.2073,0.0,4.3579,0.0,4.4426,4.4546,4.4307,4.4516,0.0,4.4676,4.4247,0.0,0.0,0.0,0.0,0.0,0.0,4.4237,4.4676,4.4676,4.4995,4.5683,4.6121,4.642,4.6689,0.0,4.7919,0.0,0.0,4.9325,0.0,0.0,4.9576,0.0,0.0,5.1206,5.1206,5.1206,5.1206,5.1206,5.1206,5.1206,5.1128,5.0686,5.0578,5.0458,5.0074,5.026,0.0,0.0,5.0207,0.0,0.0,0.0,0.0,0.0,0.0,0.0,0.0,0.0,0.0,0.0,0.0,0.0,0.0,0.0,0.0,0.0,0.0,0.0,0.0,0.0,5.026,5.2007,5.2576,5.3336,0.0,0.0,5.5401,5.5833,5.6072,5.6688,5.7739,5.7979,5.8457,5.9099,5.9099,5.9099,5.9099,5.9099,5.9099,5.9099,5.9099,5.9099,5.9099,5.9099,5.9099,5.9099,5.9099,5.9099,5.9234,6.0298,6.1627,6.296,0.0,0.0,0.0,0.0,4.0029,0.0,0.0,0.0,4.1463,0.0,4.2571,4.3359,4.3389,4.4546,4.5304,4.5345,4.5345,0.0,4.4456,4.5005,0.0,0.0,4.5304,4.5603,4.63,0.0,0.0,0.0,0.0,4.5304,4.5345,4.5345,4.5723,4.636,4.636,0.0,4.7339,4.7978,4.8278,4.8308,4.8338,4.8738,4.9348,4.9348,0.0,5.1194,5.1206,5.1206,5.1206,5.1206,5.1206,5.1206,5.1206,5.1206,5.1206,5.1206,5.1206,5.1206,5.1206,5.1206,5.1056,5.0416,0.0,0.0,0.0,0.0,4.9378,0.0,0.0,0.0,0.0,0.0,0.0,0.0,0.0,0.0,0.0,0.0,0.0,0.0,0.0,0.0,0.0,4.8678,4.8835,5.0147,5.1427,5.2456,0.0,0.0,5.5162,5.5192,5.5833,5.6462,5.7107,5.7739,5.8397,5.9099,5.9099,5.9099,5.9099,5.9099,5.9099,5.9099,5.9099,5.9099,5.9099,5.9099,5.9099,5.9099,5.9099,5.9099,5.9234,6.0233,6.194,6.3753,4.0885,4.1035,4.1094,0.0,4.1035,4.1134,0.0,0.0,0.0,0.0,4.3519,4.4237,4.4725,4.5095,4.5514,4.6012,4.6031,0.0,0.0,0.0,0.0,4.6031,4.5574,4.5603,4.63,4.5623,0.0,4.5315,0.0,0.0,4.6031,4.6031,4.6401,4.7029,4.7029,4.7149,4.7298,4.7489,4.7848,4.8338,4.8828,4.9415,0.0,0.0,5.0354,5.0941,5.1117,5.1206,5.1206,5.1206,5.1206,5.1206,5.1206,5.1206,5.1206,5.1206,5.1206,5.1206,5.1206,5.1206,5.1146,5.0996,5.0936,5.0907,0.0,0.0,0.0,0.0,0.0,0.0,0.0,0.0,0.0,0.0,0.0,0.0,0.0,0.0,0.0,0.0,0.0,0.0,0.0,4.8397,4.9015,5.0817,5.1265,0.0,0.0,0.0,0.0,5.5179,5.5371,5.6,5.7107,5.7274,5.7932,5.9099,5.9099,5.9099,5.9099,5.9099,5.9099,5.9099,5.9099,5.9099,5.9099,5.9099,5.9099,5.9099,5.9099,5.9099,5.9126,5.9406,6.035,6.1514,4.1403,0.0,0.0,4.2192,0.0,0.0,4.2282,0.0,0.0,4.3638,4.4326,0.0,4.5244,4.5813,4.6322,4.6689,4.673,0.0,0.0,0.0,0.0,4.63,4.6221,4.6352,4.673,4.6371,0.0,4.6602,0.0,0.0,4.7189,4.6879,4.6939,4.7309,4.7309,4.7309,4.7339,4.7919,4.8536,4.9153,4.9553,0.0,0.0,5.0069,5.0471,5.1083,5.1214,5.1155,5.1023,5.1023,5.1094,5.1206,5.1206,5.1206,5.1206,5.1206,5.1206,5.1206,5.1206,5.1094,5.1047,5.1182,5.1094,5.1058,5.1182,5.1094,5.0963,0.0,0.0,0.0,0.0,0.0,0.0,0.0,0.0,0.0,0.0,0.0,0.0,0.0,0.0,0.0,4.7829,4.8128,4.8757,4.9853,0.0,0.0,0.0,0.0,0.0,5.473,5.5029,5.5671,5.6688,5.6958,5.7633,5.8667,5.8966,5.9099,5.9099,5.9099,5.9099,5.9099,5.9099,5.9099,5.9099,5.9099,5.9099,5.9099,5.9099,5.9099,5.9099,5.9099,5.9762,6.0714,0.0,0.0,0.0,0.0,0.0,0.0,0.0,4.3559,0.0,4.4476,0.0,4.5484,4.5674,4.6741,4.7459,4.7549,0.0,4.7298,4.673,4.7249,4.7309,4.673,4.7238,4.7549,4.7549,4.7489,0.0,0.0,0.0,0.0,4.8278,4.7608,4.7309,4.7309,4.7309,4.7369,0.0,4.8768,4.9595,5.0088,5.0177,5.008,4.9913,5.008,5.0644,5.1353,5.1442,5.1288,5.1,5.1,5.1173,5.1351,5.1351,5.1351,5.1351,5.1351,5.1351,5.1351,5.1351,5.1197,5.1078,5.1291,5.1185,5.1078,5.1303,5.1208,5.0882,5.0299,5.0579,0.0,0.0,0.0,0.0,0.0,0.0,0.0,0.0,0.0,0.0,0.0,0.0,0.0,0.0,0.0,0.0,0.0,0.0,0.0,0.0,0.0,0.0,0.0,5.491,0.0,5.6192,0.0,5.7453,5.8115,5.8786,5.9099,5.9099,5.9099,5.9099,5.9099,5.9099,5.9099,5.9099,5.9099,5.9099,5.9099,5.9099,5.9099,5.9099,5.9099,5.9699,6.0494,0.0,0.0,0.0,0.0,0.0,4.4395,4.4648,4.4832,4.5174,4.5852,4.6061,0.0,4.7649,4.7978,4.8338,4.8887,4.8947,0.0,0.0,0.0,0.0,4.8768,4.8887,4.8947,4.8947,4.8397,4.8468,0.0,0.0,0.0,4.8278,4.7608,4.7309,4.7309,4.7309,4.7608,4.8188,4.8989,0.0,4.9516,5.0009,5.008,5.0002,5.1078,5.1298,5.1147,5.1699,5.199,5.2112,5.2112,5.2137,5.2174,5.2174,5.2174,5.2174,5.2174,5.2174,5.2174,5.2174,5.2167,5.2125,5.2191,5.2137,5.2125,5.2191,5.2321,5.2266,5.16,5.1721,5.1726,5.0938,0.0,0.0,0.0,0.0,0.0,0.0,0.0,0.0,0.0,0.0,0.0,0.0,0.0,0.0,0.0,0.0,0.0,0.0,0.0,0.0,0.0,0.0,0.0,0.0,0.0,0.0,5.8115,5.8786,5.9099,5.9099,5.9099,5.9099,5.9099,5.9099,5.9099,5.9099,5.9099,5.9099,5.9099,5.9099,5.9099,5.9099,5.9099,5.9221,5.9365,0.0,0.0,0.0,0.0,0.0,0.0,0.0,4.5962,0.0,4.6453,4.6561,4.694,4.78,4.8328,4.8734,4.9073,4.9103,4.916,4.9277,4.9288,4.9288,4.9288,4.9288,0.0,4.9288,0.0,4.9127,4.9763,0.0,0.0,0.0,4.7799,4.7309,4.7309,4.7668,4.8301,0.0,0.0,0.0,4.9979,5.0579,5.0692,5.0582,5.1525,5.1879,5.1862,5.2195,5.2592,5.2882,5.2377,5.228,5.2392,5.2392,5.2392,5.2392,5.2392,5.2392,5.2392,5.2392,5.2305,5.223,5.2367,5.2305,5.223,5.2367,5.2392,5.2286,5.1979,5.2129,5.2178,5.1798,5.1176,0.0,0.0,0.0,0.0,0.0,0.0,0.0,0.0,0.0,0.0,0.0,0.0,0.0,0.0,0.0,0.0,0.0,0.0,0.0,0.0,0.0,0.0,0.0,0.0,0.0,5.759,5.862,5.9099,5.9099,5.9099,5.9099,5.9099,5.9099,5.9099,5.9099,5.9099,5.9099,5.9099,5.9099,5.9099,5.9099,5.9099,5.9099,5.9099,0.0,4.3512,0.0,0.0,4.4977,0.0,0.0,4.6822,4.7433,4.6852,4.7048,4.7407,4.7854,4.8586,4.9097,4.9245,4.9245,4.9337,4.9555,4.9593,4.9616,4.9616,4.9662,4.9696,4.9696,4.9576,4.9793,0.0,0.0,0.0,0.0,0.0,0.0,0.0,0.0,0.0,0.0,0.0,5.0218,5.056,5.1149,5.1231,5.1073,5.1888,5.2362,5.2626,5.2743,5.3094,5.3382,5.2583,5.2465,5.2629,5.2629,5.2629,5.2629,5.2629,5.2629,5.2629,5.2629,5.249,5.2389,5.2578,5.2477,5.236,5.2591,5.2528,5.2368,5.2222,5.2356,5.2467,5.2359,5.172,0.0,0.0,0.0,0.0,0.0,0.0,0.0,0.0,0.0,0.0,0.0,0.0,0.0,0.0,0.0,0.0,0.0,0.0,0.0,0.0,0.0,0.0,5.497,0.0,5.7094,0.0,5.8471,5.9099,5.9099,5.9099,5.9099,5.9099,5.9099,5.9099,5.9099,5.9099,5.9099,5.9099,5.9099,5.9099,5.9099,5.9099,5.9099,5.9099,0.0,0.0,0.0,0.0,0.0,0.0,0.0,4.7231,4.7885,4.7473,4.7954,4.8596,4.9245,4.9386,4.9693,5.03,5.0359,5.0371,5.0395,5.055,5.065,5.065,5.0891,5.1008,5.1008,5.0428,5.0458,0.0,0.0,0.0,0.0,0.0,0.0,0.0,0.0,0.0,0.0,5.0289,5.0466,5.056,5.1149,5.1231,5.1132,5.2414,5.2787,5.2655,5.321,5.3458,5.3487,5.3397,5.3366,5.3392,5.3392,5.3392,5.3392,5.3392,5.3392,5.3392,5.3392,5.3379,5.3352,5.3379,5.3366,5.3352,5.3379,5.3574,5.3568,5.3012,5.283,5.2758,5.2748,5.19,5.1397,0.0,0.0,0.0,0.0,0.0,0.0,0.0,0.0,0.0,0.0,0.0,0.0,0.0,0.0,0.0,0.0,0.0,0.0,5.4149,0.0,5.4299,5.4299,5.6166,0.0,5.7137,5.8471,5.9099,5.9099,5.9099,5.9099,5.9099,5.9099,5.9099,5.9099,5.9099,5.9099,5.9099,5.9099,5.9099,5.9099,5.9099,5.9099,5.9099,0.0,0.0,0.0,0.0,0.0,0.0,0.0,4.7893,4.84,4.8232,4.86,4.904,4.957,4.9749,4.9962,5.0243,5.0243,5.0345,5.0489,5.0567,5.0626,5.0626,5.0834,5.0964,5.0964,5.0855,5.0936,0.0,0.0,0.0,0.0,0.0,0.0,0.0,0.0,4.9693,5.0046,5.0203,5.0393,5.0656,5.1287,5.1691,5.2069,5.2959,5.3243,5.3181,5.34,5.3487,5.3487,5.3487,5.3487,5.3487,5.3487,5.3487,5.3487,5.3487,5.3487,5.3487,5.3487,5.3487,5.3487,5.3487,5.3487,5.3487,5.3487,5.3566,5.36,5.3338,5.322,5.3269,5.358,5.2952,5.2498,0.0,0.0,0.0,0.0,0.0,0.0,0.0,0.0,0.0,0.0,0.0,0.0,0.0,0.0,0.0,0.0,0.0,0.0,5.3563,0.0,5.461,5.4209,5.6137,5.7094,5.7137,5.8471,5.9099,5.9099,5.9099,5.9099,5.9099,5.9099,5.9099,5.9099,5.9099,5.9099,5.9099,5.9099,5.9099,5.9099,5.9099,5.9099,5.9099,4.5093,0.0,4.6458,0.0,4.7358,4.8055,4.8055,4.8595,4.8989,4.8989,4.9169,4.9392,4.9659,4.988,4.999,4.999,4.999,5.0062,5.0243,5.0357,5.0393,5.0393,5.0602,0.0,5.0704,5.0911,5.0994,5.0994,5.0383,0.0,0.0,0.0,0.0,0.0,4.9622,4.9872,5.0367,5.0306,5.055,5.1017,5.1643,5.2178,5.2655,5.3268,5.3487,5.3487,5.3487,5.3487,5.3487,5.3487,5.3487,5.3487,5.3487,5.3487,5.3487,5.3487,5.3487,5.3487,5.3487,5.3487,5.3487,5.3487,5.3487,5.3487,5.3487,5.3487,5.3514,5.3592,5.3645,5.3807,5.4278,5.3903,5.3486,0.0,0.0,0.0,0.0,0.0,0.0,0.0,0.0,4.9875,4.9875,0.0,0.0,0.0,0.0,0.0,0.0,0.0,0.0,0.0,0.0,0.0,0.0,0.0,5.7094,5.7137,5.8471,5.9099,5.9099,5.9099,5.9099,5.9099,5.9099,5.9099,5.9099,5.9099,5.9099,5.9099,5.9099,5.9099,5.9099,5.9099,5.9099,5.9099,4.7619,4.7776,4.7776,4.7776,4.8275,4.8687,4.8687,4.9262,4.9693,4.9693,4.9693,4.9693,4.9693,4.9693,4.9693,4.9693,4.9693,4.9705,4.9705,4.9965,5.0098,0.0,0.0,5.0501,5.0501,5.0513,5.0513,5.0513,0.0,0.0,4.9115,0.0,4.9335,5.0447,4.9924,5.0176,5.0973,5.078,5.1046,5.1659,5.2336,5.2597,5.2655,5.3268,5.3487,5.3487,5.3487,5.3487,5.3487,5.3487,5.3487,5.3487,5.3487,5.3487,5.3487,5.3487,5.3487,5.3487,5.3487,5.3487,5.3487,5.3487,5.3487,5.3487,5.3487,5.3487,5.3566,5.3854,5.411,5.4394,5.4735,5.4452,5.4179,5.4179,0.0,0.0,0.0,0.0,0.0,0.0,5.1576,5.1187,5.1187,0.0,0.0,0.0,0.0,0.0,0.0,0.0,0.0,5.4149,5.4209,0.0,5.4209,5.6137,5.7094,5.7137,5.8471,5.9099,5.9099,5.9099,5.9099,5.9099,5.9099,5.9099,5.9099,5.9099,5.9099,5.9099,5.9099,5.9099,5.9099,5.9099,5.9099,5.9099,4.7764,4.813,4.8409,4.8409,4.8943,4.9378,4.9378,4.9565,4.9693,4.9693,4.9693,4.9693,4.9693,4.9693,4.9693,0.0,4.9693,4.9693,0.0,4.9766,4.9815,4.9815,5.0074,5.0219,5.0219,5.0417,5.0501,5.0501,0.0,0.0,0.0,4.9608,4.9761,4.9953,5.0261,5.0543,5.0809,5.1158,5.1701,5.2294,5.251,5.2846,5.3239,5.3429,5.3487,5.3487,5.3487,5.3487,5.3487,5.3487,5.3487,5.3487,5.3487,5.3487,5.3487,5.3487,5.3487,5.3487,5.3487,5.3487,5.3487,5.3487,5.3487,5.3487,5.3487,5.3487,5.3566,5.3854,5.411,5.4394,5.4751,5.484,5.488,5.488,0.0,0.0,0.0,0.0,0.0,0.0,0.0,5.0697,0.0,5.0596,0.0,0.0,0.0,0.0,0.0,0.0,0.0,0.0,5.4413,0.0,5.4209,5.6137,5.7094,5.7137,5.8471,5.9099,5.9099,5.9099,5.9099,5.9099,5.9099,5.9099,5.9099,5.9099,5.9099,5.9099,5.9099,5.9099,5.9099,5.9099,5.9099,5.9099,4.8461,4.881,4.9088,4.9088,4.942,4.9693,4.9693,4.9693,4.9693,4.9693,4.9925,5.0071,5.0071,5.0291,0.0,5.01,5.0291,0.0,5.0394,5.0394,5.0394,5.0394,5.0584,5.0658,5.0658,0.0,0.0,5.0576,5.0155,4.9997,5.0083,5.0259,5.0363,5.0436,5.0842,5.1162,5.1436,5.183,5.2352,5.2933,5.2933,5.3152,5.3487,5.3487,5.3487,5.3487,5.3487,5.3487,5.3487,5.3487,5.3487,5.3487,5.3487,5.3487,5.3487,5.3487,5.3487,5.3487,5.3487,5.3487,5.3487,5.3487,5.3487,5.3487,5.3487,5.3487,5.3592,5.3955,5.4175,5.4419,5.4862,5.5108,5.5192,5.5192,0.0,0.0,0.0,0.0,0.0,0.0,0.0,0.0,0.0,5.1576,0.0,0.0,0.0,0.0,0.0,0.0,0.0,5.3947,5.4773,0.0,5.494,5.6376,5.7214,5.7483,5.859,5.9099,5.9099,5.9099,5.9099,5.9099,5.9099,5.9099,5.9099,5.9099,5.9099,5.9099,5.9099,5.9099,5.9099,5.9099,5.9099,5.9099,4.9577,4.9693,0.0,0.0,4.9693,0.0,4.9693,4.9751,4.978,4.978,5.0361,5.0768,5.0768,5.1323,5.1427,5.0884,0.0,0.0,0.0,5.1588,5.1588,5.1588,5.1588,0.0,5.1588,5.1046,5.0768,5.0768,5.0129,5.0158,5.0768,5.0768,5.1075,5.1588,5.1659,5.202,5.2597,5.2626,5.2991,5.3487,5.3487,5.3487,5.3487,5.3487,5.3487,5.3487,5.3487,5.3487,5.3487,5.3487,5.3487,5.3487,5.3487,5.3487,5.3487,5.3487,5.3487,5.3487,5.3487,5.3487,5.3487,5.3487,5.3487,5.3487,5.3487,5.3487,5.3645,5.4162,5.4291,5.4471,5.5065,5.5209,5.5192,5.5192,5.5192,5.497,5.4359,0.0,0.0,0.0,0.0,0.0,0.0,5.3288,5.3545,0.0,0.0,0.0,0.0,0.0,5.3875,5.5162,5.5192,5.5521,5.6192,5.6808,5.7453,5.8175,5.8786,5.9099,5.9099,5.9099,5.9099,5.9099,5.9099,5.9099,5.9099,5.9099,5.9099,5.9099,5.9099,5.9099,5.9099,5.9099,5.9099,5.9099,0.0,0.0,4.9693,4.9693,4.9693,4.9693,4.9693,5.0129,5.0448,5.0448,5.1004,5.1398,5.1398,5.1975,5.2307,5.2162,5.1817,5.1588,5.1588,5.1588,5.1588,5.1588,5.1588,5.1588,5.1588,5.1456,5.1398,5.1398,5.1236,5.1224,5.1398,5.1398,5.1456,5.1617,5.2136,5.2452,5.2626,5.3094,5.3371,5.3487,5.3487,5.3487,5.3487,5.3487,5.3487,5.3487,5.3487,5.3487,5.3487,5.3487,5.3487,5.3487,5.3487,5.3487,5.3487,5.3487,5.3487,5.3487,5.3487,5.3487,5.3487,5.3487,5.3487,5.3487,5.3487,5.3487,5.3592,5.3945,5.4149,5.4406,5.4811,5.5053,5.5192,5.5192,5.5192,5.5149,5.497,0.0,0.0,0.0,5.3366,5.3216,5.3892,5.3952,5.403,0.0,0.0,0.0,0.0,0.0,5.4341,5.5162,5.5192,5.5521,5.6192,5.6808,5.7693,5.889,5.9026,5.9099,5.9099,5.9099,5.9099,5.9099,5.9099,5.9099,5.9099,5.9099,5.9099,5.9099,5.9099,5.9099,5.9099,5.9099,5.9099,5.9099,4.9693,4.9693,4.9693,4.9693,4.9954,5.0158,5.0158,5.0697,5.1091,5.1091,5.1672,5.2049,5.2049,5.2643,5.302,5.302,5.2675,5.2472,5.2472,5.2472,5.2472,5.2472,5.2472,5.2472,5.2472,5.2194,5.1904,5.1588,5.1588,5.1746,5.2049,5.2049,5.2194,5.2472,5.2833,5.302,5.302,5.3342,5.3487,5.3487,5.3487,5.3487,5.3487,5.3487,5.3487,5.3487,5.3487,5.3487,5.3487,5.3487,5.3487,5.3487,5.3487,5.3487,5.3487,5.3487,5.3487,5.3487,5.3487,5.3487,5.3487,5.3487,5.3487,5.3487,5.3487,5.3487,5.3605,5.3993,5.42,5.4432,5.4888,5.5091,5.5192,5.5192,5.5192,5.5102,5.479,5.4431,0.0,5.4209,5.3892,5.3922,5.4581,5.467,5.467,5.467,0.0,0.0,5.467,5.467,5.482,5.5192,5.5491,5.597,5.6611,5.7543,5.8381,5.9099,5.9099,5.9099,5.9099,5.9099,5.9099,5.9099,5.9099,5.9099,5.9099,5.9099,5.9099,5.9099,5.9099,5.9099,5.9099,5.9099,5.9099,5.9099,4.9693,4.9693,4.9722,4.9838,5.0332,5.0739,5.0826,5.1352,5.1746,5.1746,5.2323,5.2743,5.2743,5.3181,5.3487,5.3487,5.3487,5.3487,5.3487,5.3487,5.3487,5.3487,5.3487,5.3487,5.3487,5.2991,5.2468,5.1891,5.1891,5.2194,5.2743,5.2743,5.302,5.3487,5.3487,5.3487,5.3487,5.3487,5.3487,5.3487,5.3487,5.3487,5.3487,5.3487,5.3487,5.3487,5.3487,5.3487,5.3487,5.3487,5.3487,5.3487,5.3487,5.3487,5.3487,5.3487,5.3487,5.3487,5.3487,5.3487,5.3487,5.3487,5.3487,5.3487,5.3487,5.3487,5.3645,5.4188,5.4304,5.4471,5.5091,5.5192,5.5192,5.5192,5.5192,5.4999,5.4431,0.0,5.4359,5.4359,5.4359,5.4581,5.5149,5.5192,5.5192,5.5192,5.5192,0.0,0.0,5.5192,5.5251,5.5341,5.5893,5.6551,5.7244,5.8471,5.9099,5.9099,5.9099,5.9099,5.9099,5.9099,5.9099,5.9099,5.9099,5.9099,5.9099,5.9099,5.9099,5.9099,5.9099,5.9099,5.9099,5.9099,5.9099,5.9099,4.9693,4.9693,4.9867,5.0448,5.0622,5.0871,5.1369,5.2033,5.2439,5.2439,5.2991,5.3342,5.3342,5.3429,5.3487,5.3487,5.3487,5.3487,5.3487,5.3487,5.3487,5.3487,5.3487,5.3487,5.3487,5.34,5.3313,5.3197,5.3197,5.3255,5.3342,5.3342,5.34,5.3487,5.3487,5.3487,5.3487,5.3487,5.3487,5.3487,5.3487,5.3487,5.3487,5.3487,5.3487,5.3487,5.3487,5.3487,5.3487,5.3487,5.3487,5.3487,5.3487,5.3487,5.3487,5.3487,5.3487,5.3487,5.3487,5.3487,5.3487,5.3487,5.3487,5.3487,5.3487,5.3487,5.3645,5.4188,5.4304,5.4471,5.5091,5.5192,5.5192,5.5192,5.5192,5.5162,0.0,0.0,5.5029,5.5029,5.5029,5.5102,5.5192,5.5192,5.5192,5.5192,5.5192,5.5192,5.5192,5.5192,5.5461,5.6042,5.6162,5.6748,5.7935,5.8697,5.9099,5.9099,5.9099,5.9099,5.9099,5.9099,5.9099,5.9099,5.9099,5.9099,5.9099,5.9099,5.9099,5.9099,5.9099,5.9099,5.9099,5.9099,5.9099,5.9099,4.9693,4.9693,4.9896,5.0564,5.0958,5.141,5.2033,5.2701,5.3078,5.3078,5.3326,5.3487,5.3487,5.3487,5.3487,5.3487,5.3487,5.3487,5.3487,5.3487,5.3487,5.3487,5.3487,5.3487,5.3487,5.3487,5.3487,5.3487,5.3487,5.3487,5.3487,5.3487,5.3487,5.3487,5.3487,5.3487,5.3487,5.3487,5.3487,5.3487,5.3487,5.3487,5.3487,5.3487,5.3487,5.3487,5.3487,5.3487,5.3487,5.3487,5.3487,5.3487,5.3487,5.3487,5.3487,5.3487,5.3487,5.3487,5.3487,5.3487,5.3487,5.3487,5.3487,5.3487,5.3487,5.3605,5.3841,5.4226,5.4449,5.4709,5.5116,5.5192,5.5192,5.5192,5.5192,0.0,0.0,5.5192,5.5192,5.5192,5.5192,5.5192,5.5192,5.5192,5.5192,5.5192,5.5192,5.5192,5.5192,5.5192,5.5521,5.6162,5.6868,5.7693,5.8637,5.8936,5.9099,5.9099,5.9099,5.9099,5.9099,5.9099,5.9099,5.9099,5.9099,5.9099,5.9099,5.9099,5.9099,5.9099,5.9099,5.9099,5.9099,5.9099,5.9099,5.9099,4.9248,4.9441,4.9845,5.0747,5.141,5.2049,5.2714,5.321,5.3487,5.3487,5.3487,5.3487,5.3487,5.3487,5.3487,5.3487,5.3487,5.3487,5.3487,5.3487,5.3487,5.3487,5.3487,5.3487,5.3487,5.3487,5.3487,5.3487,5.3487,5.3487,5.3487,5.3487,5.3487,5.3487,5.3487,5.3487,5.3487,5.3487,5.3487,5.3487,5.3487,5.3487,5.3487,5.3487,5.3487,5.3487,5.3487,5.3487,5.3487,5.3487,5.3487,5.3487,5.3487,5.3487,5.3487,5.3487,5.3487,5.3487,5.3487,5.3487,5.3487,5.3487,5.3487,5.3487,5.3487,5.371,5.3968,5.4239,5.4581,5.4892,5.5141,5.5192,5.5192,5.5192,0.0,0.0,0.0,5.5192,5.5192,5.5192,5.5192,5.5192,5.5192,5.5192,5.5192,5.5192,5.5192,5.5192,5.5192,5.5341,5.579,5.6611,5.759,5.8427,5.9099,5.9099,5.9099,5.9099,5.9099,5.9099,5.9099,5.9099,5.9099,5.9099,5.9099,5.9099,5.9099,5.9099,5.9099,5.9099,5.9099,5.9099,5.9099,5.9099,5.9099,5.9099,4.792,4.8611,4.9578,5.1233,5.2091,5.273,5.3355,5.3458,5.3487,5.3487,5.3487,5.3487,5.3487,5.3487,5.3487,5.3487,5.3487,5.3487,5.3487,5.3487,5.3487,5.3487,5.3487,5.3487,5.3487,5.3487,5.3487,5.3487,5.3487,5.3487,5.3487,5.3487,5.3487,5.3487,5.3487,5.3487,5.3487,5.3487,5.3487,5.3487,5.3487,5.3487,5.3487,5.3487,5.3487,5.3487,5.3487,5.3487,5.3487,5.3487,5.3487,5.3487,5.3487,5.3487,5.3487,5.3487,5.3487,5.3487,5.3487,5.3487,5.3487,5.3487,5.3487,5.3487,5.3487,5.371,5.3968,5.4239,5.4581,5.4892,5.5141,5.5192,5.5192,5.5192,0.0,0.0,5.5192,5.5192,5.5192,5.5192,5.5192,5.5192,5.5192,5.5192,5.5192,5.5192,5.5192,5.5192,5.5192,5.5803,5.6688,5.7919,5.8055,5.8427,5.9099,5.9099,5.9099,5.9099,5.9099,5.9099,5.9099,5.9099,5.9099,5.9099,5.9099,5.9099,5.9099,5.9099,5.9099,5.9099,5.9099,5.9099,5.9099,5.9099,5.9099,5.9099,4.6867,4.805,4.9339,5.0378,5.1683,5.2801,5.34,5.3487,5.3487,5.3487,5.3487,5.3487,5.3487,5.3487,5.3487,5.3487,5.3487,5.3487,5.3487,5.3487,5.3487,5.3487,5.3487,5.3487,5.3487,5.3487,5.3487,5.3487,5.3487,5.3487,5.3487,5.3487,5.3487,5.3487,5.3487,5.3487,5.3487,5.3487,5.3487,5.3487,5.3487,5.3487,5.3487,5.3487,5.3487,5.3487,5.3487,5.3487,5.3487,5.3487,5.3487,5.3487,5.3487,5.3487,5.3487,5.3487,5.3487,5.3487,5.3487,5.3487,5.3487,5.3487,5.3487,5.3487,5.3487,5.3841,5.4175,5.4278,5.4692,5.5095,5.5166,5.5192,5.5192,5.5192,0.0,5.5192,5.5192,5.5192,5.5192,5.5192,5.5192,5.5192,5.5192,5.5192,5.5192,5.5192,5.5192,5.5371,5.5803,5.6795,5.759,5.8085,5.8517,5.8846,5.9099,5.9099,5.9099,5.9099,5.9099,5.9099,5.9099,5.9099,5.9099,5.9099,5.9099,5.9099,5.9099,5.9099,5.9099,5.9099,5.9099,5.9099,5.9099,5.9099,5.9099,5.9099,4.5741,4.7407,4.9031,4.9779,5.1554,5.302,5.3429,5.3487,5.3487,5.3487,5.3487,5.3487,5.3487,5.3487,5.3487,5.3487,5.3487,5.3487,5.3487,5.3487,5.3487,5.3487,5.3487,5.3487,5.3487,5.3487,5.3487,5.3487,5.3487,5.3487,5.3487,5.3487,5.3487,5.3487,5.3487,5.3487,5.3487,5.3487,5.3487,5.3487,5.3487,5.3487,5.3487,5.3487,5.3487,5.3487,5.3487,5.3487,5.3487,5.3487,5.3487,5.3487,5.3487,5.3487,5.3487,5.3487,5.3487,5.3487,5.3487,5.3487,5.3487,5.3487,5.3487,5.3487,5.3487,5.3903,5.4304,5.4304,5.4781,5.5192,5.5192,5.5192,5.5192,5.5192,5.5192,5.5192,5.5192,5.5192,5.5192,5.5192,5.5192,5.5192,5.5192,5.5192,5.5281,5.5491,5.5521,5.588,5.6748,5.762,5.8205,5.8427,5.8846,5.9099,5.9099,5.9099,5.9099,5.9099,5.9099,5.9099,5.9099,5.9099,5.9099,5.9099,5.9099,5.9099,5.9099,5.9099,5.9099,5.9099,5.9099,5.9099,5.9099,5.9099,5.9099,5.9099,4.4453,4.6624,4.8625,4.969,5.1871,5.3474,5.3487,5.3487,5.3487,5.3487,5.3487,5.3487,5.3487,5.3487,5.3487,5.3487,5.3487,5.3487,5.3487,5.3487,5.3487,5.3487,5.3487,5.3487,5.3487,5.3487,5.3487,5.3487,5.3487,5.3487,5.3487,5.3487,5.3487,5.3487,5.3487,5.3487,5.3487,5.3487,5.3487,5.3487,5.3487,5.3487,5.3487,5.3487,5.3487,5.3487,5.3487,5.3487,5.3487,5.3487,5.3487,5.3487,5.3487,5.3487,5.3487,5.3487,5.3487,5.3487,5.3487,5.3487,5.3487,5.3487,5.3487,5.3487,5.3487,5.3903,5.4304,5.4304,5.4781,5.5192,5.5192,5.5192,5.5192,5.5192,5.5192,5.5192,5.5192,5.5192,5.5192,5.5192,5.5192,5.5192,5.5222,5.5222,5.5491,5.6162,5.6222,5.6778,5.8025,5.8085,5.8427,5.9069,5.9099,5.9099,5.9099,5.9099,5.9099,5.9099,5.9099,5.9099,5.9099,5.9099,5.9099,5.9099,5.9099,5.9099,5.9099,5.9099,5.9099,5.9099,5.9099,5.9099,5.9099,5.9099,5.9099,5.9099,4.3448,4.5375,4.7343,4.8571,5.0713,5.2528,5.3369,5.3487,5.3487,5.3487,5.3487,5.3487,5.3487,5.3487,5.3487,5.3487,5.3487,5.3487,5.3487,5.3487,5.3487,5.3487,5.3487,5.3487,5.3487,5.3487,5.3487,5.3487,5.3487,5.3487,5.3487,5.3487,5.3487,5.3487,5.3487,5.3487,5.3487,5.3487,5.3487,5.3487,5.3487,5.3487,5.3487,5.3487,5.3487,5.3487,5.3487,5.3487,5.3487,5.3487,5.3487,5.3487,5.3487,5.3487,5.3487,5.3487,5.3487,5.3487,5.3487,5.3487,5.3487,5.3487,5.3487,5.3487,5.3487,5.3903,5.4304,5.4304,5.4781,5.5192,5.5192,5.5192,5.5192,5.5192,5.5192,5.5192,5.5192,5.5192,5.5192,5.5192,5.5192,5.5371,5.5863,5.5893,5.6162,5.6778,5.7274,5.7709,5.8085,5.8547,5.8876,5.9099,5.9099,5.9099,5.9099,5.9099,5.9099,5.9099,5.9099,5.9099,5.9099,5.9099,5.9099,5.9099,5.9099,5.9099,5.9099,5.9099,5.9099,5.9099,5.9099,5.9099,5.9099,5.9099,5.9099,5.9099,4.3014,4.4652,4.6386,4.7399,4.9679,5.1692,5.2646,5.3197,5.3487,5.3487,5.3487,5.3487,5.3487,5.3487,5.3487,5.3487,5.3487,5.3487,5.3487,5.3487,5.3487,5.3487,5.3487,5.3487,5.3487,5.3487,5.3487,5.3487,5.3487,5.3487,5.3487,5.3487,5.3487,5.3487,5.3487,5.3487,5.3487,5.3487,5.3487,5.3487,5.3487,5.3487,5.3487,5.3487,5.3487,5.3487,5.3487,5.3487,5.3487,5.3487,5.3487,5.3487,5.3487,5.3487,5.3487,5.3487,5.3487,5.3487,5.3487,5.3487,5.3487,5.3487,5.3487,5.3543,5.3632,5.398,5.4342,5.4475,5.4875,5.5192,5.5192,5.5192,5.5281,5.5551,5.5611,5.5671,5.591,5.594,5.594,5.594,5.594,5.6119,5.6521,5.6551,5.6808,5.7453,5.8128,5.8517,5.8517,5.8876,5.9099,5.9099,5.9099,5.9099,5.9099,5.9099,5.9099,5.9099,5.9099,5.9099,5.9099,5.9099,5.9099,5.9099,5.9099,5.9099,5.9099,5.9099,5.9099,5.9099,5.9099,5.9099,5.9099,5.9099,5.9099,5.9099,4.3014,4.4326,4.562,4.6212,4.8681,5.0798,5.1398,5.2539,5.3343,5.3343,5.3422,5.3487,5.3487,5.3487,5.3487,5.3487,5.3487,5.3487,5.3487,5.3487,5.3487,5.3487,5.3487,5.3435,5.3343,5.3435,5.3435,5.3343,5.3343,5.3343,5.3343,5.3343,5.3395,5.3487,5.3487,5.3487,5.3487,5.3487,5.3487,5.3487,5.3487,5.3487,5.3487,5.3487,5.3487,5.3487,5.3487,5.3487,5.3487,5.3487,5.3487,5.3487,5.3487,5.3487,5.3487,5.3487,5.3487,5.3487,5.3487,5.3487,5.3487,5.3487,5.353,5.3592,5.3854,5.411,5.441,5.4811,5.5091,5.5311,5.5371,5.5371,5.5581,5.6192,5.6282,5.6462,5.7017,5.7094,5.7094,5.7094,5.7094,5.7124,5.7184,5.7244,5.7543,5.8145,5.8756,5.9099,5.9099,5.9099,5.9099,5.9099,5.9099,5.9099,5.9099,5.9099,5.9099,5.9099,5.9099,5.9099,5.9099,5.9099,5.9099,5.9099,5.9099,5.9099,5.9099,5.9099,5.9099,5.9099,5.9099,5.9099,5.9099,5.9099,5.9099,5.9099,4.3014,4.3639,4.4523,4.5578,4.7057,4.8433,4.9501,5.1026,5.2082,5.2082,5.2917,5.3487,5.3487,5.3487,5.3487,5.3487,5.3487,5.3487,5.3487,5.3487,5.3487,5.3487,5.3487,5.3049,5.2109,5.3009,5.3036,5.2082,5.2082,5.2082,5.2082,5.2082,5.2581,5.3487,5.3487,5.3487,5.3487,5.3487,5.3487,5.3487,5.3487,5.3487,5.3487,5.3487,5.3487,5.3487,5.3487,5.3487,5.3487,5.3487,5.3487,5.3487,5.3487,5.3487,5.3487,5.3487,5.3487,5.3487,5.3487,5.3487,5.3487,5.3487,5.3658,5.3841,5.3893,5.411,5.4528,5.5332,5.5777,5.6132,5.6585,5.6688,5.6748,5.6898,5.6898,5.6958,5.7077,5.7094,5.7094,5.7094,5.7094,5.7304,5.7829,5.8351,5.874,5.8876,5.9009,5.9099,5.9099,5.9099,5.9099,5.9099,5.9099,5.9099,5.9099,5.9099,5.9099,5.9099,5.9099,5.9099,5.9099,5.9099,5.9099,5.9099,5.9099,5.9099,5.9099,5.9099,5.9099,5.9099,5.9099,5.9099,5.9099,5.9099,5.9099,5.9099,4.3014,4.3226,4.37,4.4589,4.5707,4.6885,4.8047,4.9499,5.0533,5.0809,5.1388,5.177,5.177,5.177,5.2016,5.2581,5.2635,5.2635,5.2635,5.2635,5.238,5.1798,5.177,5.1484,5.0851,5.147,5.147,5.0837,5.0837,5.0837,5.0837,5.0837,5.1498,5.2635,5.2635,5.2956,5.3487,5.3487,5.3487,5.3487,5.3487,5.3487,5.3487,5.3487,5.3487,5.3487,5.3487,5.3487,5.3487,5.3487,5.3487,5.3487,5.3487,5.3487,5.3487,5.3487,5.3487,5.3487,5.3487,5.3487,5.3487,5.3487,5.3697,5.3916,5.4058,5.4539,5.5136,5.5806,5.6315,5.6718,5.7034,5.7094,5.7184,5.7543,5.756,5.7693,5.8022,5.8052,5.8052,5.8052,5.8052,5.8201,5.8547,5.8876,5.9099,5.9099,5.9099,5.9099,5.9099,5.9099,5.9099,5.9099,5.9099,5.9099,5.9099,5.9099,5.9099,5.9099,5.9099,5.9099,5.9099,5.9099,5.9099,5.9099,5.9099,5.9099,5.9099,5.9099,5.9099,5.9099,5.9099,5.9099,5.9099,5.9099,5.9099,5.9099,4.3014,4.3014,4.3126,4.3603,4.4563,4.5595,4.6571,4.78,4.8837,4.9389,4.9639,4.9793,4.9887,4.9887,5.0294,5.1306,5.1388,5.1388,5.1388,5.1388,5.0948,4.9929,4.9887,4.9788,4.959,4.9576,4.9576,4.9576,4.9576,4.9576,4.9576,4.9576,5.0238,5.1388,5.1388,5.2055,5.3197,5.3197,5.3316,5.3487,5.3487,5.3487,5.3487,5.3487,5.3487,5.3487,5.3487,5.3487,5.3487,5.3487,5.3487,5.3487,5.3487,5.3487,5.3487,5.3487,5.3487,5.3487,5.3487,5.3487,5.3487,5.3487,5.3824,5.4195,5.4429,5.5101,5.5861,5.6427,5.6928,5.7304,5.7423,5.7423,5.7633,5.8175,5.8264,5.8457,5.9026,5.9099,5.9099,5.9099,5.9099,5.9099,5.9099,5.9099,5.9099,5.9099,5.9099,5.9099,5.9099,5.9099,5.9099,5.9099,5.9099,5.9099,5.9099,5.9099,5.9099,5.9099,5.9099,5.9099,5.9099,5.9099,5.9099,5.9099,5.9099,5.9099,5.9099,5.9099,5.9099,5.9099,5.9099,5.9099,5.9099,5.9099,5.9099,5.9099,4.3014,4.3014,4.3025,4.3115,4.3644,4.4096,4.4247,4.568,4.6991,4.7583,4.8555,4.9373,4.9833,4.9887,4.9958,5.0126,5.0126,5.0126,5.0126,5.0126,5.0056,4.9901,4.9887,4.9406,4.837,4.8355,4.8355,4.8355,4.8355,4.8355,4.8355,4.8355,4.8978,5.0126,5.0126,5.0809,5.1947,5.1947,5.2541,5.3487,5.3487,5.3487,5.3487,5.3487,5.3487,5.3487,5.3487,5.3487,5.3487,5.3487,5.3487,5.3487,5.3487,5.3487,5.3487,5.3487,5.3487,5.3487,5.3487,5.3487,5.3487,5.3487,5.4318,5.5136,5.5162,5.5456,5.6115,5.7554,5.7919,5.8158,5.871,5.883,5.886,5.8936,5.8966,5.9009,5.9099,5.9099,5.9099,5.9099,5.9099,5.9099,5.9099,5.9099,5.9099,5.9099,5.9099,5.9099,5.9099,5.9099,5.9099,5.9099,5.9099,5.9099,5.9099,5.9099,5.9099,5.9099,5.9099,5.9099,5.9099,5.9099,5.9099,5.9099,5.9099,5.9099,5.9099,5.9099,5.9099,5.9099,5.9099,5.9099,5.9099,5.9099,5.9099,5.9099,4.3014,4.3014,4.3014,4.3014,4.3215,4.3438,4.374,4.4461,4.5147,4.571,4.6274,4.668,4.6926,4.7239,4.7826,4.882,4.8877,4.8877,4.8877,4.8877,4.8601,4.7915,4.7886,4.7637,4.7102,4.7087,4.7087,4.7087,4.7087,4.7087,4.7087,4.7087,4.774,4.8877,4.8877,4.9944,5.1688,5.1688,5.2407,5.3487,5.3487,5.3487,5.3487,5.3487,5.3487,5.3487,5.3487,5.3487,5.3487,5.3487,5.3487,5.3487,5.3487,5.3487,5.3487,5.3487,5.3487,5.3487,5.3487,5.3487,5.3614,5.4147,5.4811,5.5552,5.6433,5.6862,5.7222,5.7939,5.8397,5.8756,5.9069,5.9099,5.9099,5.9099,5.9099,5.9099,5.9099,5.9099,5.9099,5.9099,5.9099,5.9099,5.9099,5.9099,5.9099,5.9099,5.9099,5.9099,5.9099,5.9099,5.9099,5.9099,5.9099,5.9099,5.9099,5.9099,5.9099,5.9099,5.9099,5.9099,5.9099,5.9099,5.9099,5.9099,5.9099,5.9099,5.9099,5.9099,5.9099,5.9099,5.9099,5.9099,5.9099,5.9099,5.9099,5.9099]},{"header":{"parameterUnit":"m.s-1","parameterCategory":1,"la1":30.6,"la2":28.766,"lo1":-90.7593,"lo2":-88.6598,"dy":0.0162,"dx":0.0183,"nx":116,"ny":114,"refTime":"2023-03-11T06:00:00:Z","depth":0,"parameterNumber":3,"parameterNumberName":"V-component_of_WINDS"},"data":[0.0,0.0,0.0,0.0,0.0,0.0,0.0,0.0,0.0,0.0,0.0,0.0,0.0,0.0,0.0,0.0,0.0,0.0,0.0,0.0,0.0,0.0,0.0,0.0,0.0,0.0,0.0,0.0,0.0,0.0,0.0,0.0,0.0,0.0,0.0,0.0,0.0,0.0,0.0,0.0,0.0,0.0,0.0,0.0,0.0,0.0,0.0,0.0,0.0,0.0,0.0,0.0,0.0,0.0,0.0,0.0,0.0,0.0,0.0,0.0,0.0,0.0,0.0,0.0,0.0,0.0,0.0,0.0,0.0,0.0,0.0,0.0,0.0,0.0,0.0,0.0,0.0,0.0,0.0,0.0,0.0,0.0,0.0,0.0,0.0,0.0,0.0,0.0,0.0,0.0,0.0,0.0,0.0,0.0,0.0,0.0,0.0,0.0,0.0,0.0,0.0,0.0,0.0,0.0,0.0,0.0,0.0,0.0,0.0,0.0,0.0,0.0,0.0,0.0,0.0,0.0,0.0,0.0,0.0,0.0,0.0,0.0,0.0,0.0,0.0,0.0,0.0,0.0,0.0,0.0,0.0,0.0,0.0,0.0,0.0,0.0,0.0,0.0,0.0,0.0,0.0,0.0,0.0,0.0,0.0,0.0,0.0,0.0,0.0,0.0,0.0,0.0,0.0,0.0,0.0,0.0,0.0,0.0,0.0,0.0,0.0,0.0,0.0,0.0,0.0,0.0,0.0,0.0,0.0,0.0,0.0,0.0,0.0,0.0,0.0,0.0,0.0,0.0,0.0,0.0,0.0,0.0,0.0,0.0,0.0,0.0,0.0,0.0,0.0,0.0,0.0,0.0,0.0,0.0,0.0,0.0,0.0,0.0,0.0,0.0,0.0,0.0,0.0,0.0,0.0,0.0,0.0,0.0,0.0,0.0,0.0,0.0,0.0,0.0,0.0,0.0,0.0,0.0,0.0,0.0,0.0,0.0,0.0,0.0,0.0,0.0,0.0,0.0,0.0,0.0,0.0,0.0,0.0,0.0,0.0,0.0,0.0,0.0,0.0,0.0,0.0,0.0,0.0,0.0,0.0,0.0,0.0,0.0,0.0,0.0,0.0,0.0,0.0,0.0,0.0,0.0,0.0,0.0,0.0,0.0,0.0,0.0,0.0,0.0,0.0,0.0,0.0,0.0,0.0,0.0,0.0,0.0,0.0,0.0,0.0,0.0,0.0,0.0,0.0,0.0,0.0,0.0,0.0,0.0,0.0,0.0,0.0,0.0,0.0,0.0,0.0,0.0,0.0,0.0,0.0,0.0,0.0,0.0,0.0,0.0,0.0,0.0,0.0,0.0,0.0,0.0,0.0,0.0,0.0,0.0,0.0,0.0,0.0,0.0,0.0,0.0,0.0,0.0,0.0,0.0,0.0,0.0,0.0,0.0,0.0,0.0,0.0,0.0,0.0,0.0,0.0,0.0,0.0,0.0,0.0,0.0,0.0,0.0,0.0,0.0,0.0,0.0,0.0,0.0,0.0,0.0,0.0,0.0,0.0,0.0,0.0,0.0,0.0,0.0,0.0,0.0,0.0,0.0,0.0,0.0,0.0,0.0,0.0,0.0,0.0,0.0,0.0,0.0,0.0,0.0,0.0,0.0,0.0,0.0,0.0,0.0,0.0,0.0,0.0,0.0,0.0,0.0,0.0,0.0,0.0,0.0,0.0,0.0,0.0,0.0,0.0,0.0,0.0,0.0,0.0,0.0,0.0,0.0,0.0,0.0,0.0,0.0,0.0,0.0,0.0,0.0,0.0,0.0,0.0,0.0,0.0,0.0,0.0,0.0,0.0,0.0,0.0,0.0,0.0,0.0,0.0,0.0,0.0,0.0,0.0,0.0,0.0,0.0,0.0,0.0,0.0,0.0,0.0,0.0,0.0,0.0,0.0,0.0,0.0,0.0,0.0,0.0,0.0,0.0,0.0,0.0,0.0,0.0,0.0,0.0,0.0,0.0,0.0,0.0,0.0,0.0,0.0,0.0,0.0,0.0,0.0,0.0,0.0,0.0,0.0,0.0,0.0,0.0,0.0,0.0,0.0,0.0,0.0,0.0,0.0,0.0,0.0,0.0,0.0,0.0,0.0,0.0,0.0,0.0,0.0,0.0,0.0,0.0,0.0,0.0,0.0,0.0,0.0,0.0,0.0,0.0,0.0,0.0,0.0,0.0,0.0,0.0,0.0,0.0,0.0,0.0,0.0,0.0,0.0,0.0,0.0,0.0,0.0,0.0,0.0,0.0,0.0,0.0,0.0,0.0,0.0,0.0,0.0,0.0,0.0,0.0,0.0,0.0,0.0,0.0,0.0,0.0,0.0,0.0,0.0,0.0,0.0,0.0,0.0,0.0,0.0,0.0,0.0,0.0,0.0,0.0,0.0,0.0,0.0,0.0,0.0,0.0,0.0,0.0,0.0,0.0,0.0,0.0,0.0,0.0,0.0,0.0,0.0,0.0,0.0,0.0,0.0,0.0,0.0,0.0,0.0,0.0,0.0,0.0,0.0,0.0,0.0,0.0,0.0,0.0,0.0,0.0,0.0,0.0,0.0,0.0,0.0,0.0,0.0,0.0,0.0,0.0,0.0,0.0,0.0,0.0,0.0,0.0,0.0,0.0,0.0,0.0,0.0,0.0,0.0,0.0,0.0,0.0,0.0,0.0,0.0,0.0,0.0,0.0,0.0,0.0,0.0,0.0,0.0,0.0,0.0,0.0,0.0,0.0,0.0,0.0,0.0,0.0,0.0,0.0,0.0,0.0,0.0,0.0,0.0,0.0,0.0,0.0,0.0,0.0,0.0,0.0,0.0,0.0,0.0,0.0,0.0,0.0,0.0,0.0,0.0,0.0,0.0,0.0,0.0,0.0,0.0,0.0,0.0,0.0,0.0,0.0,0.0,0.0,0.0,0.0,0.0,0.0,0.0,0.0,0.0,0.0,0.0,0.0,0.0,0.0,0.0,0.0,0.0,0.0,0.0,0.0,0.0,0.0,0.0,0.0,0.0,0.0,0.0,0.0,0.0,0.0,0.0,0.0,0.0,0.0,0.0,0.0,0.0,0.0,0.0,0.0,0.0,0.0,0.0,0.0,0.0,0.0,0.0,0.0,0.0,0.0,0.0,0.0,0.0,0.0,0.0,0.0,0.0,0.0,0.0,0.0,0.0,0.0,0.0,0.0,0.0,0.0,0.0,0.0,0.0,0.0,0.0,0.0,0.0,0.0,0.0,0.0,0.0,0.0,0.0,0.0,0.0,0.0,0.0,0.0,0.0,0.0,0.0,0.0,0.0,0.0,0.0,0.0,0.0,0.0,0.0,0.0,0.0,0.0,0.0,0.0,0.0,0.0,0.0,0.0,0.0,0.0,0.0,0.0,0.0,0.0,0.0,0.0,0.0,0.0,0.0,0.0,0.0,0.0,0.0,0.0,0.0,0.0,0.0,0.0,0.0,0.0,0.0,0.0,0.0,0.0,0.0,0.0,0.0,0.0,0.0,0.0,0.0,0.0,0.0,0.0,0.0,0.0,0.0,0.0,0.0,0.0,0.0,0.0,0.0,0.0,0.0,0.0,0.0,0.0,0.0,0.0,0.0,0.0,0.0,0.0,0.0,0.0,0.0,0.0,0.0,0.0,0.0,0.0,0.0,0.0,0.0,0.0,0.0,0.0,0.0,0.0,0.0,0.0,0.0,0.0,0.0,0.0,0.0,0.0,0.0,0.0,0.0,0.0,0.0,0.0,0.0,0.0,0.0,0.0,0.0,0.0,0.0,0.0,0.0,0.0,0.0,0.0,0.0,0.0,0.0,0.0,0.0,0.0,0.0,0.0,0.0,0.0,0.0,0.0,0.0,0.0,0.0,0.0,0.0,0.0,0.0,0.0,0.0,0.0,0.0,0.0,0.0,0.0,0.0,0.0,0.0,0.0,0.0,0.0,0.0,0.0,0.0,0.0,0.0,0.0,0.0,0.0,0.0,0.0,0.0,0.0,0.0,0.0,0.0,0.0,0.0,0.0,0.0,0.0,0.0,0.0,0.0,0.0,0.0,0.0,0.0,0.0,0.0,0.0,0.0,0.0,0.0,0.0,0.0,0.0,0.0,0.0,0.0,0.0,0.0,0.0,0.0,0.0,0.0,0.0,0.0,0.0,0.0,0.0,0.0,0.0,0.0,0.0,0.0,0.0,0.0,0.0,0.0,0.0,0.0,0.0,0.0,0.0,0.0,0.0,0.0,0.0,0.0,0.0,0.0,0.0,0.0,0.0,0.0,0.0,0.0,0.0,0.0,0.0,0.0,0.0,0.0,0.0,0.0,0.0,0.0,0.0,0.0,0.0,0.0,0.0,0.0,0.0,0.0,0.0,0.0,0.0,0.0,0.0,0.0,0.0,0.0,0.0,0.0,0.0,0.0,0.0,0.0,0.0,0.0,0.0,0.0,0.0,0.0,0.0,0.0,0.0,0.0,0.0,0.0,0.0,0.0,0.0,0.0,0.0,0.0,0.0,0.0,0.0,0.0,0.0,0.0,0.0,0.0,0.0,0.0,0.0,0.0,0.0,0.0,0.0,0.0,0.0,0.0,0.0,0.0,0.0,0.0,0.0,0.0,0.0,0.0,0.0,0.0,0.0,0.0,0.0,0.0,0.0,0.0,0.0,0.0,0.0,0.0,0.0,0.0,0.0,0.0,0.0,0.0,0.0,0.0,0.0,0.0,0.0,0.0,0.0,0.0,0.0,0.0,0.0,0.0,0.0,0.0,0.0,0.0,0.0,0.0,0.0,0.0,0.0,0.0,0.0,0.0,0.0,0.0,0.0,0.0,0.0,0.0,0.0,0.0,0.0,0.0,0.0,0.0,0.0,0.0,0.0,0.0,0.0,0.0,0.0,0.0,0.0,0.0,0.0,0.0,0.0,0.0,0.0,0.0,0.0,0.0,0.0,0.0,0.0,0.0,0.0,0.0,0.0,0.0,0.0,0.0,0.0,0.0,0.0,0.0,0.0,0.0,0.0,0.0,0.0,0.0,0.0,0.0,0.0,0.0,0.0,0.0,0.0,0.0,0.0,0.0,0.0,0.0,0.0,0.0,0.0,0.0,0.0,0.0,0.0,0.0,0.0,0.0,0.0,0.0,0.0,0.0,0.0,0.0,0.0,0.0,0.0,0.0,0.0,0.0,0.0,0.0,0.0,0.0,0.0,0.0,0.0,0.0,0.0,0.0,0.0,0.0,0.0,0.0,0.0,0.0,0.0,0.0,0.0,0.0,0.0,0.0,0.0,0.0,0.0,0.0,0.0,0.0,0.0,0.0,0.0,0.0,0.0,0.0,0.0,0.0,0.0,0.0,0.0,0.0,0.0,0.0,0.0,0.0,0.0,0.0,0.0,0.0,0.0,0.0,0.0,0.0,0.0,0.0,0.0,0.0,0.0,0.0,0.0,0.0,0.0,0.0,0.0,0.0,0.0,0.0,0.0,0.0,0.0,0.0,0.0,0.0,0.0,0.0,0.0,0.0,0.0,0.0,0.0,0.0,0.0,0.0,0.0,0.0,0.0,0.0,0.0,0.0,0.0,0.0,0.0,0.0,0.0,0.0,0.0,0.0,0.0,0.0,0.0,0.0,0.0,0.0,0.0,0.0,0.0,0.0,0.0,0.0,0.0,0.0,0.0,0.0,0.0,0.0,0.0,0.0,0.0,0.0,0.0,0.0,0.0,0.0,0.0,0.0,0.0,0.0,0.0,0.0,0.0,0.0,0.0,0.0,0.0,0.0,0.0,0.0,0.0,0.0,0.0,0.0,0.0,0.0,0.0,0.0,0.0,0.0,0.0,0.0,0.0,0.0,0.0,0.0,0.0,0.0,0.0,0.0,0.0,0.0,0.0,0.0,0.0,0.0,0.0,0.0,0.0,0.0,0.0,0.0,0.0,0.0,0.0,0.0,0.0,0.0,0.0,0.0,0.0,0.0,0.0,0.0,0.0,0.0,0.0,0.0,0.0,0.0,0.0,0.0,0.0,0.0,0.0,0.0,0.0,0.0,0.0,0.0,0.0,0.0,0.0,0.0,0.0,0.0,0.0,0.0,0.0,2.379,0.0,0.0,0.0,0.0,0.0,0.0,0.0,0.0,0.0,0.0,0.0,0.0,0.0,0.0,0.0,0.0,0.0,0.0,0.0,0.0,0.0,0.0,0.0,0.0,0.0,0.0,0.0,0.0,0.0,0.0,0.0,0.0,0.0,0.0,0.0,0.0,0.0,0.0,0.0,2.2329,2.3231,2.4251,2.4023,2.3592,2.301,0.0,0.0,0.0,0.0,0.0,0.0,0.0,0.0,0.0,0.0,0.0,0.0,0.0,0.0,0.0,0.0,0.0,0.0,0.0,0.0,0.0,0.0,0.0,0.0,0.0,0.0,0.0,0.0,0.0,0.0,0.0,0.0,0.0,0.0,0.0,0.0,0.0,0.0,0.0,0.0,0.0,0.0,0.0,0.0,0.0,0.0,0.0,0.0,0.0,0.0,0.0,0.0,0.0,0.0,0.0,0.0,0.0,0.0,0.0,0.0,0.0,0.0,0.0,0.0,0.0,0.0,0.0,0.0,0.0,0.0,0.0,2.4391,0.0,0.0,0.0,0.0,0.0,0.0,0.0,0.0,0.0,0.0,0.0,0.0,0.0,0.0,0.0,0.0,0.0,0.0,0.0,0.0,0.0,0.0,0.0,0.0,0.0,0.0,0.0,0.0,0.0,0.0,0.0,0.0,0.0,0.0,0.0,0.0,0.0,2.2343,2.357,2.5111,2.6934,2.6628,2.5952,2.4946,2.5168,0.0,0.0,0.0,0.0,0.0,0.0,0.0,0.0,0.0,0.0,0.0,0.0,0.0,0.0,0.0,0.0,0.0,0.0,0.0,0.0,0.0,0.0,0.0,0.0,0.0,0.0,0.0,0.0,0.0,0.0,0.0,0.0,0.0,0.0,0.0,0.0,0.0,0.0,0.0,0.0,0.0,0.0,0.0,0.0,0.0,0.0,0.0,0.0,0.0,0.0,0.0,0.0,0.0,0.0,0.0,0.0,0.0,0.0,0.0,0.0,0.0,0.0,0.0,0.0,0.0,2.675,2.7239,2.7545,2.7693,2.6082,2.5254,2.5021,0.0,0.0,0.0,0.0,0.0,0.0,0.0,0.0,0.0,0.0,0.0,0.0,0.0,0.0,0.0,0.0,0.0,0.0,0.0,0.0,0.0,0.0,2.4074,2.4079,2.3994,2.3619,2.3228,0.0,0.0,0.0,0.0,0.0,0.0,0.0,2.3448,2.401,2.4067,2.5628,2.6722,2.7427,2.7885,2.8006,2.7798,2.6516,2.6199,2.656,0.0,0.0,0.0,0.0,0.0,0.0,0.0,0.0,0.0,0.0,0.0,0.0,0.0,0.0,0.0,0.0,0.0,0.0,0.0,0.0,0.0,0.0,0.0,0.0,0.0,0.0,0.0,0.0,0.0,0.0,0.0,0.0,0.0,0.0,0.0,0.0,0.0,0.0,0.0,0.0,0.0,2.4567,2.5422,0.0,0.0,0.0,0.0,0.0,0.0,0.0,0.0,0.0,0.0,0.0,0.0,0.0,0.0,2.8041,2.7549,2.7365,2.7534,2.7608,2.7658,2.774,2.8206,2.8425,2.8429,2.7958,0.0,2.7166,2.6732,0.0,0.0,0.0,0.0,0.0,0.0,0.0,0.0,0.0,0.0,0.0,0.0,0.0,0.0,0.0,0.0,0.0,0.0,0.0,0.0,0.0,2.4439,2.4616,2.4704,2.4739,2.4414,2.3625,0.0,0.0,0.0,0.0,2.3058,2.3614,2.4427,2.5468,2.6701,2.772,2.8629,2.9475,2.9728,2.9868,2.9823,2.9174,2.8623,2.8178,2.7633,0.0,0.0,0.0,0.0,0.0,0.0,0.0,0.0,0.0,0.0,0.0,0.0,0.0,0.0,0.0,0.0,0.0,0.0,0.0,0.0,0.0,0.0,0.0,0.0,0.0,0.0,0.0,0.0,0.0,0.0,0.0,0.0,0.0,0.0,0.0,0.0,0.0,0.0,0.0,2.5178,2.5935,2.5583,2.6715,2.7217,0.0,0.0,0.0,0.0,0.0,0.0,0.0,0.0,0.0,2.9115,2.889,2.8864,2.9086,2.8486,2.8206,2.8305,2.8553,2.8698,2.8698,2.9174,2.9394,2.9381,2.9245,2.9116,2.8877,2.7879,2.7381,2.7246,0.0,0.0,0.0,0.0,0.0,0.0,0.0,0.0,0.0,0.0,0.0,0.0,0.0,0.0,0.0,0.0,0.0,0.0,2.4405,2.4868,2.5283,2.5489,2.5692,2.5532,2.49,2.4589,0.0,0.0,0.0,2.4173,2.4742,2.5586,2.7033,2.9133,2.953,3.0225,3.1209,3.1209,3.1296,3.1427,3.1427,3.08,2.9711,2.9414,2.9274,2.9222,0.0,0.0,0.0,0.0,0.0,0.0,0.0,0.0,0.0,0.0,0.0,0.0,0.0,0.0,0.0,0.0,0.0,0.0,0.0,0.0,0.0,0.0,0.0,0.0,0.0,0.0,0.0,0.0,0.0,0.0,0.0,0.0,0.0,0.0,0.0,0.0,0.0,2.6813,2.7481,2.6428,2.7974,2.8858,0.0,0.0,0.0,0.0,0.0,0.0,3.0974,3.0759,3.0813,3.1251,3.0962,3.0684,3.045,2.9996,2.9642,2.9367,2.9711,2.9725,2.9497,2.9829,2.9994,2.9994,2.9994,2.9994,2.9906,2.875,2.8131,2.7938,2.7982,2.7938,0.0,2.795,2.7975,2.7988,0.0,0.0,0.0,0.0,0.0,0.0,0.0,0.0,0.0,0.0,0.0,2.4958,2.4962,2.5443,2.5991,2.6574,2.6129,2.6045,2.6638,2.5661,2.5278,2.5758,2.5276,2.5254,2.5722,2.7378,2.91,3.0876,3.0895,3.1209,3.1771,3.1771,3.2078,3.2604,3.2604,3.1976,3.094,3.1425,3.1615,3.1615,3.1588,0.0,0.0,0.0,0.0,0.0,0.0,0.0,0.0,0.0,0.0,0.0,0.0,0.0,0.0,0.0,0.0,0.0,0.0,0.0,0.0,0.0,0.0,0.0,0.0,0.0,0.0,0.0,0.0,0.0,0.0,0.0,0.0,0.0,0.0,0.0,0.0,0.0,0.0,2.9276,2.978,0.0,0.0,0.0,0.0,3.1643,3.1664,3.1469,3.1113,3.1481,3.1734,3.177,3.2158,3.2602,3.3011,3.2972,3.2469,3.1447,3.1478,3.0949,2.9973,2.9973,2.9994,2.9994,2.9994,2.9994,2.9953,2.9451,2.907,2.8783,2.835,2.8068,2.7933,2.8106,2.8174,2.8232,0.0,0.0,0.0,0.0,0.0,0.0,0.0,0.0,0.0,2.4111,2.4637,2.5115,2.5484,2.6041,2.6608,2.7175,2.7011,2.6989,2.7221,2.6547,2.6368,2.6902,2.6409,2.6733,2.802,2.9004,3.0171,3.1503,3.1503,3.1817,3.2375,3.2375,3.2489,3.2708,3.2708,3.2473,3.2081,3.1885,3.1797,3.1771,3.1425,3.1287,0.0,0.0,0.0,0.0,0.0,0.0,0.0,0.0,0.0,0.0,0.0,0.0,0.0,0.0,0.0,0.0,0.0,0.0,0.0,0.0,0.0,0.0,0.0,0.0,0.0,0.0,0.0,0.0,0.0,0.0,0.0,0.0,0.0,0.0,0.0,0.0,0.0,3.0997,3.223,0.0,0.0,3.2615,3.3077,3.3625,3.3037,3.3015,3.3893,3.3791,3.4043,3.4745,3.4594,3.4571,3.4736,3.4401,3.4052,3.3656,3.3656,3.307,3.1984,3.1984,3.1593,3.0898,3.0898,3.0898,3.0898,3.0711,3.0244,2.9595,2.9417,2.9304,2.926,2.933,2.9356,2.9369,0.0,0.0,0.0,0.0,0.0,0.0,0.0,0.0,0.0,2.4387,2.4917,2.5466,2.6025,2.6608,2.7097,2.7472,2.7689,2.7802,2.7802,2.7479,2.7427,2.7802,2.7453,2.8098,2.9841,3.0232,3.0955,3.2094,3.2094,3.2401,3.2996,3.2996,3.3101,3.3273,3.3273,3.3273,3.3257,3.2845,3.2564,3.2391,3.2019,3.1872,3.1898,0.0,0.0,0.0,0.0,0.0,0.0,0.0,0.0,0.0,0.0,0.0,0.0,0.0,0.0,0.0,0.0,0.0,0.0,0.0,0.0,0.0,0.0,0.0,0.0,0.0,0.0,0.0,0.0,0.0,0.0,0.0,0.0,0.0,0.0,0.0,3.295,3.2383,3.372,3.4526,3.4079,3.4277,3.4664,3.5228,3.4617,3.4771,3.5998,3.5765,3.6012,3.691,3.6591,3.6393,3.6393,3.6069,3.5703,3.5343,3.5543,3.5064,3.399,3.416,3.3846,3.3095,3.2494,3.224,3.2212,3.1628,3.1022,3.0484,3.0484,3.0484,3.0484,3.0484,3.0484,3.0484,0.0,0.0,0.0,0.0,0.0,0.0,0.0,2.4111,2.4327,2.4913,2.5458,2.6025,2.6633,2.7175,2.7498,2.7498,2.8046,2.8403,2.8403,2.8411,2.8438,2.8438,2.8455,2.9266,3.0957,3.1035,3.1584,3.2735,3.2735,3.3074,3.365,3.3676,3.3963,3.445,3.445,3.445,3.445,3.445,3.4136,3.3676,3.365,3.3613,3.3571,0.0,0.0,0.0,0.0,0.0,0.0,0.0,0.0,0.0,0.0,0.0,0.0,0.0,0.0,0.0,0.0,0.0,0.0,0.0,0.0,0.0,0.0,0.0,0.0,0.0,0.0,0.0,0.0,0.0,0.0,0.0,0.0,0.0,3.1414,3.3197,3.4386,3.3491,3.4206,3.4954,3.5483,3.5533,3.5794,3.6393,3.6443,3.6695,3.7198,3.7223,3.7475,3.8015,3.8028,3.8065,3.809,3.8078,3.758,3.6548,3.7154,3.6863,3.5849,3.6362,3.6567,3.6385,3.4686,3.3928,3.3784,3.2145,3.1491,3.1491,3.1415,3.1408,3.1408,3.1408,3.1408,3.1408,0.0,0.0,0.0,0.0,0.0,0.0,0.0,2.4111,2.4327,2.4913,2.5458,2.6025,2.6633,2.7175,2.7498,2.7498,2.8046,2.8403,2.8403,2.8821,2.9057,2.9057,2.9841,3.0521,3.0983,3.1793,3.2604,3.3352,3.3754,3.4241,3.4842,3.5234,3.5495,3.5626,3.5626,3.5626,3.5626,3.5626,3.5547,3.5338,3.4502,3.4173,3.4162,0.0,0.0,0.0,0.0,0.0,0.0,0.0,0.0,0.0,0.0,0.0,0.0,0.0,0.0,0.0,0.0,0.0,0.0,0.0,0.0,0.0,0.0,0.0,0.0,0.0,0.0,0.0,0.0,0.0,0.0,0.0,0.0,3.486,3.4341,3.4847,3.5338,3.554,3.5777,3.6004,3.6155,3.6483,3.6784,3.6959,3.7349,3.7613,3.7764,3.7789,3.8052,3.863,3.9032,3.9421,3.981,4.0198,4.0254,3.9952,4.0126,3.9603,3.8537,3.868,3.7776,3.611,3.5621,3.4906,3.4011,3.3543,3.3356,3.3232,3.1926,3.1408,3.1408,3.1408,3.1408,3.1408,0.0,0.0,0.0,0.0,0.0,0.0,0.0,2.4111,2.4405,2.5231,2.5607,2.6122,2.6948,2.7324,2.7603,2.7855,2.8211,2.8403,2.8403,2.8725,2.9249,2.9972,3.0652,3.1349,3.2081,3.297,3.3702,3.4319,3.4842,3.5286,3.5626,3.5955,3.6096,3.6096,3.6096,3.6096,3.6096,3.6096,3.6096,3.6033,3.5391,3.5103,3.5103,3.5103,3.5103,3.5077,3.4763,3.4643,3.4476,3.3467,0.0,0.0,0.0,0.0,0.0,0.0,0.0,0.0,0.0,0.0,0.0,0.0,0.0,0.0,0.0,0.0,0.0,0.0,0.0,0.0,0.0,0.0,0.0,0.0,3.4942,3.5595,3.5844,3.5869,3.6006,3.6368,3.6594,3.6745,3.6745,3.7223,3.755,3.755,3.8052,3.8479,3.8693,3.8944,3.932,3.9898,4.0224,4.0512,4.0826,4.1138,4.1289,4.1289,4.1567,4.133,4.0703,4.091,4.027,0.0,3.7605,3.6632,3.5836,3.4624,3.4102,0.0,0.0,0.0,0.0,0.0,3.2527,3.2527,0.0,0.0,0.0,0.0,0.0,0.0,0.0,2.4111,2.4495,2.5644,2.5801,2.6237,2.7368,2.7498,2.7742,2.8351,2.8403,2.8455,2.8577,2.8577,2.9336,3.1009,3.1166,3.195,3.3571,3.4188,3.4763,3.5286,3.5913,3.6201,3.6201,3.6279,3.6294,3.6294,3.6294,3.6294,3.6294,3.6294,3.6371,3.6433,3.6349,3.6227,3.6096,3.6096,3.6096,3.6096,3.6096,3.6096,3.6064,3.5803,0.0,0.0,0.0,0.0,0.0,0.0,0.0,0.0,0.0,0.0,0.0,0.0,0.0,0.0,0.0,0.0,0.0,0.0,0.0,0.0,0.0,0.0,0.0,0.0,3.5294,3.5882,3.6406,3.6544,3.6569,3.6494,3.6959,3.7299,3.7299,3.7839,3.8178,3.8178,3.8806,3.9383,3.9861,0.0,0.0,0.0,0.0,4.1528,4.1565,4.164,4.1665,4.1665,4.2222,4.2475,4.25,4.2964,4.3022,4.2591,3.9919,3.858,3.812,3.548,3.4413,3.4392,3.4185,3.4102,3.4102,3.4102,3.4102,0.0,0.0,0.0,0.0,0.0,0.0,0.0,0.0,2.4111,2.4495,2.5644,2.5801,2.6237,2.7368,2.7498,2.7742,2.8351,2.8403,2.8786,2.9701,2.977,3.0318,3.1598,3.2123,3.2761,3.3571,3.4607,3.5182,3.5286,3.6321,3.6828,3.6854,3.7314,3.756,3.756,3.756,3.756,3.756,3.756,3.796,3.8554,3.7814,3.6985,3.6096,3.6096,3.6096,3.6096,3.6096,3.6096,3.6,3.5388,3.4983,3.4707,3.4397,0.0,0.0,0.0,0.0,0.0,0.0,0.0,0.0,0.0,0.0,0.0,0.0,0.0,0.0,0.0,0.0,0.0,0.0,0.0,0.0,3.5257,3.6183,3.6922,3.7034,3.7424,3.7525,3.711,3.7525,3.7839,3.7839,3.8768,3.9371,3.9371,4.0287,4.0876,4.1001,4.1088,0.0,4.2009,4.2448,4.2886,4.3299,4.375,4.3962,4.3962,0.0,0.0,4.4127,4.4227,4.314,4.1096,4.0522,3.9069,3.7081,3.6513,3.6266,3.6121,3.4682,3.4102,3.4102,3.4102,3.4102,3.4102,0.0,0.0,0.0,0.0,0.0,0.0,0.0,2.4111,2.4398,2.5275,2.5626,2.6122,2.6992,2.735,2.7742,2.8351,2.8664,2.9083,2.9657,3.0232,3.1068,3.2192,3.2829,3.3571,3.4424,3.526,3.5835,3.6149,3.7011,3.7456,3.7456,3.7769,3.79,3.7911,3.8361,3.8549,3.8571,3.9053,3.9513,3.9869,3.9425,3.8895,3.8239,3.7353,3.7011,3.7011,3.7011,3.7011,3.6937,3.6575,3.627,3.5973,3.5467,3.4927,3.4426,0.0,0.0,0.0,0.0,0.0,0.0,0.0,0.0,0.0,0.0,0.0,0.0,0.0,0.0,3.4288,0.0,0.0,3.5641,3.5906,3.6634,3.7299,3.7563,3.8316,3.8542,3.7688,3.8341,3.8843,3.8843,3.9835,4.0512,4.0512,4.1279,4.1756,4.1756,4.227,4.2685,4.2989,4.3528,4.394,4.4202,4.4478,4.4589,4.4589,4.4589,4.4589,4.4589,4.4589,4.3894,4.2589,4.1264,3.9972,3.8656,3.7344,3.6804,3.6701,3.579,3.5454,3.5454,3.5454,3.5454,3.5454,0.0,0.0,0.0,0.0,0.0,0.0,0.0,0.0,2.4327,2.4913,2.5458,2.6025,2.6633,2.7175,2.7689,2.8185,2.897,2.9414,2.9318,3.046,3.161,3.2656,3.3284,3.4136,3.5297,3.5835,3.641,3.7011,3.7612,3.79,3.79,3.8068,3.8148,3.8194,3.9082,3.9475,3.953,4.0292,4.071,4.0859,4.0678,4.0603,4.0421,3.8774,3.8148,3.8125,3.7969,3.781,3.7732,3.7862,3.7649,3.7226,3.6636,3.6191,3.5671,3.4427,3.4288,0.0,0.0,0.0,0.0,0.0,0.0,0.0,0.0,0.0,3.4703,3.4703,3.5043,3.5294,3.5066,3.5767,3.6468,3.6695,3.716,3.7726,3.8241,3.922,3.9546,3.873,3.9433,4.0023,4.0023,4.0889,4.1478,4.1478,4.2121,4.2526,4.2526,4.3427,4.3966,4.3966,4.4478,4.478,4.478,4.488,4.4916,4.4916,4.4916,4.4916,4.4916,4.4667,4.4392,4.3984,4.1438,4.0367,4.0285,3.8192,3.7306,3.7306,3.7306,3.7306,3.7285,3.6929,3.6804,3.6804,0.0,0.0,0.0,0.0,0.0,0.0,0.0,0.0,0.0,2.4913,2.5458,2.6025,2.6633,2.7175,2.7524,2.7576,2.9091,2.9805,2.9318,3.0798,3.1999,3.2682,3.3284,3.4136,3.5297,3.5835,3.641,3.7011,3.7612,3.79,3.7911,3.8695,3.9044,3.9088,4.0032,4.0453,4.0464,4.0571,4.1071,4.1769,4.0944,4.0603,4.0496,3.9453,3.9044,3.8932,3.8182,3.756,3.7194,3.7717,3.7363,3.675,3.6947,3.6511,3.5736,3.4857,0.0,3.3847,3.3266,3.3531,0.0,3.4577,3.4703,3.4703,0.0,0.0,3.4703,3.4703,3.4753,3.5091,3.6029,3.6318,3.6708,3.7675,3.8329,3.8894,3.9421,4.0036,4.0538,4.0887,4.1038,4.1113,4.1113,4.1706,4.2098,4.2098,4.3051,4.3614,4.3614,4.4177,4.4514,4.4514,4.5095,4.5412,4.5412,4.5874,4.611,4.611,4.611,4.611,4.608,4.4887,4.3642,4.2331,4.0022,3.9256,3.9598,3.9312,3.9192,3.9192,3.9192,3.9192,3.9006,3.7388,3.6804,3.6804,0.0,0.0,0.0,0.0,0.0,0.0,0.0,0.0,0.0,0.0,2.526,2.5913,2.6164,2.6984,2.7498,2.7498,2.8821,2.9536,2.9318,3.1209,3.2427,3.2682,3.3571,3.445,3.5286,3.6358,3.6953,3.7011,3.8657,3.9182,3.8684,3.9585,4.0021,4.0076,4.0997,4.1425,4.1457,4.1966,4.2386,4.2719,4.2325,4.1873,4.1302,4.0378,3.9694,3.9034,3.7832,3.7209,0.0,3.7299,3.7115,3.6887,3.7243,3.6781,3.5978,3.5159,3.4676,0.0,3.4477,0.0,0.0,0.0,3.5691,3.5691,3.5691,3.5691,3.5792,3.6081,3.6157,3.6383,3.7198,3.7324,3.7701,0.0,3.9208,3.966,4.0512,4.1128,4.1569,4.1795,4.2108,4.2158,4.1845,4.2624,4.3126,4.3126,4.384,4.4278,4.4278,4.4805,4.5121,4.5121,4.5673,4.5974,4.5974,4.6512,4.6788,4.6772,4.7089,4.7214,4.7199,4.665,4.5043,4.2644,4.1329,4.0002,3.8733,3.8733,3.8733,3.8733,3.8733,3.8733,3.8713,3.8464,3.8382,3.8382,0.0,0.0,0.0,0.0,0.0,0.0,0.0,0.0,0.0,0.0,2.5096,2.5905,2.6237,2.7002,2.7498,2.7498,2.8595,2.9292,2.9292,3.1296,3.2542,3.2682,3.365,3.4528,3.5286,3.6544,3.7182,3.7105,3.928,3.9987,3.9338,4.0466,4.0986,4.1029,4.1945,4.2364,4.2405,4.304,4.33,4.328,4.305,4.2568,4.1862,4.0678,3.9704,3.8818,3.7489,3.6907,3.675,3.675,3.659,3.6475,3.6824,3.6493,3.5805,3.5012,3.4533,3.4413,3.5093,0.0,0.0,3.6117,3.6393,3.6443,3.6594,3.6619,3.6758,3.7299,3.7424,3.76,3.8153,3.8366,3.8793,3.9772,4.0049,4.0462,4.1416,4.192,4.2299,4.2626,4.2975,4.3126,4.2889,4.3427,4.3865,4.4016,4.4529,4.4855,4.4855,4.5397,4.5773,4.5949,4.6311,4.6587,4.6737,4.7139,4.7324,4.734,4.7716,4.7908,4.7892,4.7508,4.5709,4.2889,4.2438,4.1001,3.8954,3.8954,3.8954,3.8954,3.8954,3.8871,3.8833,3.9461,3.9461,3.9147,0.0,0.0,0.0,0.0,0.0,0.0,0.0,0.0,0.0,0.0,0.0,0.0,0.0,2.7464,2.7498,2.7498,2.8595,2.9292,2.9292,3.0876,3.2094,3.2682,3.3284,3.4136,3.5297,3.6116,3.6804,3.74,3.89,3.961,3.9627,4.1222,4.1945,4.2015,4.286,4.326,4.326,4.329,4.33,4.323,4.2384,4.2007,4.179,3.9967,3.889,3.8298,3.7331,3.6619,3.6123,3.6123,3.562,3.5018,3.537,3.5315,0.0,3.4175,3.3556,0.0,0.0,0.0,3.4965,3.6117,3.6393,3.6544,3.706,3.7185,3.7324,3.7864,3.799,3.8165,3.8768,3.9283,3.9823,4.0387,4.0926,4.1466,4.2098,4.2199,4.2601,4.3628,4.3765,4.3976,0.0,4.4077,4.4016,4.4554,4.5121,4.5487,4.5487,4.5974,4.6512,4.7048,4.7074,4.734,4.7857,4.7883,4.7883,4.7883,4.7892,4.7908,4.7861,4.6554,4.4666,4.2418,4.2396,4.1778,4.0817,4.0817,4.0817,4.0817,4.0817,4.053,4.0143,4.0164,3.9354,3.8249,0.0,0.0,0.0,0.0,0.0,0.0,0.0,0.0,0.0,0.0,0.0,0.0,0.0,0.0,0.0,0.0,2.8229,2.8874,2.9266,3.0538,3.1705,3.2656,3.3284,3.4214,3.5542,3.68,3.7519,3.7663,3.9764,4.0468,3.991,4.1497,4.2278,4.2308,4.2981,4.33,4.33,4.33,4.33,4.327,4.299,4.214,4.0997,4.0378,3.9022,3.7378,0.0,3.6044,3.5574,3.5574,3.5282,3.4988,3.5491,0.0,0.0,3.4013,0.0,0.0,0.0,0.0,3.6004,3.6758,3.7198,3.7525,3.7688,3.7739,3.7902,3.8479,3.8266,3.8404,3.9722,3.9823,4.0124,4.1431,4.1783,4.2071,4.2637,4.3039,4.3402,4.3765,4.4102,0.0,0.0,0.0,0.0,4.5171,4.5723,4.6024,4.6024,4.6537,4.6923,4.7099,4.7465,4.7716,4.7908,4.83,4.8501,4.8501,4.8878,4.9038,4.8965,4.7182,4.5444,4.3793,4.2451,4.1152,3.9975,3.9975,3.9975,3.9975,3.9975,3.9854,3.973,3.973,3.944,3.9064,0.0,0.0,0.0,0.0,0.0,0.0,0.0,0.0,0.0,0.0,0.0,0.0,0.0,0.0,0.0,0.0,0.0,2.8882,2.9266,3.0364,3.1401,3.2349,3.3028,3.3903,3.5012,3.6496,3.7281,3.7233,3.9546,4.0395,3.9825,4.1573,4.241,4.244,4.302,4.33,4.33,4.33,4.319,4.2911,4.2275,4.137,4.0316,3.9357,3.8125,0.0,3.6059,3.5426,3.4866,3.4866,3.4696,3.4534,0.0,0.0,0.0,0.0,0.0,0.0,0.0,3.6093,3.6569,3.7299,3.7739,3.8065,3.8266,3.8316,3.8504,3.907,3.8881,3.8944,4.0023,4.0249,4.0626,4.1694,4.221,4.2663,4.3201,4.3589,4.394,4.4367,4.4704,0.0,0.0,0.0,0.0,4.5773,4.6286,4.6587,4.6587,4.7074,4.749,4.7691,4.8033,4.8309,4.851,4.8903,4.9079,4.9079,4.943,4.959,4.9558,4.7727,4.6123,4.4699,4.2919,4.1306,3.9995,3.9995,3.9995,3.9995,3.9995,3.9913,3.9751,3.9751,3.9647,3.9502,0.0,0.0,0.0,0.0,0.0,0.0,0.0,0.0,0.0,0.0,0.0,0.0,0.0,0.0,0.0,0.0,0.0,0.0,2.9292,3.0312,3.1201,3.1829,3.2592,3.3295,3.392,3.5417,3.6222,3.6266,3.8287,3.9302,3.9331,4.1283,4.2191,4.2261,4.2871,4.318,4.321,4.321,4.2851,4.2117,4.0412,3.9827,3.9685,3.7133,3.6354,3.6512,3.5606,3.4772,3.411,3.411,0.0,0.0,0.0,0.0,0.0,0.0,0.0,3.5041,3.6142,3.6468,3.677,3.7789,3.8065,3.8241,3.8818,3.8944,3.9095,3.9609,3.9685,3.9685,0.0,0.0,4.1264,4.1339,4.2283,4.3176,4.3714,4.3815,4.4242,0.0,0.0,0.0,0.0,0.0,0.0,4.6336,0.0,4.7124,4.7149,4.7641,4.8209,4.8793,4.8818,4.9079,4.9606,4.959,4.959,4.959,4.959,4.9558,4.9445,4.7953,4.6486,4.4994,4.3596,4.2187,4.09,4.09,4.09,4.09,4.09,4.0634,4.0244,4.0244,3.9957,3.9564,0.0,0.0,0.0,0.0,0.0,0.0,0.0,0.0,0.0,0.0,0.0,0.0,0.0,0.0,0.0,0.0,0.0,0.0,2.924,2.958,3.063,3.2623,3.2902,3.3808,3.5554,3.5998,3.6497,3.7103,3.763,3.7904,3.7934,3.8939,3.9688,4.0178,4.0836,4.1414,4.1873,4.1873,4.1417,4.0666,4.0183,3.9266,3.809,3.7387,3.6513,3.5606,3.5168,3.4597,3.411,3.411,0.0,0.0,0.0,3.4433,3.4577,0.0,0.0,3.612,3.6808,3.7625,3.8316,3.8592,3.8982,3.9308,3.9459,3.9509,3.9534,3.9685,3.9383,3.9333,0.0,0.0,0.0,4.182,4.2562,0.0,4.3714,4.4127,0.0,4.5412,0.0,4.615,4.6301,4.6286,0.0,0.0,4.7023,4.7274,4.7666,4.8234,4.8626,4.8793,4.9179,4.9464,4.959,4.959,4.959,4.959,4.959,4.9015,4.7904,4.6435,4.4983,4.3544,4.2081,4.1253,4.09,4.09,4.09,4.09,4.09,4.0838,4.0717,4.0717,4.0652,4.053,0.0,0.0,0.0,0.0,0.0,0.0,0.0,0.0,0.0,0.0,0.0,0.0,0.0,0.0,0.0,0.0,0.0,0.0,0.0,2.9353,3.0285,3.1668,3.2609,3.3656,3.4851,3.5566,3.6128,3.6558,3.6866,3.7015,3.7015,3.7952,3.861,3.9002,3.958,4.0032,4.0406,4.0334,3.9856,0.0,0.0,3.7843,3.667,3.6285,3.5579,3.4761,3.4597,3.4364,3.4157,3.4305,0.0,3.4443,3.4636,3.4853,3.5168,3.5732,0.0,3.6935,3.7726,3.8416,3.8944,3.9183,3.9484,3.9697,3.9697,3.9697,3.9697,3.9697,3.9459,0.0,4.0049,0.0,0.0,0.0,0.0,0.0,4.4091,4.4629,4.5221,0.0,4.6125,0.0,4.6637,4.6662,4.6988,0.0,4.7591,4.7691,4.8259,4.8827,4.9154,4.9154,4.9455,4.959,4.959,4.959,4.959,4.959,4.959,4.8836,4.7359,4.5858,4.4418,4.301,0.0,4.09,4.09,4.09,4.09,4.09,4.09,4.09,4.09,4.09,4.09,4.09,0.0,0.0,0.0,0.0,0.0,0.0,0.0,0.0,0.0,0.0,0.0,0.0,0.0,0.0,0.0,0.0,0.0,0.0,0.0,0.0,2.9998,3.0229,3.1961,3.3059,3.3344,3.4656,3.5451,3.5631,3.6126,3.6455,3.6635,3.7563,3.8101,3.8276,3.8498,3.8705,3.8822,3.8608,3.8161,3.7558,3.6859,3.6144,3.545,0.0,3.4241,3.4099,3.4036,3.4129,3.4316,3.4595,3.4753,3.4828,3.4904,3.5305,3.582,3.6346,3.6935,3.7637,3.8617,3.8944,3.912,3.9584,3.9697,3.9697,3.9697,3.9697,3.9697,3.9697,0.0,3.9697,3.9697,4.0512,4.1214,4.1289,0.0,4.3915,4.4514,4.5121,4.5698,4.625,4.6286,4.6512,4.7048,4.7099,4.7566,4.8718,4.8325,4.8284,4.8878,4.9355,4.959,4.959,4.959,4.959,4.959,4.959,4.959,4.959,4.9412,4.8534,4.7053,4.5594,4.4144,4.273,0.0,0.0,4.09,4.09,4.09,4.09,4.09,4.09,4.09,4.09,4.09,4.09,0.0,0.0,0.0,0.0,0.0,0.0,0.0,0.0,0.0,0.0,2.4165,2.5345,0.0,0.0,0.0,0.0,0.0,0.0,0.0,0.0,0.0,3.0948,3.134,3.2351,3.4055,3.4363,3.512,3.6335,3.5878,3.6207,3.7216,3.6387,3.6558,3.752,3.6444,3.6536,3.7488,3.6845,3.6395,3.607,3.5919,3.5368,3.4595,3.4262,0.0,0.0,3.3677,3.398,3.4634,3.4689,3.4993,3.5444,3.5942,3.647,3.6922,3.7022,3.7776,3.8642,3.8843,3.922,3.9584,3.9685,3.9697,3.9697,3.9697,3.9697,0.0,0.0,3.9697,3.9697,3.9697,4.0211,4.0775,4.1214,4.232,4.3478,4.4464,0.0,4.5698,0.0,0.0,0.0,0.0,0.0,0.0,0.0,0.0,0.0,4.943,4.954,4.959,4.959,4.959,4.959,4.959,4.959,4.959,4.959,4.8371,4.7003,4.552,4.4114,4.2678,4.1271,0.0,0.0,4.09,4.09,4.09,4.09,4.09,4.09,4.09,4.09,4.09,4.09,0.0,0.0,0.0,0.0,0.0,0.0,0.0,2.2561,2.3003,2.3002,2.3586,2.4483,2.5686,2.6345,0.0,0.0,0.0,0.0,0.0,0.0,0.0,0.0,3.0687,3.1858,3.3291,3.3579,0.0,0.0,0.0,3.5458,3.6752,0.0,0.0,0.0,3.4977,3.4863,3.5405,3.4973,3.4719,3.4633,3.4915,3.4693,3.422,0.0,0.0,0.0,0.0,3.3694,3.4338,3.4614,3.5068,3.562,3.6205,3.677,3.7248,3.7538,3.824,3.8969,3.9233,3.9509,3.9697,3.9697,3.9697,3.9697,3.9697,0.0,0.0,0.0,3.9697,3.9697,3.9697,4.0149,4.0575,4.0851,4.2308,4.3603,4.4102,4.5181,0.0,0.0,0.0,0.0,0.0,0.0,0.0,0.0,0.0,0.0,4.9606,4.959,4.959,4.959,4.959,4.959,4.959,4.959,4.921,4.8453,4.7739,4.6251,4.4097,4.341,4.2314,4.09,0.0,0.0,4.09,4.09,4.09,4.09,4.09,4.09,4.09,4.09,4.09,4.09,0.0,0.0,0.0,0.0,0.0,0.0,0.0,2.2484,2.2787,2.3148,2.3308,2.3748,2.4651,2.567,2.6391,0.0,0.0,0.0,0.0,0.0,0.0,0.0,0.0,0.0,0.0,0.0,0.0,0.0,0.0,0.0,0.0,0.0,0.0,0.0,0.0,0.0,0.0,3.3538,3.3474,0.0,0.0,0.0,0.0,0.0,0.0,0.0,0.0,3.3431,3.3972,3.4388,3.4904,3.5419,3.6018,3.6746,3.7437,3.7889,3.8504,3.917,3.9584,3.9697,3.9697,3.9697,3.9697,3.9697,3.9697,3.9697,0.0,0.0,3.9697,3.9697,3.9697,4.0049,4.0362,4.0487,4.2158,4.3553,4.3765,4.5146,4.616,0.0,0.0,0.0,0.0,0.0,0.0,0.0,0.0,0.0,4.959,4.959,4.959,4.959,4.959,4.959,4.959,4.959,4.8869,4.7409,4.7069,4.5577,4.308,4.2765,4.2014,4.09,0.0,0.0,0.0,4.09,4.09,4.09,4.09,4.09,4.09,4.09,4.09,4.09,0.0,0.0,0.0,0.0,0.0,0.0,0.0,2.1935,2.2251,2.2456,2.3012,2.3542,2.3961,2.4516,2.5363,0.0,0.0,0.0,0.0,0.0,0.0,0.0,0.0,0.0,0.0,0.0,0.0,0.0,0.0,0.0,0.0,0.0,0.0,0.0,0.0,0.0,0.0,0.0,0.0,0.0,0.0,0.0,0.0,0.0,0.0,0.0,0.0,3.3431,3.3897,3.3947,3.4338,3.4879,3.5419,3.666,3.7939,3.799,0.0,0.0,3.9685,3.9697,3.9697,3.9697,3.9697,3.9697,3.9697,0.0,3.9697,3.9697,3.9697,3.9697,3.9697,3.9747,3.9923,4.0412,4.1544,4.2688,4.3664,4.4819,4.5748,4.6235,0.0,0.0,0.0,0.0,0.0,0.0,0.0,0.0,0.0,4.959,4.959,4.959,4.959,4.959,4.959,4.959,4.8869,4.7368,4.6049,4.459,4.3045,4.1714,4.1022,4.09,0.0,0.0,0.0,4.09,4.09,4.09,4.09,4.09,4.09,4.09,4.09,4.09,0.0,0.0,0.0,0.0,0.0,0.0,2.1728,2.2265,2.2715,2.2816,2.3042,2.3315,2.358,2.3863,2.4474,0.0,0.0,0.0,0.0,0.0,0.0,0.0,0.0,0.0,0.0,0.0,0.0,0.0,0.0,0.0,0.0,0.0,0.0,0.0,0.0,0.0,0.0,0.0,0.0,0.0,0.0,0.0,0.0,0.0,0.0,0.0,0.0,0.0,0.0,0.0,3.4037,3.4363,3.5244,3.622,3.7148,0.0,3.858,3.9283,3.9609,3.9697,3.9697,3.9697,3.9948,4.0099,3.9772,0.0,4.0099,3.9785,3.9697,3.9697,3.9697,3.9697,3.9772,3.9973,4.1255,4.235,4.2788,4.4066,4.5156,4.5748,4.6587,0.0,0.0,0.0,0.0,0.0,0.0,0.0,0.0,4.959,4.959,4.959,4.959,4.959,4.959,4.959,4.842,4.6083,4.5492,4.4006,4.1767,4.1164,4.09,4.09,0.0,0.0,0.0,4.09,4.09,4.09,4.09,4.09,4.09,4.09,4.09,4.09,0.0,0.0,0.0,0.0,0.0,2.2345,2.1882,2.2549,2.3088,2.3088,2.3088,2.3188,2.3375,2.3472,2.3842,2.4599,0.0,0.0,0.0,0.0,0.0,0.0,0.0,0.0,0.0,0.0,0.0,0.0,0.0,0.0,0.0,0.0,0.0,0.0,0.0,0.0,0.0,0.0,0.0,0.0,0.0,0.0,0.0,0.0,0.0,0.0,0.0,0.0,0.0,0.0,0.0,3.3847,3.4929,3.5568,3.6143,3.7387,3.8303,3.8969,3.9358,3.9584,3.9697,3.9697,3.9973,4.0161,0.0,0.0,4.0174,3.9772,3.9697,3.9697,3.9697,3.9697,3.9697,3.9697,4.0966,4.2009,4.2174,4.3452,4.4579,0.0,0.0,0.0,0.0,0.0,0.0,0.0,0.0,0.0,0.0,4.959,4.959,4.959,4.959,4.959,4.959,4.959,4.8125,4.5198,4.5198,4.3695,4.09,4.09,4.09,0.0,0.0,0.0,0.0,4.09,4.09,4.09,4.09,4.09,4.09,4.09,4.09,4.09,0.0,0.0,0.0,0.0,0.0,0.0,2.1882,2.2549,2.3088,2.3088,2.3088,2.3188,2.3375,2.339,2.355,2.3868,0.0,0.0,0.0,0.0,0.0,0.0,0.0,0.0,0.0,0.0,0.0,2.8455,0.0,0.0,0.0,0.0,0.0,0.0,0.0,0.0,0.0,0.0,0.0,0.0,0.0,0.0,0.0,0.0,0.0,0.0,0.0,0.0,0.0,0.0,0.0,0.0,0.0,3.4703,3.5041,3.6721,3.8014,3.8894,3.8894,3.9296,3.9697,3.9697,3.9697,3.971,0.0,0.0,3.971,3.9697,3.9697,3.9697,3.9697,3.9697,3.9697,3.9697,4.0613,4.1517,4.2123,4.3126,4.4016,0.0,0.0,0.0,0.0,0.0,0.0,0.0,0.0,0.0,0.0,4.959,4.959,4.959,4.959,4.959,4.959,4.959,4.8125,4.5198,4.5198,4.3695,4.09,4.09,0.0,0.0,0.0,0.0,0.0,4.09,4.09,4.09,4.09,4.09,4.09,4.09,4.09,4.09,0.0,0.0,0.0,0.0,0.0,0.0,0.0,2.2331,2.3088,2.3088,2.3088,2.311,2.3195,2.3315,2.3453,2.3557,0.0,0.0,0.0,0.0,0.0,0.0,0.0,0.0,0.0,0.0,2.7994,2.8403,2.8612,2.9115,0.0,0.0,0.0,0.0,0.0,0.0,0.0,0.0,0.0,0.0,0.0,0.0,0.0,0.0,0.0,0.0,0.0,0.0,0.0,0.0,0.0,0.0,0.0,0.0,0.0,3.577,3.686,3.7813,3.8203,3.8417,3.8542,3.8542,3.912,3.9609,3.9245,3.9722,4.0149,3.9785,3.9697,3.9697,3.9697,3.9697,3.9697,3.9697,4.0287,4.0964,4.1517,0.0,0.0,4.4489,0.0,0.0,0.0,0.0,0.0,0.0,0.0,0.0,0.0,0.0,4.959,4.959,4.959,4.959,4.959,4.86,4.7119,4.5181,4.4212,4.2765,4.09,4.09,0.0,0.0,0.0,0.0,0.0,4.09,4.09,4.09,4.09,4.09,4.09,4.09,4.09,4.09,0.0,0.0,0.0,0.0,0.0,0.0,0.0,2.2395,2.3088,2.3088,2.3088,2.3088,2.3088,2.3218,2.3315,2.3383,0.0,0.0,0.0,0.0,0.0,0.0,0.0,0.0,0.0,2.7406,2.7563,2.7876,2.7747,2.8066,2.8776,2.9455,0.0,0.0,0.0,0.0,0.0,0.0,0.0,0.0,0.0,0.0,3.1989,0.0,0.0,0.0,0.0,0.0,0.0,0.0,0.0,0.0,0.0,0.0,0.0,0.0,3.617,3.7009,3.7538,3.7839,3.8002,3.8002,3.8693,0.0,0.0,3.9584,4.0099,3.9772,3.9697,3.9697,3.9697,3.9697,3.9697,3.9697,4.0312,4.1014,4.1567,0.0,0.0,0.0,0.0,0.0,0.0,0.0,0.0,0.0,0.0,0.0,0.0,0.0,4.959,4.959,4.959,4.959,4.959,4.8134,4.6653,4.5164,4.3769,4.2331,4.09,0.0,0.0,0.0,0.0,0.0,0.0,4.09,4.09,4.09,4.09,4.09,4.09,4.09,4.09,4.09,0.0,0.0,0.0,0.0,0.0,0.0,0.0,0.0,2.3088,2.3088,2.3088,2.3088,2.3088,2.3088,2.3188,2.3353,0.0,0.0,0.0,0.0,0.0,0.0,0.0,0.0,0.0,2.729,2.7197,2.6994,2.6977,2.7276,2.7849,2.8412,2.9248,3.0343,0.0,0.0,0.0,0.0,0.0,0.0,0.0,0.0,0.0,0.0,0.0,0.0,0.0,0.0,0.0,0.0,0.0,0.0,0.0,0.0,0.0,0.0,0.0,0.0,0.0,3.75,3.7889,0.0,0.0,0.0,3.8843,3.9283,0.0,3.9697,3.9697,3.9697,3.9697,3.9697,3.9697,3.9697,4.0575,0.0,0.0,4.3176,0.0,0.0,0.0,0.0,0.0,0.0,0.0,0.0,0.0,0.0,0.0,0.0,0.0,4.959,4.959,4.959,4.959,4.8019,4.6569,4.5164,4.3665,4.2243,4.09,0.0,0.0,0.0,0.0,0.0,0.0,4.09,4.09,4.09,4.09,4.09,4.09,4.09,4.09,4.09,0.0,0.0,0.0,0.0,0.0,0.0,0.0,0.0,0.0,0.0,2.3088,2.3088,2.3088,2.3088,2.3135,0.0,0.0,0.0,0.0,0.0,0.0,0.0,0.0,0.0,0.0,2.7062,2.7045,2.6994,2.6858,2.6909,2.7233,2.7913,2.867,2.9545,3.0877,0.0,0.0,0.0,0.0,0.0,0.0,0.0,0.0,0.0,0.0,0.0,3.309,3.309,0.0,0.0,0.0,0.0,0.0,0.0,0.0,0.0,3.5604,0.0,0.0,0.0,3.6795,3.6795,3.75,3.8216,0.0,3.8969,3.9697,3.9697,3.9697,3.9697,3.9697,3.9697,3.9697,0.0,0.0,0.0,0.0,0.0,0.0,0.0,0.0,0.0,0.0,0.0,0.0,0.0,0.0,0.0,0.0,0.0,0.0,4.959,4.959,4.959,4.959,4.702,4.5537,4.5164,4.2621,4.1235,4.09,0.0,0.0,0.0,0.0,0.0,4.09,4.09,4.09,4.09,4.09,4.09,4.09,4.09,4.09,4.09,0.0,0.0,0.0,0.0,0.0,0.0,0.0,0.0,0.0,0.0,0.0,0.0,0.0,0.0,0.0,0.0,0.0,0.0,0.0,0.0,0.0,0.0,0.0,0.0,2.6841,2.6867,2.6833,2.6773,2.6671,2.6671,2.679,2.7684,2.8318,2.8747,3.0321,3.1035,0.0,0.0,0.0,0.0,0.0,0.0,0.0,0.0,0.0,0.0,3.2416,3.2416,0.0,3.1768,3.1955,3.2242,0.0,0.0,0.0,0.0,3.4804,3.5763,3.6275,3.6393,3.6393,3.6393,3.7034,3.7688,3.7927,3.8693,3.9409,3.9647,3.9697,3.9785,4.0023,3.9873,0.0,0.0,4.0765,0.0,0.0,0.0,0.0,0.0,0.0,0.0,0.0,0.0,0.0,0.0,0.0,0.0,0.0,0.0,0.0,0.0,4.959,4.959,4.959,4.667,4.5198,4.5187,4.2271,4.09,4.09,0.0,0.0,0.0,0.0,0.0,4.09,4.09,4.09,4.09,4.09,4.09,4.09,4.09,4.09,4.09,0.0,0.0,0.0,0.0,0.0,0.0,0.0,0.0,0.0,0.0,0.0,0.0,0.0,0.0,0.0,0.0,0.0,0.0,0.0,0.0,0.0,0.0,0.0,2.6204,2.6662,2.6662,2.6594,2.6508,2.6508,2.6508,2.6524,2.7604,2.8247,2.8539,2.997,3.0588,0.0,0.0,0.0,0.0,0.0,0.0,0.0,0.0,0.0,0.0,0.0,0.0,0.0,3.1215,3.127,3.1226,3.0272,0.0,0.0,0.0,0.0,0.0,3.6121,3.6443,3.6494,3.6418,3.6808,3.7349,3.7889,3.8479,3.9044,3.9584,3.9697,3.9848,4.0287,4.0061,0.0,0.0,0.0,0.0,0.0,0.0,0.0,0.0,0.0,0.0,0.0,0.0,0.0,0.0,0.0,0.0,0.0,0.0,0.0,0.0,4.959,4.959,4.959,4.667,4.5198,4.5187,4.2271,4.09,4.09,4.09,0.0,0.0,0.0,0.0,4.09,4.09,4.09,4.09,4.09,4.09,4.09,4.09,4.09,4.09,0.0,0.0,0.0,0.0,0.0,0.0,0.0,0.0,0.0,0.0,0.0,0.0,0.0,0.0,0.0,0.0,0.0,0.0,0.0,0.0,0.0,0.0,2.4973,2.5476,2.6517,2.6533,2.6525,2.6508,2.6508,2.6508,2.6524,2.7604,2.8866,3.0221,3.0497,3.0588,3.0573,0.0,0.0,0.0,0.0,0.0,0.0,0.0,0.0,0.0,0.0,0.0,0.0,2.9418,2.9704,3.0238,2.9234,0.0,0.0,0.0,0.0,0.0,3.6121,3.6745,3.6959,3.6519,3.6808,3.7349,3.7889,3.8479,3.9044,3.9584,3.9697,3.9735,3.981,4.0124,4.0412,0.0,0.0,0.0,0.0,0.0,0.0,0.0,0.0,0.0,0.0,0.0,0.0,0.0,0.0,0.0,0.0,0.0,0.0,0.0,0.0,4.959,4.959,4.667,4.5198,4.5187,4.2271,4.09,4.09,4.09,4.09,0.0,0.0,4.09,4.09,4.09,4.09,4.09,4.09,4.09,4.09,4.09,4.09,4.09,0.0,0.0,0.0,0.0,0.0,0.0,0.0,0.0,0.0,0.0,0.0,0.0,0.0,0.0,0.0,0.0,0.0,0.0,0.0,0.0,0.0,2.4758,2.5076,2.5619,2.6474,2.6508,2.6508,2.6508,2.6508,2.665,2.6959,2.7539,2.8673,3.0161,2.9668,2.947,2.9445,2.9199,0.0,0.0,0.0,0.0,0.0,0.0,0.0,0.0,0.0,0.0,0.0,0.0,2.9025,2.9211,2.8246,0.0,0.0,0.0,0.0,0.0,3.5941,3.6569,3.6795,3.6808,3.7235,3.7789,3.8354,3.8693,3.9044,3.9584,3.9697,3.9798,0.0,0.0,0.0,0.0,0.0,0.0,0.0,0.0,0.0,0.0,0.0,0.0,0.0,0.0,0.0,0.0,0.0,0.0,0.0,0.0,0.0,0.0,0.0,4.959,4.959,4.667,4.5198,4.5187,4.2271,4.09,4.09,4.09,4.09,0.0,0.0,4.09,4.09,4.09,4.09,4.09,4.09,4.09,4.09,4.09,4.09,4.09,0.0,0.0,0.0,0.0,0.0,0.0,0.0,0.0,0.0,0.0,0.0,0.0,0.0,0.0,0.0,0.0,0.0,0.0,0.0,0.0,2.4305,2.4967,2.5519,2.6038,2.6483,2.6508,2.6508,2.6508,2.6508,2.6721,2.7182,2.761,2.8407,2.9468,2.8714,2.8421,2.8504,2.8261,2.753,0.0,0.0,0.0,0.0,0.0,0.0,0.0,0.0,0.0,0.0,0.0,0.0,0.0,0.0,0.0,0.0,3.1161,3.2458,3.3672,3.581,3.6494,3.6695,3.711,3.7525,3.799,3.8743,3.8894,3.9095,3.9747,0.0,0.0,0.0,4.0914,0.0,0.0,0.0,0.0,0.0,0.0,0.0,0.0,0.0,0.0,0.0,0.0,0.0,0.0,0.0,0.0,0.0,0.0,0.0,0.0,0.0,0.0,4.959,4.702,4.5537,4.5187,4.2271,4.09,4.09,4.09,4.09,4.09,4.09,4.09,4.09,4.09,4.09,4.09,4.09,4.09,4.09,4.09,4.09,4.09,0.0,0.0,0.0,0.0,0.0,0.0,0.0,0.0,0.0,0.0,0.0,0.0,0.0,0.0,0.0,0.0,0.0,0.0,0.0,0.0,2.4456,2.5494,2.6114,2.6457,2.6508,2.6508,2.6508,2.6508,2.6508,2.6606,2.6862,2.7926,2.8496,2.8588,2.8204,2.8219,2.843,2.7555,2.693,2.653,0.0,0.0,0.0,0.0,0.0,0.0,0.0,0.0,0.0,0.0,0.0,0.0,0.0,0.0,2.9031,3.1161,3.2458,3.3672,3.581,3.6758,3.7148,3.7198,3.7223,3.7562,3.8642,3.8894,3.9183,4.0236,0.0,0.0,0.0,0.0,0.0,0.0,0.0,0.0,0.0,0.0,0.0,0.0,0.0,0.0,0.0,0.0,0.0,0.0,0.0,0.0,0.0,0.0,0.0,0.0,0.0,0.0,4.959,4.8019,4.6553,4.5187,4.2271,4.09,4.09,4.09,4.09,4.09,4.09,4.09,4.09,4.09,4.09,4.09,4.09,4.09,4.09,4.09,4.09,4.09,0.0,0.0,0.0,0.0,0.0,0.0,0.0,0.0,0.0,0.0,0.0,0.0,0.0,0.0,0.0,0.0,0.0,0.0,0.0,0.0,2.4394,2.5544,2.6164,2.6508,2.6508,2.6826,2.659,2.5755,2.5877,2.6399,2.7277,2.6978,2.7109,2.7599,2.6934,2.6693,2.6825,2.6756,2.6497,2.6171,2.6636,0.0,0.0,0.0,0.0,0.0,0.0,0.0,0.0,0.0,2.7297,2.7297,2.7297,2.7895,2.8894,3.0365,3.1478,3.2665,3.4824,3.5807,3.637,3.7016,3.7449,3.7902,3.8718,3.917,3.9609,4.0337,4.0775,0.0,0.0,0.0,0.0,0.0,0.0,0.0,0.0,0.0,0.0,0.0,0.0,0.0,0.0,0.0,0.0,0.0,0.0,0.0,0.0,0.0,0.0,0.0,0.0,4.959,4.959,4.8134,4.6653,4.5187,4.3214,4.1802,4.09,4.09,4.09,4.09,4.09,4.09,4.09,4.09,4.09,4.09,4.09,4.09,4.09,4.09,4.09,4.09,0.0,0.0,0.0,0.0,0.0,0.0,0.0,0.0,0.0,0.0,0.0,0.0,0.0,0.0,0.0,0.0,0.0,0.0,2.3873,2.4164,2.4649,2.5466,2.6461,2.6599,2.5748,2.6663,2.6744,2.5929,2.6118,2.6417,2.6766,2.6104,2.6121,2.6648,2.5789,2.5623,2.6028,2.6077,2.6089,2.6146,2.6457,2.6883,0.0,0.0,0.0,0.0,0.0,0.0,0.0,0.0,2.7297,2.7297,2.7297,2.7895,2.8819,2.99,3.1085,3.2489,3.4312,3.5429,3.6284,3.7029,3.7588,3.8191,3.8994,3.9434,3.9948,4.0852,4.1592,0.0,0.0,0.0,0.0,0.0,0.0,0.0,0.0,0.0,0.0,0.0,0.0,0.0,0.0,0.0,0.0,0.0,0.0,0.0,0.0,0.0,0.0,0.0,0.0,0.0,4.959,4.86,4.7335,4.5881,4.4436,4.2988,4.1573,4.1114,4.1147,4.1573,4.1093,4.09,4.09,4.09,4.09,4.09,4.09,4.09,4.09,4.09,4.09,4.09,0.0,0.0,0.0,0.0,0.0,0.0,0.0,0.0,0.0,0.0,0.0,0.0,0.0,0.0,0.0,0.0,0.0,0.0,2.377,2.474,2.5282,2.5315,2.7072,2.6831,2.419,2.5876,2.6956,2.7284,2.7482,2.6697,2.5018,2.5538,2.5788,2.5746,2.4903,2.5241,2.6443,2.5575,2.5739,2.6613,2.6602,2.6883,0.0,0.0,0.0,0.0,0.0,0.0,0.0,0.0,2.7297,2.7297,2.7297,2.7895,2.8819,2.9887,3.1614,3.3425,3.4495,3.5952,3.7186,3.7198,3.7613,3.8316,3.9459,3.971,4.0187,4.1872,4.3065,4.379,4.379,0.0,0.0,0.0,0.0,0.0,0.0,0.0,0.0,0.0,0.0,0.0,0.0,0.0,0.0,0.0,0.0,0.0,0.0,0.0,0.0,0.0,0.0,0.0,4.959,4.959,4.8869,4.7368,4.5932,4.447,4.3045,4.1573,4.1696,4.2992,4.1537,4.09,4.09,4.09,4.09,4.09,4.09,4.09,4.09,4.09,4.09,4.09,0.0,0.0,0.0,0.0,0.0,0.0,0.0,0.0,0.0,0.0,0.0,0.0,0.0,0.0,0.0,0.0,0.0,0.0,2.3859,2.4267,2.4854,2.5754,2.5775,2.5679,2.5436,2.6432,2.6826,2.6593,2.5522,2.5182,2.556,2.5105,2.4882,2.4892,2.4968,2.5209,2.5617,2.6009,2.6353,2.6634,2.6966,2.7185,0.0,0.0,0.0,0.0,0.0,0.0,0.0,0.0,0.0,0.0,2.7634,2.8131,2.8719,2.9371,3.0765,3.2322,3.3387,3.5115,0.0,3.7117,0.0,0.0,0.0,4.0261,4.0752,0.0,4.3327,4.379,0.0,0.0,0.0,0.0,0.0,0.0,0.0,0.0,0.0,0.0,0.0,0.0,0.0,0.0,0.0,0.0,0.0,0.0,0.0,0.0,0.0,0.0,0.0,0.0,4.959,4.959,4.8869,4.7384,4.6953,4.5475,4.3045,4.1573,4.1129,4.1537,4.1075,4.09,4.09,4.09,4.09,4.09,4.09,4.09,4.09,4.09,4.09,4.09,0.0,0.0,0.0,0.0,0.0,0.0,0.0,0.0,0.0,0.0,2.2287,2.1791,0.0,0.0,0.0,0.0,0.0,0.0,0.0,2.4176,2.4513,2.5057,2.5101,2.5362,2.5862,2.5966,2.5953,2.5854,2.523,2.5052,2.5263,2.4754,2.459,2.4776,2.5076,2.5418,2.5781,2.6353,2.6717,2.6904,2.7206,2.7297,2.7297,0.0,0.0,0.0,0.0,0.0,0.0,0.0,0.0,0.0,2.7767,2.821,2.8765,2.9678,3.1037,3.2509,3.3793,3.5563,0.0,3.7729,3.8705,3.9836,4.0927,0.0,0.0,0.0,0.0,0.0,0.0,0.0,0.0,0.0,0.0,0.0,0.0,0.0,0.0,0.0,0.0,0.0,0.0,0.0,0.0,0.0,0.0,0.0,0.0,0.0,0.0,0.0,0.0,0.0,4.959,4.959,4.9145,4.8273,4.7673,4.6486,4.4761,4.3284,4.2604,4.2551,4.1413,4.09,4.09,4.09,4.09,4.09,4.09,4.09,4.09,4.09,4.09,4.09,0.0,0.0,0.0,0.0,0.0,0.0,0.0,0.0,0.0,0.0,2.1799,2.1273,0.0,0.0,0.0,0.0,0.0,0.0,0.0,0.0,2.4261,2.3775,2.4912,2.5559,2.5589,2.4966,2.4828,2.52,2.6,2.5733,2.4507,2.4549,2.4776,2.52,2.5294,2.5813,2.6613,2.6655,2.6904,2.7297,2.7297,2.7297,2.7297,2.7297,0.0,0.0,0.0,0.0,0.0,0.0,0.0,0.0,2.7829,2.8284,2.8965,3.0503,3.2049,3.3599,3.5177,3.68,3.8216,3.8768,3.9747,0.0,4.1947,4.2612,0.0,0.0,0.0,0.0,0.0,0.0,0.0,0.0,0.0,0.0,0.0,0.0,0.0,0.0,0.0,0.0,0.0,0.0,0.0,0.0,0.0,0.0,0.0,0.0,0.0,0.0,0.0,0.0,4.959,4.959,4.959,0.0,4.824,4.7607,4.7557,4.5948,4.5113,4.4863,4.2236,4.1025,4.09,4.09,4.09,4.09,4.09,4.09,4.09,4.09,4.09,4.09,0.0,0.0,0.0,0.0,0.0,0.0,0.0,0.0,0.0,0.0,0.0,0.0,0.0,0.0,0.0,0.0,0.0,0.0,0.0,0.0,2.4284,2.4187,2.4795,2.5004,2.4754,2.5321,2.5482,2.52,2.5377,2.5148,2.4507,2.489,2.5097,2.5221,2.5978,2.6415,2.6623,2.6987,2.7206,2.7297,2.7297,2.7297,2.7297,2.7297,2.7297,0.0,0.0,0.0,0.0,0.0,0.0,0.0,2.8305,2.876,2.9445,3.0988,3.2577,3.4099,3.5296,3.712,3.8743,3.8869,4.0023,4.1316,4.2048,4.2612,4.3151,0.0,0.0,0.0,0.0,0.0,0.0,0.0,0.0,0.0,0.0,0.0,0.0,0.0,0.0,0.0,0.0,0.0,0.0,0.0,0.0,0.0,0.0,0.0,0.0,0.0,0.0,4.959,4.959,4.959,4.959,0.0,4.9274,4.9129,4.9031,4.6402,4.4607,4.351,4.2905,4.1979,4.09,4.09,4.09,4.09,4.09,4.09,4.09,4.09,4.09,4.09,0.0,0.0,0.0,0.0,0.0,0.0,0.0,0.0,0.0,0.0,0.0,0.0,0.0,0.0,0.0,0.0,0.0,0.0,0.0,0.0,2.3957,2.4372,2.4627,2.4988,2.5482,2.5762,2.5783,2.5544,2.5315,2.4952,2.4507,2.4973,2.5315,2.5564,2.6291,2.6726,2.6945,2.7194,2.7297,2.7297,2.7297,2.7297,2.7297,2.7297,2.7297,0.0,0.0,0.0,0.0,0.0,0.0,0.0,0.0,0.0,2.9612,3.1161,3.2565,3.3971,3.5559,3.7182,3.873,3.9798,0.0,4.1528,4.2386,4.2788,4.3151,0.0,0.0,0.0,0.0,0.0,0.0,0.0,0.0,0.0,0.0,0.0,0.0,0.0,0.0,0.0,0.0,0.0,0.0,0.0,0.0,0.0,0.0,0.0,0.0,0.0,4.959,4.959,4.959,4.959,4.959,4.959,4.959,4.959,4.9525,4.7293,4.5847,4.5068,4.37,4.266,4.1908,4.1182,4.09,4.09,4.09,4.09,4.09,4.09,4.09,4.09,0.0,0.0,0.0,0.0,0.0,0.0,0.0,0.0,0.0,0.0,0.0,0.0,0.0,0.0,0.0,0.0,0.0,0.0,0.0,0.0,0.0,2.4466,2.4663,2.5326,2.656,2.6146,2.5897,2.5897,2.5512,2.5076,2.4631,2.5097,2.5574,2.6043,2.651,2.6945,2.7297,2.7297,2.7297,2.7297,2.7297,2.7297,2.7297,0.0,0.0,0.0,0.0,0.0,0.0,0.0,0.0,0.0,0.0,0.0,2.9716,3.117,3.2418,3.3773,3.5726,3.7206,3.8655,4.0762,4.1289,0.0,4.2749,4.3014,4.3151,0.0,0.0,0.0,0.0,0.0,0.0,0.0,0.0,0.0,0.0,0.0,0.0,0.0,0.0,0.0,0.0,0.0,0.0,0.0,0.0,0.0,0.0,0.0,4.959,4.959,4.959,4.959,4.959,4.959,4.959,4.959,4.959,4.959,4.9558,4.8338,4.764,4.7276,4.4863,4.3566,4.301,4.1785,4.1129,4.09,4.09,4.09,4.09,4.09,4.09,4.09,0.0,0.0,0.0,0.0,0.0,0.0,0.0,0.0,0.0,0.0,2.0564,2.1162,0.0,0.0,0.0,0.0,0.0,0.0,0.0,0.0,0.0,2.4487,2.5284,2.6001,2.6593,2.6146,2.5897,2.5897,2.5835,2.5564,2.5117,2.5585,2.6063,2.6531,2.6987,2.7235,2.7297,2.7297,2.7297,2.7297,2.7297,2.7297,2.7297,0.0,0.0,0.0,0.0,0.0,0.0,0.0,0.0,0.0,0.0,0.0,0.0,3.1257,3.2689,3.4169,3.5392,3.7194,3.9183,4.0876,4.1289,4.1603,0.0,0.0,4.3151,0.0,0.0,0.0,0.0,0.0,0.0,0.0,0.0,0.0,0.0,0.0,0.0,0.0,0.0,0.0,0.0,0.0,0.0,0.0,0.0,0.0,0.0,4.959,4.959,4.959,4.959,4.959,4.959,4.959,4.959,4.959,4.959,4.959,4.959,4.9396,4.86,4.7392,4.6986,4.5408,4.308,4.2888,4.2046,4.09,4.09,4.09,4.09,4.09,4.09,4.09,0.0,0.0,0.0,0.0,0.0,0.0,0.0,0.0,0.0,0.0,0.0,2.2066,0.0,0.0,0.0,0.0,0.0,0.0,0.0,0.0,0.0,2.5647,2.6073,2.6395,2.6593,2.6146,2.5897,2.5897,2.5638,2.5668,2.599,2.6208,2.6395,2.6613,2.709,2.7297,2.7297,2.7297,2.7297,2.7297,2.7297,2.7431,0.0,0.0,0.0,0.0,0.0,0.0,0.0,0.0,0.0,0.0,0.0,0.0,0.0,0.0,3.1623,3.3143,3.5419,3.7023,3.8465,4.0367,4.1076,4.1528,4.2361,4.2788,4.3065,0.0,0.0,0.0,0.0,0.0,0.0,0.0,0.0,0.0,0.0,0.0,0.0,0.0,0.0,0.0,0.0,0.0,0.0,0.0,0.0,0.0,4.959,4.959,4.959,4.959,4.959,4.959,4.959,4.959,4.959,4.959,4.959,4.959,4.959,4.959,4.9267,4.8583,4.7755,4.6217,4.4212,4.3445,4.2222,4.09,4.09,4.09,4.09,4.09,4.09,4.09,0.0,0.0,0.0,0.0,0.0,0.0,0.0,0.0,0.0,0.0,0.0,0.0,0.0,0.0,0.0,0.0,0.0,0.0,0.0,0.0,0.0,2.6395,2.6415,2.6489,2.6613,2.6146,2.5897,2.5897,2.5668,2.5916,2.6613,2.6717,2.6779,2.68,2.7132,2.7297,2.7297,2.7297,2.7297,2.7297,2.741,0.0,0.0,0.0,0.0,0.0,0.0,0.0,0.0,0.0,0.0,0.0,0.0,0.0,0.0,0.0,0.0,3.2285,3.5353,3.6535,3.7421,3.9713,4.07,4.1277,0.0,0.0,0.0,0.0,0.0,0.0,0.0,0.0,0.0,0.0,0.0,0.0,0.0,0.0,0.0,0.0,0.0,0.0,0.0,0.0,0.0,0.0,0.0,0.0,4.959,4.959,4.959,4.959,4.959,4.959,4.959,4.959,4.959,4.959,4.959,4.959,4.959,4.959,4.959,4.9542,4.8436,4.7119,4.5695,4.4624,4.311,4.1466,4.1466,4.1218,4.09,4.09,4.09,4.09,0.0,0.0,0.0,0.0,0.0,0.0,0.0,0.0,0.0,0.0,0.0,0.0,0.0,0.0,2.4043,2.4425,2.4849,2.5128,2.5159,2.5606,2.5897,2.5939,2.5939,0.0,2.6593,2.6146,2.5897,2.5897,2.6312,2.654,2.6613,2.7049,2.7256,2.7256,2.7289,2.7297,2.7297,0.0,0.0,0.0,0.0,0.0,0.0,0.0,0.0,0.0,0.0,0.0,0.0,0.0,0.0,0.0,0.0,0.0,0.0,0.0,0.0,0.0,3.4914,3.5666,3.6351,3.9064,4.0136,4.0839,0.0,0.0,0.0,0.0,0.0,0.0,0.0,0.0,0.0,0.0,0.0,0.0,0.0,0.0,0.0,0.0,0.0,0.0,0.0,0.0,0.0,0.0,0.0,0.0,4.959,4.959,4.959,4.959,4.959,4.959,4.959,4.959,4.959,4.959,4.959,4.959,4.959,4.959,4.959,4.959,4.9525,4.8649,4.7293,4.7202,4.5509,4.2975,4.2975,4.2138,4.09,4.09,4.09,4.09,0.0,0.0,0.0,0.0,0.0,0.0,0.0,0.0,0.0,0.0,0.0,0.0,0.0,2.428,2.4467,2.4911,2.5388,2.5512,2.5221,2.5647,2.5897,2.5897,2.6188,2.6291,2.6146,2.627,2.6353,2.6353,2.6531,2.6759,2.7049,2.7215,2.7297,2.7297,2.7297,2.7297,2.7297,2.7297,0.0,0.0,0.0,0.0,0.0,0.0,0.0,0.0,0.0,0.0,0.0,0.0,0.0,0.0,0.0,0.0,0.0,0.0,0.0,3.1878,3.3199,3.4556,3.6019,3.7724,3.9329,4.0688,4.1441,4.2347,0.0,0.0,0.0,0.0,0.0,0.0,0.0,0.0,0.0,0.0,0.0,0.0,0.0,0.0,0.0,0.0,0.0,0.0,0.0,0.0,0.0,0.0,4.9565,4.959,4.959,4.959,4.959,4.959,4.959,4.959,4.959,4.959,4.959,4.959,4.959,4.959,4.959,4.959,4.959,4.8746,4.7409,4.7409,4.6234,4.435,4.344,4.2765,4.2208,4.1253,4.09,4.09,0.0,0.0,0.0,0.0,0.0,0.0,0.0,0.0,0.0,0.0,0.0,0.0,0.0,0.0,2.4693,2.5159,2.5627,2.5762,2.545,2.5721,2.596,2.6125,2.627,2.6291,2.6125,2.6291,2.6436,2.6613,2.6613,2.6841,2.7297,2.7297,2.7297,2.7297,2.7297,2.7297,0.0,0.0,0.0,2.7543,0.0,0.0,2.905,0.0,0.0,0.0,0.0,0.0,0.0,0.0,0.0,0.0,0.0,0.0,0.0,0.0,0.0,0.0,3.2459,3.4089,3.591,3.7222,3.9043,4.0625,4.1188,0.0,0.0,0.0,0.0,0.0,0.0,0.0,0.0,0.0,0.0,0.0,0.0,0.0,0.0,0.0,0.0,0.0,0.0,0.0,0.0,0.0,0.0,0.0,4.9305,4.949,4.959,4.959,4.959,4.959,4.959,4.959,4.959,4.959,4.959,4.959,4.959,4.959,4.959,4.959,4.959,4.9047,4.8134,4.8134,4.697,4.5119,4.4161,4.3197,4.2239,4.1253,4.09,4.09,0.0,0.0,0.0,0.0,0.0,0.0,0.0,0.0,0.0,0.0,0.0,0.0,0.0,0.0,0.0,2.5179,2.5647,2.5918,2.5897,2.5897,2.6105,2.6572,2.6157,2.6125,2.6593,2.6167,2.6167,2.6613,2.6613,2.6862,2.7297,2.7297,2.7297,2.7297,2.7297,2.7318,2.7339,0.0,2.79,2.8003,0.0,2.9601,2.9953,0.0,0.0,0.0,3.0222,3.0346,0.0,0.0,0.0,0.0,0.0,0.0,0.0,0.0,0.0,0.0,0.0,0.0,0.0,0.0,0.0,0.0,4.1163,0.0,0.0,0.0,0.0,0.0,0.0,0.0,0.0,0.0,0.0,0.0,0.0,0.0,0.0,0.0,0.0,0.0,0.0,0.0,0.0,0.0,0.0,4.8768,4.8793,4.9305,4.959,4.959,4.959,4.959,4.959,4.959,4.959,4.959,4.959,4.959,4.959,4.959,4.959,4.959,4.959,4.959,4.959,4.959,4.7904,4.5317,4.5215,4.3488,4.1025,4.0936,4.09,4.09,0.0,0.0,0.0,0.0,0.0,0.0,0.0,0.0,0.0,0.0,0.0,0.0,0.0,0.0,2.5928,2.5709,2.6146,2.625,2.5918,2.5897,2.596,2.6084,2.6291,2.6468,2.6613,2.68,2.6966,2.7111,2.7111,2.7173,2.7297,2.7297,2.7297,2.7297,2.7593,2.7726,2.7726,2.7838,0.0,0.0,2.9435,2.9891,0.0,0.0,0.0,0.0,0.0,3.154,0.0,0.0,3.1422,3.0815,0.0,0.0,0.0,0.0,0.0,0.0,3.3788,0.0,0.0,0.0,0.0,0.0,0.0,0.0,0.0,0.0,0.0,0.0,0.0,0.0,0.0,0.0,0.0,0.0,0.0,0.0,0.0,0.0,0.0,0.0,0.0,0.0,0.0,0.0,4.7375,4.7933,4.8768,4.9305,4.959,4.959,4.959,4.959,4.959,4.959,4.959,4.959,4.959,4.959,4.959,4.959,4.959,4.959,4.959,4.959,4.959,4.959,4.9112,4.8174,4.6026,4.4704,4.3764,4.1658,4.09,4.09,0.0,0.0,0.0,0.0,0.0,0.0,0.0,0.0,0.0,0.0,0.0,0.0,0.0,0.0,2.6567,2.6492,2.6385,2.627,2.6188,2.6188,2.627,2.6489,2.6759,2.6883,2.6883,2.6966,2.709,2.7297,2.709,2.7111,2.7297,2.7297,2.7401,0.0,2.7788,2.8119,0.0,0.0,0.0,0.0,2.9911,0.0,0.0,3.1188,3.165,0.0,0.0,0.0,3.2022,3.2229,3.1719,0.0,0.0,0.0,0.0,0.0,0.0,0.0,0.0,0.0,0.0,0.0,0.0,0.0,4.1127,4.1756,0.0,0.0,0.0,0.0,0.0,0.0,0.0,0.0,0.0,0.0,0.0,0.0,0.0,0.0,0.0,0.0,0.0,0.0,0.0,0.0,4.6973,4.7591,4.8743,4.9104,4.938,4.959,4.959,4.959,4.959,4.959,4.959,4.959,4.959,4.959,4.959,4.959,4.959,4.959,4.959,4.959,4.959,4.959,4.8885,4.759,4.5858,4.4487,4.3193,4.1516,4.09,4.09,0.0,0.0,0.0,0.0,0.0,0.0,0.0,0.0,0.0,0.0,0.0,0.0,0.0,0.0,0.0,0.0,2.6509,2.6229,2.6655,2.6676,2.6862,2.7277,2.7297,2.7297,2.7297,2.6883,2.6883,2.7297,2.6883,2.693,2.7464,2.7387,0.0,0.0,0.0,0.0,0.0,0.0,0.0,2.9539,3.0421,3.1036,0.0,0.0,3.1774,0.0,3.2084,3.2084,3.2126,3.2512,3.219,0.0,0.0,0.0,0.0,0.0,3.1987,0.0,0.0,0.0,0.0,0.0,0.0,0.0,4.1163,4.1706,4.2261,0.0,0.0,0.0,0.0,0.0,0.0,0.0,0.0,0.0,0.0,0.0,0.0,0.0,0.0,0.0,0.0,0.0,4.6286,4.6286,4.6813,4.7566,4.8626,4.8768,4.9053,4.9565,4.959,4.959,4.959,4.959,4.959,4.959,4.959,4.959,4.959,4.959,4.959,4.959,4.959,4.959,4.959,4.959,4.8052,4.5678,4.534,4.3626,4.1342,4.1004,4.09,4.09,2.7162,0.0,0.0,0.0,0.0,0.0,0.0,0.0,0.0,0.0,0.0,0.0,0.0,0.0,0.0,0.0,2.6905,2.7069,2.7152,2.7152,2.7194,2.7309,2.7297,2.7297,2.7297,2.7215,2.7215,2.7297,2.7215,2.7607,2.8431,2.7986,2.8265,0.0,0.0,0.0,0.0,0.0,0.0,3.0484,3.1043,0.0,3.1491,3.2174,3.2491,3.256,3.256,3.256,3.2533,0.0,3.2663,3.3266,0.0,0.0,0.0,0.0,0.0,0.0,0.0,0.0,0.0,0.0,0.0,0.0,4.1076,4.1403,4.1768,0.0,0.0,0.0,0.0,0.0,0.0,0.0,0.0,0.0,0.0,0.0,0.0,0.0,0.0,0.0,0.0,0.0,4.6286,4.6286,4.6813,4.739,4.8033,4.8526,4.9053,4.9565,4.959,4.959,4.959,4.959,4.959,4.959,4.959,4.959,4.959,4.959,4.959,4.959,4.959,4.959,4.959,4.959,4.9267,4.8502,4.6133,4.4863,4.4092,4.1764,4.09,4.09,2.8684,0.0,0.0,0.0,0.0,0.0,0.0,0.0,0.0,2.8611,2.8735,0.0,0.0,0.0,0.0,0.0,0.0,0.0,0.0,2.755,2.7523,2.7986,2.7538,2.7297,2.7297,2.7297,2.7535,2.801,2.7732,2.8088,2.9037,2.85,2.8935,0.0,0.0,0.0,0.0,0.0,3.0263,3.0786,3.183,0.0,3.183,3.3099,3.3614,3.3614,3.3614,3.3973,3.4411,3.4171,3.4515,0.0,0.0,3.489,3.5634,0.0,3.6124,3.6606,0.0,0.0,0.0,3.9493,0.0,0.0,0.0,4.0901,4.1127,4.1968,0.0,0.0,0.0,0.0,0.0,0.0,0.0,0.0,0.0,0.0,0.0,0.0,0.0,0.0,0.0,0.0,4.6286,4.6286,4.6562,4.6938,4.745,4.8033,4.8626,4.9179,4.9464,4.959,4.959,4.959,4.959,4.959,4.959,4.959,4.959,4.959,4.959,4.959,4.959,4.959,4.959,4.959,4.959,4.9315,4.6352,4.4778,4.3885,4.1693,4.09,4.09,3.0236,0.0,0.0,0.0,0.0,0.0,0.0,0.0,0.0,2.9528,2.9874,0.0,0.0,0.0,0.0,0.0,0.0,0.0,0.0,0.0,2.8307,2.8968,2.8356,2.8007,2.8007,2.7902,2.8324,2.929,2.8455,2.8746,3.0124,2.9394,2.9799,3.1164,3.0503,0.0,0.0,0.0,0.0,3.1326,0.0,3.3142,3.2211,3.4114,3.4692,3.4525,3.4747,3.5416,3.6222,3.6314,0.0,3.6559,3.6363,3.6606,0.0,0.0,0.0,0.0,0.0,0.0,0.0,0.0,0.0,3.9848,0.0,0.0,0.0,4.1188,0.0,0.0,0.0,0.0,0.0,0.0,0.0,0.0,0.0,0.0,0.0,0.0,0.0,0.0,0.0,4.615,4.62,4.6286,4.6185,4.6436,4.7074,4.7516,4.8083,4.8793,4.9229,4.9506,4.959,4.959,4.959,4.959,4.959,4.959,4.959,4.959,4.959,4.959,4.959,4.959,4.959,4.959,4.959,4.9315,4.6352,4.4504,4.3284,4.1555,4.09,4.09,3.0874,3.0407,0.0,0.0,0.0,0.0,0.0,0.0,2.9988,3.0101,3.1251,0.0,0.0,0.0,0.0,0.0,0.0,0.0,3.0766,0.0,0.0,3.0057,3.0387,3.0581,3.0581,3.0111,3.0392,3.1442,2.9483,3.0008,3.2814,3.1335,3.1209,3.2269,3.3108,0.0,0.0,0.0,3.3698,0.0,3.574,3.4885,0.0,3.4981,3.5374,3.4622,3.5626,3.609,3.6268,0.0,3.7286,3.7881,0.0,3.8864,0.0,0.0,0.0,0.0,0.0,0.0,0.0,0.0,3.9697,0.0,0.0,0.0,4.065,4.1188,0.0,0.0,0.0,0.0,0.0,0.0,0.0,0.0,0.0,0.0,0.0,0.0,0.0,0.0,0.0,0.0,4.5773,4.6261,4.5849,4.6024,4.7048,4.7149,4.7707,4.8768,4.8868,4.9129,4.9606,4.959,4.959,4.959,4.959,4.959,4.959,4.959,4.959,4.959,4.959,4.959,4.959,4.959,4.959,4.9315,4.6352,4.5096,4.4641,4.1905,4.09,4.09,3.1674,3.1473,0.0,0.0,0.0,0.0,0.0,0.0,3.1878,3.1878,3.2413,0.0,0.0,0.0,0.0,0.0,0.0,0.0,0.0,0.0,0.0,3.1967,3.167,3.147,3.147,3.1227,3.1627,3.2676,3.1455,3.1844,3.3681,3.27,3.2805,3.3808,3.3939,0.0,3.3328,0.0,3.4674,0.0,0.0,0.0,0.0,3.6598,3.7112,3.7198,3.8635,3.9161,3.9186,0.0,3.9913,0.0,0.0,0.0,0.0,0.0,0.0,0.0,0.0,0.0,0.0,0.0,0.0,0.0,0.0,0.0,4.0099,0.0,0.0,0.0,0.0,0.0,0.0,0.0,0.0,0.0,0.0,0.0,0.0,0.0,0.0,0.0,0.0,0.0,0.0,0.0,0.0,4.5824,4.6612,4.6923,4.745,4.8234,4.8626,4.9053,4.959,4.959,4.959,4.959,4.959,4.959,4.959,4.959,4.959,4.959,4.959,4.959,4.959,4.959,4.959,4.9396,4.7285,4.5942,4.4943,4.2918,4.1626,4.09,3.2441,0.0,0.0,0.0,0.0,0.0,0.0,0.0,0.0,0.0,0.0,0.0,3.3341,3.4095,0.0,0.0,0.0,3.4074,0.0,0.0,3.3136,0.0,3.3206,0.0,0.0,3.2781,3.3126,3.4159,3.3169,3.3368,3.4639,3.3975,3.4125,3.5016,0.0,3.5208,3.5408,0.0,0.0,3.6123,3.7597,3.8086,3.7979,3.8267,3.8838,3.9645,4.087,4.1289,4.1314,4.1478,4.1731,0.0,4.1818,0.0,0.0,0.0,0.0,0.0,4.04,0.0,0.0,0.0,0.0,0.0,0.0,0.0,0.0,0.0,0.0,0.0,0.0,0.0,0.0,0.0,0.0,0.0,0.0,0.0,0.0,0.0,0.0,0.0,0.0,0.0,0.0,0.0,4.5121,4.5397,4.6235,4.6687,4.7139,4.7666,4.8234,4.8827,4.938,4.9531,4.959,4.959,4.959,4.959,4.959,4.959,4.959,4.959,4.959,4.959,4.959,4.959,4.959,4.9493,4.842,4.7086,4.5594,4.3769,4.2415,4.1448,3.3065,3.3065,0.0,0.0,0.0,0.0,0.0,0.0,0.0,0.0,0.0,0.0,0.0,0.0,0.0,0.0,0.0,3.6058,3.5473,0.0,3.5388,0.0,0.0,0.0,0.0,0.0,3.5222,3.6307,3.4191,3.4264,3.6309,3.5235,3.5027,3.5643,3.7184,3.6731,3.5018,3.821,3.8652,3.7432,3.9553,4.0383,4.0326,0.0,4.0229,4.1223,4.1275,0.0,0.0,4.1984,4.1795,0.0,0.0,0.0,0.0,0.0,0.0,0.0,0.0,0.0,0.0,0.0,0.0,0.0,0.0,0.0,3.9848,0.0,0.0,0.0,0.0,0.0,0.0,0.0,0.0,0.0,0.0,0.0,0.0,0.0,0.0,0.0,0.0,0.0,0.0,4.4503,4.4166,4.4568,4.621,4.6311,4.6587,4.7124,4.7641,4.8225,4.8818,4.9355,4.959,4.959,4.959,4.959,4.959,4.959,4.959,4.959,4.959,4.959,4.959,4.959,4.959,4.959,4.9542,4.8616,4.6986,4.4149,4.3062,4.2818,0.0,0.0,0.0,0.0,0.0,0.0,0.0,3.3406,0.0,0.0,0.0,0.0,0.0,0.0,3.5869,0.0,0.0,3.6847,3.6634,3.6634,0.0,0.0,0.0,3.6344,0.0,0.0,0.0,0.0,3.5667,3.5864,3.6922,3.656,3.6676,3.7233,3.8179,3.8178,0.0,0.0,0.0,0.0,0.0,4.1266,4.1567,0.0,0.0,4.1389,4.2144,4.2434,0.0,4.2663,4.2598,4.2484,4.2875,4.2889,4.2663,4.2299,4.2199,0.0,0.0,0.0,4.1845,4.1683,0.0,0.0,0.0,0.0,0.0,0.0,0.0,0.0,0.0,0.0,0.0,0.0,0.0,0.0,0.0,0.0,0.0,0.0,0.0,0.0,0.0,0.0,0.0,4.4478,4.4428,4.4905,0.0,4.6286,4.6562,4.7074,4.7274,4.7817,4.8793,4.8994,4.9254,4.959,4.959,4.959,4.959,4.959,4.959,4.959,4.959,4.959,4.959,4.959,4.959,4.959,4.959,4.9315,4.8616,4.667,4.534,4.4281,3.309,0.0,0.0,0.0,0.0,0.0,0.0,0.0,0.0,0.0,3.4851,0.0,3.5303,0.0,3.6547,0.0,3.7299,3.7399,3.7198,3.7374,0.0,3.7487,3.7148,0.0,0.0,0.0,0.0,0.0,0.0,3.716,3.7487,3.7487,3.7776,3.8354,3.8743,3.8994,3.922,0.0,4.0186,0.0,0.0,4.1366,0.0,0.0,4.1553,0.0,0.0,4.3014,4.3014,4.3014,4.3014,4.3014,4.3014,4.3014,4.2925,4.2601,4.2487,4.2386,4.1993,4.2197,0.0,0.0,4.2199,0.0,0.0,0.0,0.0,0.0,0.0,0.0,0.0,0.0,0.0,0.0,0.0,0.0,0.0,0.0,0.0,0.0,0.0,0.0,0.0,0.0,4.2197,4.3639,4.4116,4.4729,0.0,0.0,4.6461,4.6798,4.6998,4.7541,4.8476,4.8677,4.9079,4.959,4.959,4.959,4.959,4.959,4.959,4.959,4.959,4.959,4.959,4.959,4.959,4.959,4.959,4.959,4.9429,4.7937,4.615,4.4315,0.0,0.0,0.0,0.0,3.3607,0.0,0.0,0.0,3.4753,0.0,3.5741,3.6443,3.6468,3.7399,3.8015,3.8028,3.8028,0.0,3.7324,3.7764,0.0,0.0,3.8015,3.8266,3.8894,0.0,0.0,0.0,0.0,3.8015,3.8028,3.8028,3.8366,3.8944,3.8944,0.0,3.9722,4.0236,4.0487,4.0512,4.0538,4.0851,4.1339,4.1339,0.0,4.3028,4.3014,4.3014,4.3014,4.3014,4.3014,4.3014,4.3014,4.3014,4.3014,4.3014,4.3014,4.3014,4.3014,4.3014,4.2889,4.2375,0.0,0.0,0.0,0.0,4.1364,0.0,0.0,0.0,0.0,0.0,0.0,0.0,0.0,0.0,0.0,0.0,0.0,0.0,0.0,0.0,0.0,4.08,4.0978,4.2149,4.3176,4.4016,0.0,0.0,4.6261,4.6286,4.6798,4.7324,4.7892,4.8476,4.9028,4.959,4.959,4.959,4.959,4.959,4.959,4.959,4.959,4.959,4.959,4.959,4.959,4.959,4.959,4.959,4.9429,4.8019,4.5729,4.3306,3.4288,3.4413,3.4463,0.0,3.4413,3.4477,0.0,0.0,0.0,0.0,3.6557,3.716,3.755,3.7839,3.8191,3.863,3.8668,0.0,0.0,0.0,0.0,3.8668,3.8241,3.8266,3.8894,3.8303,0.0,3.8002,0.0,0.0,3.8668,3.8668,3.8956,3.9484,3.9484,3.9584,3.971,3.9848,4.0149,4.0538,4.0926,4.1441,0.0,0.0,4.251,4.3268,4.3059,4.3014,4.3014,4.3014,4.3014,4.3014,4.3014,4.3014,4.3014,4.3014,4.3014,4.3014,4.3014,4.3014,4.2964,4.2838,4.2788,4.2763,0.0,0.0,0.0,0.0,0.0,0.0,0.0,0.0,0.0,0.0,0.0,0.0,0.0,0.0,0.0,0.0,0.0,0.0,0.0,4.0588,4.1128,4.2688,4.3065,0.0,0.0,0.0,0.0,4.6301,4.6436,4.6963,4.7892,4.8058,4.8611,4.959,4.959,4.959,4.959,4.959,4.959,4.959,4.959,4.959,4.959,4.959,4.959,4.959,4.959,4.959,4.9558,4.9161,4.7871,4.6301,3.4703,0.0,0.0,3.5403,0.0,0.0,3.5479,0.0,0.0,3.6658,3.7235,0.0,3.7965,3.8442,3.8868,3.922,3.9233,0.0,0.0,0.0,0.0,3.8894,3.8806,3.8894,3.9233,3.8931,0.0,3.9082,0.0,0.0,3.9597,3.9358,3.9409,3.9697,3.9697,3.9697,3.9722,4.0186,4.0727,4.1267,4.158,0.0,0.0,4.2363,4.3035,4.3943,4.3789,4.3498,4.317,4.317,4.3087,4.3014,4.3014,4.3014,4.3014,4.3014,4.3014,4.3014,4.3014,4.3087,4.3142,4.3042,4.3087,4.3129,4.3042,4.3087,4.312,0.0,0.0,0.0,0.0,0.0,0.0,0.0,0.0,0.0,0.0,0.0,0.0,0.0,0.0,0.0,4.0111,4.0362,4.0889,4.1831,0.0,0.0,0.0,0.0,0.0,4.5924,4.6175,4.6687,4.7541,4.7767,4.836,4.9254,4.9506,4.959,4.959,4.959,4.959,4.959,4.959,4.959,4.959,4.959,4.959,4.959,4.959,4.959,4.959,4.959,4.8665,4.7409,0.0,0.0,0.0,0.0,0.0,0.0,0.0,3.6631,0.0,3.7361,0.0,3.8165,3.8304,3.922,3.9823,3.9898,0.0,3.971,3.9233,3.9647,3.9697,3.9233,3.966,3.9898,3.9898,3.9848,0.0,0.0,0.0,0.0,4.0487,3.9948,3.9697,3.9697,3.9697,3.9747,0.0,4.0876,4.1592,4.2098,4.2174,4.2349,4.2606,4.2772,4.3614,4.4764,4.4841,4.4363,4.3679,4.3679,4.3537,4.3327,4.3327,4.3327,4.3327,4.3327,4.3327,4.3327,4.3327,4.3509,4.3649,4.3397,4.3523,4.3649,4.3383,4.3495,4.3457,4.2936,4.315,0.0,0.0,0.0,0.0,0.0,0.0,0.0,0.0,0.0,0.0,0.0,0.0,0.0,0.0,0.0,0.0,0.0,0.0,0.0,0.0,0.0,0.0,0.0,4.6075,0.0,4.7099,0.0,4.8209,4.8818,4.9355,4.959,4.959,4.959,4.959,4.959,4.959,4.959,4.959,4.959,4.959,4.959,4.959,4.959,4.959,4.959,4.8804,4.7689,0.0,0.0,0.0,0.0,0.0,3.7397,3.7944,3.7848,3.7927,3.8517,3.8693,0.0,3.996,4.0236,4.0538,4.0976,4.1026,0.0,0.0,0.0,0.0,4.0876,4.0976,4.1026,4.1026,4.0588,4.0625,0.0,0.0,0.0,4.0487,3.9948,3.9697,3.9697,3.9697,3.9948,4.0412,4.1038,0.0,4.1503,4.2009,4.2349,4.2682,4.3649,4.447,4.5177,4.5614,4.5519,4.5201,4.5201,4.5172,4.513,4.513,4.513,4.513,4.513,4.513,4.513,4.513,4.5198,4.5187,4.517,4.5172,4.5187,4.517,4.4959,4.4664,4.4119,4.3858,4.3548,4.2908,0.0,0.0,0.0,0.0,0.0,0.0,0.0,0.0,0.0,0.0,0.0,0.0,0.0,0.0,0.0,0.0,0.0,0.0,0.0,0.0,0.0,0.0,0.0,0.0,0.0,0.0,4.8818,4.9355,4.959,4.959,4.959,4.959,4.959,4.959,4.959,4.959,4.959,4.959,4.959,4.959,4.959,4.959,4.959,4.9445,4.921,0.0,0.0,0.0,0.0,0.0,0.0,0.0,3.9473,0.0,3.9741,3.9614,3.9892,4.087,4.1094,4.1279,4.1544,4.1569,4.1502,4.1302,4.1289,4.1289,4.1289,4.1289,0.0,4.1289,0.0,4.1177,4.1756,0.0,0.0,0.0,4.0086,3.9697,3.9697,3.9998,4.0642,0.0,0.0,0.0,4.271,4.327,4.3679,4.4043,4.4864,4.5647,4.6314,4.6586,4.6786,4.6812,4.6085,4.5722,4.5594,4.5594,4.5594,4.5594,4.5594,4.5594,4.5594,4.5594,4.5694,4.5779,4.5622,4.5694,4.5779,4.5622,4.5594,4.5477,4.5235,4.4942,4.4466,4.3584,4.2989,0.0,0.0,0.0,0.0,0.0,0.0,0.0,0.0,0.0,0.0,0.0,0.0,0.0,0.0,0.0,0.0,0.0,0.0,0.0,0.0,0.0,0.0,0.0,0.0,0.0,4.835,4.9188,4.959,4.959,4.959,4.959,4.959,4.959,4.959,4.959,4.959,4.959,4.959,4.959,4.959,4.959,4.959,4.959,4.959,0.0,3.7887,0.0,0.0,3.9119,0.0,0.0,4.0926,4.1415,4.0773,4.0606,4.0848,4.1645,4.1934,4.2118,4.2245,4.2245,4.2138,4.1882,4.1775,4.1748,4.1748,4.1694,4.1654,4.1654,4.1553,4.1781,0.0,0.0,0.0,0.0,0.0,0.0,0.0,0.0,0.0,0.0,0.0,4.3271,4.3951,4.4463,4.4904,4.526,4.5932,4.6633,4.7333,4.7438,4.7806,4.8012,4.6855,4.634,4.6154,4.6154,4.6154,4.6154,4.6154,4.6154,4.6154,4.6154,4.6312,4.6426,4.6211,4.6326,4.64,4.6197,4.6269,4.6332,4.6202,4.5814,4.5209,4.4252,4.3495,0.0,0.0,0.0,0.0,0.0,0.0,0.0,0.0,0.0,0.0,0.0,0.0,0.0,0.0,0.0,0.0,0.0,0.0,0.0,0.0,0.0,0.0,4.6125,0.0,4.7908,0.0,4.9063,4.959,4.959,4.959,4.959,4.959,4.959,4.959,4.959,4.959,4.959,4.959,4.959,4.959,4.959,4.959,4.959,4.959,0.0,0.0,0.0,0.0,0.0,0.0,0.0,4.1763,4.2202,4.1427,4.1709,4.222,4.2784,4.286,4.3102,4.3653,4.3705,4.3691,4.3663,4.3365,4.3187,4.3187,4.2963,4.2824,4.2824,4.2361,4.2386,0.0,0.0,0.0,0.0,0.0,0.0,0.0,0.0,0.0,0.0,4.3428,4.3821,4.3951,4.4463,4.4904,4.5312,4.6398,4.7037,4.7359,4.7911,4.8161,4.8187,4.8053,4.7972,4.7942,4.7942,4.7942,4.7942,4.7942,4.7942,4.7942,4.7942,4.7957,4.7986,4.7957,4.7972,4.7986,4.7957,4.7738,4.7393,4.6901,4.5924,4.511,4.5001,4.3888,4.3151,0.0,0.0,0.0,0.0,0.0,0.0,0.0,0.0,0.0,0.0,0.0,0.0,0.0,0.0,0.0,0.0,0.0,0.0,4.5462,0.0,4.5587,4.5587,4.7129,0.0,4.7917,4.9063,4.959,4.959,4.959,4.959,4.959,4.959,4.959,4.959,4.959,4.959,4.959,4.959,4.959,4.959,4.959,4.959,4.959,0.0,0.0,0.0,0.0,0.0,0.0,0.0,4.284,4.327,4.293,4.2927,4.3196,4.3953,4.3869,4.3863,4.4135,4.4135,4.4078,4.3913,4.3764,4.3695,4.3695,4.3393,4.324,4.324,4.2885,4.2788,0.0,0.0,0.0,0.0,0.0,0.0,0.0,0.0,4.3221,4.3648,4.4003,4.4437,4.4965,4.5549,4.6035,4.655,4.7372,4.7757,4.7885,4.8108,4.8187,4.8187,4.8187,4.8187,4.8187,4.8187,4.8187,4.8187,4.8187,4.8187,4.8187,4.8187,4.8187,4.8187,4.8187,4.8187,4.8187,4.8187,4.8099,4.7945,4.771,4.6724,4.5773,4.5409,4.458,4.4027,0.0,0.0,0.0,0.0,0.0,0.0,0.0,0.0,0.0,0.0,0.0,0.0,0.0,0.0,0.0,0.0,0.0,0.0,4.4945,0.0,4.5824,4.5512,4.7104,4.7908,4.7917,4.9063,4.959,4.959,4.959,4.959,4.959,4.959,4.959,4.959,4.959,4.959,4.959,4.959,4.959,4.959,4.959,4.959,4.959,4.058,0.0,4.1808,0.0,4.2618,4.3245,4.3245,4.3755,4.4134,4.4134,4.3933,4.4036,4.4615,4.4544,4.4422,4.4422,4.4422,4.434,4.4135,4.4064,4.4023,4.4023,4.3722,0.0,4.3545,4.3362,4.3265,4.3265,4.3079,0.0,0.0,0.0,0.0,0.0,4.3421,4.3906,4.4585,4.4654,4.5143,4.591,4.6499,4.6955,4.7359,4.7963,4.8187,4.8187,4.8187,4.8187,4.8187,4.8187,4.8187,4.8187,4.8187,4.8187,4.8187,4.8187,4.8187,4.8187,4.8187,4.8187,4.8187,4.8187,4.8187,4.8187,4.8187,4.8187,4.8157,4.807,4.7305,4.6466,4.5975,4.533,4.4855,0.0,0.0,0.0,0.0,0.0,0.0,0.0,0.0,4.1804,4.1804,0.0,0.0,0.0,0.0,0.0,0.0,0.0,0.0,0.0,0.0,0.0,0.0,0.0,4.7908,4.7917,4.9063,4.959,4.959,4.959,4.959,4.959,4.959,4.959,4.959,4.959,4.959,4.959,4.959,4.959,4.959,4.959,4.959,4.959,4.2853,4.2971,4.2971,4.2971,4.3467,4.3886,4.3886,4.4356,4.4695,4.4695,4.4695,4.4695,4.4695,4.4695,4.4695,4.4695,4.4695,4.4681,4.4681,4.4449,4.4299,0.0,0.0,4.3899,4.3899,4.3886,4.3886,4.3886,0.0,0.0,4.3406,0.0,4.3864,4.3901,4.4437,4.4858,4.5197,4.5472,4.5936,4.6539,4.7072,4.7307,4.7359,4.7963,4.8187,4.8187,4.8187,4.8187,4.8187,4.8187,4.8187,4.8187,4.8187,4.8187,4.8187,4.8187,4.8187,4.8187,4.8187,4.8187,4.8187,4.8187,4.8187,4.8187,4.8187,4.8187,4.8099,4.7777,4.7427,4.7102,4.6825,4.6072,4.5487,4.5487,0.0,0.0,0.0,0.0,0.0,0.0,4.3302,4.2975,4.2975,0.0,0.0,0.0,0.0,0.0,0.0,0.0,0.0,4.5462,4.5512,0.0,4.5512,4.7104,4.7908,4.7917,4.9063,4.959,4.959,4.959,4.959,4.959,4.959,4.959,4.959,4.959,4.959,4.959,4.959,4.959,4.959,4.959,4.959,4.959,4.2984,4.3337,4.3611,4.3611,4.4068,4.446,4.446,4.4604,4.4695,4.4695,4.4695,4.4695,4.4695,4.4695,4.4695,0.0,4.4695,4.4695,0.0,4.4613,4.4559,4.4559,4.4326,4.4162,4.4162,4.3996,4.3899,4.3899,0.0,0.0,0.0,4.4204,4.4267,4.4463,4.5057,4.5385,4.5498,4.5987,4.6552,4.706,4.7229,4.7556,4.7937,4.8134,4.8187,4.8187,4.8187,4.8187,4.8187,4.8187,4.8187,4.8187,4.8187,4.8187,4.8187,4.8187,4.8187,4.8187,4.8187,4.8187,4.8187,4.8187,4.8187,4.8187,4.8187,4.8187,4.8099,4.7777,4.7427,4.7102,4.6866,4.64,4.605,4.605,0.0,0.0,0.0,0.0,0.0,0.0,0.0,4.2587,0.0,4.2526,0.0,0.0,0.0,0.0,0.0,0.0,0.0,0.0,4.5633,0.0,4.5512,4.7104,4.7908,4.7917,4.9063,4.959,4.959,4.959,4.959,4.959,4.959,4.959,4.959,4.959,4.959,4.959,4.959,4.959,4.959,4.959,4.959,4.959,4.3611,4.3924,4.4199,4.4199,4.4473,4.4695,4.4695,4.4695,4.4695,4.4695,4.4904,4.5034,4.5034,4.5257,0.0,4.506,4.5257,0.0,4.5375,4.5375,4.5375,4.5375,4.5222,4.514,4.514,0.0,0.0,4.4525,4.4471,4.4648,4.5021,4.4883,4.5,4.5388,4.5754,4.6041,4.6262,4.6642,4.7112,4.7635,4.7635,4.7858,4.8187,4.8187,4.8187,4.8187,4.8187,4.8187,4.8187,4.8187,4.8187,4.8187,4.8187,4.8187,4.8187,4.8187,4.8187,4.8187,4.8187,4.8187,4.8187,4.8187,4.8187,4.8187,4.8187,4.8187,4.807,4.7604,4.7353,4.7072,4.6676,4.6446,4.6286,4.6286,0.0,0.0,0.0,0.0,0.0,0.0,0.0,0.0,0.0,4.3302,0.0,0.0,0.0,0.0,0.0,0.0,0.0,4.5217,4.5934,0.0,4.61,4.7305,4.8008,4.8234,4.9163,4.959,4.959,4.959,4.959,4.959,4.959,4.959,4.959,4.959,4.959,4.959,4.959,4.959,4.959,4.959,4.959,4.959,4.459,4.4695,0.0,0.0,4.4695,0.0,4.4695,4.4747,4.4773,4.4773,4.5296,4.5661,4.5661,4.6212,4.633,4.5766,0.0,0.0,0.0,4.6501,4.6501,4.6501,4.6501,0.0,4.6501,4.5936,4.5661,4.5661,4.5087,4.5113,4.5661,4.5661,4.5963,4.6501,4.6539,4.6839,4.7307,4.7333,4.7687,4.8187,4.8187,4.8187,4.8187,4.8187,4.8187,4.8187,4.8187,4.8187,4.8187,4.8187,4.8187,4.8187,4.8187,4.8187,4.8187,4.8187,4.8187,4.8187,4.8187,4.8187,4.8187,4.8187,4.8187,4.8187,4.8187,4.8187,4.8011,4.7368,4.722,4.7013,4.6436,4.6326,4.6286,4.6286,4.6286,4.6125,4.5638,0.0,0.0,0.0,0.0,0.0,0.0,4.4665,4.4905,0.0,0.0,0.0,0.0,0.0,4.5181,4.6261,4.6286,4.6562,4.7099,4.7641,4.8209,4.8868,4.9355,4.959,4.959,4.959,4.959,4.959,4.959,4.959,4.959,4.959,4.959,4.959,4.959,4.959,4.959,4.959,4.959,4.959,0.0,0.0,4.4695,4.4695,4.4695,4.4695,4.4695,4.5087,4.5374,4.5374,4.5924,4.6304,4.6304,4.6773,4.7046,4.6915,4.6656,4.6501,4.6501,4.6501,4.6501,4.6501,4.6501,4.6501,4.6501,4.6356,4.6304,4.6304,4.6133,4.6147,4.6304,4.6304,4.6356,4.6527,4.6944,4.7176,4.7333,4.7806,4.8082,4.8187,4.8187,4.8187,4.8187,4.8187,4.8187,4.8187,4.8187,4.8187,4.8187,4.8187,4.8187,4.8187,4.8187,4.8187,4.8187,4.8187,4.8187,4.8187,4.8187,4.8187,4.8187,4.8187,4.8187,4.8187,4.8187,4.8187,4.807,4.7674,4.7383,4.7087,4.6736,4.6451,4.6286,4.6286,4.6286,4.6276,4.6125,0.0,0.0,0.0,4.4754,4.4629,4.5221,4.5271,4.5361,0.0,0.0,0.0,0.0,0.0,4.5598,4.6261,4.6286,4.6562,4.7099,4.7641,4.841,4.9414,4.9556,4.959,4.959,4.959,4.959,4.959,4.959,4.959,4.959,4.959,4.959,4.959,4.959,4.959,4.959,4.959,4.959,4.959,4.4695,4.4695,4.4695,4.4695,4.493,4.5113,4.5113,4.5623,4.6003,4.6003,4.6525,4.6865,4.6865,4.7374,4.7713,4.7713,4.7455,4.7272,4.7272,4.7272,4.7272,4.7272,4.7272,4.7272,4.7272,4.6996,4.6734,4.6501,4.6501,4.6618,4.6865,4.6865,4.6996,4.7272,4.7571,4.7713,4.7713,4.8056,4.8187,4.8187,4.8187,4.8187,4.8187,4.8187,4.8187,4.8187,4.8187,4.8187,4.8187,4.8187,4.8187,4.8187,4.8187,4.8187,4.8187,4.8187,4.8187,4.8187,4.8187,4.8187,4.8187,4.8187,4.8187,4.8187,4.8187,4.8187,4.8055,4.756,4.7324,4.7057,4.6646,4.6406,4.6286,4.6286,4.6286,4.621,4.5974,4.5673,0.0,4.5512,4.5221,4.5246,4.5799,4.5874,4.5874,4.5874,0.0,0.0,4.5874,4.5874,4.5999,4.6286,4.6537,4.6938,4.745,4.8284,4.8987,4.959,4.959,4.959,4.959,4.959,4.959,4.959,4.959,4.959,4.959,4.959,4.959,4.959,4.959,4.959,4.959,4.959,4.959,4.959,4.4695,4.4695,4.4721,4.4825,4.5269,4.5635,4.5714,4.6238,4.6618,4.6618,4.7086,4.7438,4.7438,4.7885,4.8187,4.8187,4.8187,4.8187,4.8187,4.8187,4.8187,4.8187,4.8187,4.8187,4.8187,4.7687,4.7217,4.6749,4.6749,4.6996,4.7438,4.7438,4.7713,4.8187,4.8187,4.8187,4.8187,4.8187,4.8187,4.8187,4.8187,4.8187,4.8187,4.8187,4.8187,4.8187,4.8187,4.8187,4.8187,4.8187,4.8187,4.8187,4.8187,4.8187,4.8187,4.8187,4.8187,4.8187,4.8187,4.8187,4.8187,4.8187,4.8187,4.8187,4.8187,4.8187,4.8011,4.7339,4.7205,4.7013,4.6406,4.6286,4.6286,4.6286,4.6286,4.615,4.5673,0.0,4.5638,4.5638,4.5638,4.5799,4.6276,4.6286,4.6286,4.6286,4.6286,0.0,0.0,4.6286,4.6336,4.6411,4.6848,4.74,4.8033,4.9063,4.959,4.959,4.959,4.959,4.959,4.959,4.959,4.959,4.959,4.959,4.959,4.959,4.959,4.959,4.959,4.959,4.959,4.959,4.959,4.959,4.4695,4.4695,4.4852,4.5374,4.5531,4.578,4.6278,4.6825,4.7191,4.7191,4.7687,4.8056,4.8056,4.8134,4.8187,4.8187,4.8187,4.8187,4.8187,4.8187,4.8187,4.8187,4.8187,4.8187,4.8187,4.8108,4.803,4.7925,4.7925,4.7977,4.8056,4.8056,4.8108,4.8187,4.8187,4.8187,4.8187,4.8187,4.8187,4.8187,4.8187,4.8187,4.8187,4.8187,4.8187,4.8187,4.8187,4.8187,4.8187,4.8187,4.8187,4.8187,4.8187,4.8187,4.8187,4.8187,4.8187,4.8187,4.8187,4.8187,4.8187,4.8187,4.8187,4.8187,4.8187,4.8187,4.8011,4.7339,4.7205,4.7013,4.6406,4.6286,4.6286,4.6286,4.6286,4.6261,0.0,0.0,4.6175,4.6175,4.6175,4.621,4.6286,4.6286,4.6286,4.6286,4.6286,4.6286,4.6286,4.6286,4.6512,4.6973,4.7074,4.7591,4.8667,4.928,4.959,4.959,4.959,4.959,4.959,4.959,4.959,4.959,4.959,4.959,4.959,4.959,4.959,4.959,4.959,4.959,4.959,4.959,4.959,4.959,4.4695,4.4695,4.4878,4.5478,4.5858,4.629,4.6825,4.7426,4.7766,4.7766,4.8015,4.8187,4.8187,4.8187,4.8187,4.8187,4.8187,4.8187,4.8187,4.8187,4.8187,4.8187,4.8187,4.8187,4.8187,4.8187,4.8187,4.8187,4.8187,4.8187,4.8187,4.8187,4.8187,4.8187,4.8187,4.8187,4.8187,4.8187,4.8187,4.8187,4.8187,4.8187,4.8187,4.8187,4.8187,4.8187,4.8187,4.8187,4.8187,4.8187,4.8187,4.8187,4.8187,4.8187,4.8187,4.8187,4.8187,4.8187,4.8187,4.8187,4.8187,4.8187,4.8187,4.8187,4.8187,4.8055,4.7792,4.7294,4.7098,4.6855,4.6376,4.6286,4.6286,4.6286,4.6286,0.0,0.0,4.6286,4.6286,4.6286,4.6286,4.6286,4.6286,4.6286,4.6286,4.6286,4.6286,4.6286,4.6286,4.6286,4.6562,4.7074,4.7691,4.841,4.9229,4.948,4.959,4.959,4.959,4.959,4.959,4.959,4.959,4.959,4.959,4.959,4.959,4.959,4.959,4.959,4.959,4.959,4.959,4.959,4.959,4.959,4.5127,4.5205,4.54,4.5743,4.629,4.6865,4.7411,4.7911,4.8187,4.8187,4.8187,4.8187,4.8187,4.8187,4.8187,4.8187,4.8187,4.8187,4.8187,4.8187,4.8187,4.8187,4.8187,4.8187,4.8187,4.8187,4.8187,4.8187,4.8187,4.8187,4.8187,4.8187,4.8187,4.8187,4.8187,4.8187,4.8187,4.8187,4.8187,4.8187,4.8187,4.8187,4.8187,4.8187,4.8187,4.8187,4.8187,4.8187,4.8187,4.8187,4.8187,4.8187,4.8187,4.8187,4.8187,4.8187,4.8187,4.8187,4.8187,4.8187,4.8187,4.8187,4.8187,4.8187,4.8187,4.7938,4.7589,4.7279,4.7004,4.6701,4.6346,4.6286,4.6286,4.6286,0.0,0.0,0.0,4.6286,4.6286,4.6286,4.6286,4.6286,4.6286,4.6286,4.6286,4.6286,4.6286,4.6286,4.6286,4.6411,4.6788,4.745,4.835,4.9053,4.959,4.959,4.959,4.959,4.959,4.959,4.959,4.959,4.959,4.959,4.959,4.959,4.959,4.959,4.959,4.959,4.959,4.959,4.959,4.959,4.959,4.959,4.6478,4.6662,4.6894,4.6486,4.6877,4.7452,4.8041,4.8161,4.8187,4.8187,4.8187,4.8187,4.8187,4.8187,4.8187,4.8187,4.8187,4.8187,4.8187,4.8187,4.8187,4.8187,4.8187,4.8187,4.8187,4.8187,4.8187,4.8187,4.8187,4.8187,4.8187,4.8187,4.8187,4.8187,4.8187,4.8187,4.8187,4.8187,4.8187,4.8187,4.8187,4.8187,4.8187,4.8187,4.8187,4.8187,4.8187,4.8187,4.8187,4.8187,4.8187,4.8187,4.8187,4.8187,4.8187,4.8187,4.8187,4.8187,4.8187,4.8187,4.8187,4.8187,4.8187,4.8187,4.8187,4.7938,4.7589,4.7279,4.7004,4.6701,4.6346,4.6286,4.6286,4.6286,0.0,0.0,4.6286,4.6286,4.6286,4.6286,4.6286,4.6286,4.6286,4.6286,4.6286,4.6286,4.6286,4.6286,4.6286,4.6772,4.7541,4.8626,4.8768,4.9053,4.959,4.959,4.959,4.959,4.959,4.959,4.959,4.959,4.959,4.959,4.959,4.959,4.959,4.959,4.959,4.959,4.959,4.959,4.959,4.959,4.959,4.959,4.7485,4.7296,4.7258,4.7469,4.7384,4.749,4.8108,4.8187,4.8187,4.8187,4.8187,4.8187,4.8187,4.8187,4.8187,4.8187,4.8187,4.8187,4.8187,4.8187,4.8187,4.8187,4.8187,4.8187,4.8187,4.8187,4.8187,4.8187,4.8187,4.8187,4.8187,4.8187,4.8187,4.8187,4.8187,4.8187,4.8187,4.8187,4.8187,4.8187,4.8187,4.8187,4.8187,4.8187,4.8187,4.8187,4.8187,4.8187,4.8187,4.8187,4.8187,4.8187,4.8187,4.8187,4.8187,4.8187,4.8187,4.8187,4.8187,4.8187,4.8187,4.8187,4.8187,4.8187,4.8187,4.7792,4.7353,4.7235,4.6815,4.6461,4.6316,4.6286,4.6286,4.6286,0.0,4.6286,4.6286,4.6286,4.6286,4.6286,4.6286,4.6286,4.6286,4.6286,4.6286,4.6286,4.6286,4.6436,4.6772,4.7657,4.835,4.8793,4.9129,4.9405,4.959,4.959,4.959,4.959,4.959,4.959,4.959,4.959,4.959,4.959,4.959,4.959,4.959,4.959,4.959,4.959,4.959,4.959,4.959,4.959,4.959,4.959,4.8571,4.8215,4.8025,4.8097,4.7812,4.7713,4.8134,4.8187,4.8187,4.8187,4.8187,4.8187,4.8187,4.8187,4.8187,4.8187,4.8187,4.8187,4.8187,4.8187,4.8187,4.8187,4.8187,4.8187,4.8187,4.8187,4.8187,4.8187,4.8187,4.8187,4.8187,4.8187,4.8187,4.8187,4.8187,4.8187,4.8187,4.8187,4.8187,4.8187,4.8187,4.8187,4.8187,4.8187,4.8187,4.8187,4.8187,4.8187,4.8187,4.8187,4.8187,4.8187,4.8187,4.8187,4.8187,4.8187,4.8187,4.8187,4.8187,4.8187,4.8187,4.8187,4.8187,4.8187,4.8187,4.7663,4.7205,4.7205,4.671,4.6286,4.6286,4.6286,4.6286,4.6286,4.6286,4.6286,4.6286,4.6286,4.6286,4.6286,4.6286,4.6286,4.6286,4.6286,4.6361,4.6537,4.6562,4.6863,4.7591,4.8375,4.8894,4.9053,4.9405,4.959,4.959,4.959,4.959,4.959,4.959,4.959,4.959,4.959,4.959,4.959,4.959,4.959,4.959,4.959,4.959,4.959,4.959,4.959,4.959,4.959,4.959,4.959,4.9805,4.9671,4.9373,4.83,4.816,4.8201,4.8187,4.8187,4.8187,4.8187,4.8187,4.8187,4.8187,4.8187,4.8187,4.8187,4.8187,4.8187,4.8187,4.8187,4.8187,4.8187,4.8187,4.8187,4.8187,4.8187,4.8187,4.8187,4.8187,4.8187,4.8187,4.8187,4.8187,4.8187,4.8187,4.8187,4.8187,4.8187,4.8187,4.8187,4.8187,4.8187,4.8187,4.8187,4.8187,4.8187,4.8187,4.8187,4.8187,4.8187,4.8187,4.8187,4.8187,4.8187,4.8187,4.8187,4.8187,4.8187,4.8187,4.8187,4.8187,4.8187,4.8187,4.8187,4.8187,4.7663,4.7205,4.7205,4.671,4.6286,4.6286,4.6286,4.6286,4.6286,4.6286,4.6286,4.6286,4.6286,4.6286,4.6286,4.6286,4.6286,4.6311,4.6311,4.6537,4.7074,4.7124,4.7616,4.8743,4.8793,4.9053,4.9565,4.959,4.959,4.959,4.959,4.959,4.959,4.959,4.959,4.959,4.959,4.959,4.959,4.959,4.959,4.959,4.959,4.959,4.959,4.959,4.959,4.959,4.959,4.959,4.959,5.0787,5.0867,5.0603,4.9426,4.9322,4.9117,4.8318,4.8187,4.8187,4.8187,4.8187,4.8187,4.8187,4.8187,4.8187,4.8187,4.8187,4.8187,4.8187,4.8187,4.8187,4.8187,4.8187,4.8187,4.8187,4.8187,4.8187,4.8187,4.8187,4.8187,4.8187,4.8187,4.8187,4.8187,4.8187,4.8187,4.8187,4.8187,4.8187,4.8187,4.8187,4.8187,4.8187,4.8187,4.8187,4.8187,4.8187,4.8187,4.8187,4.8187,4.8187,4.8187,4.8187,4.8187,4.8187,4.8187,4.8187,4.8187,4.8187,4.8187,4.8187,4.8187,4.8187,4.8187,4.8187,4.7663,4.7205,4.7205,4.671,4.6286,4.6286,4.6286,4.6286,4.6286,4.6286,4.6286,4.6286,4.6286,4.6286,4.6286,4.6286,4.6436,4.6823,4.6848,4.7074,4.7616,4.8058,4.8451,4.8793,4.9154,4.943,4.959,4.959,4.959,4.959,4.959,4.959,4.959,4.959,4.959,4.959,4.959,4.959,4.959,4.959,4.959,4.959,4.959,4.959,4.959,4.959,4.959,4.959,4.959,4.959,4.959,5.1206,5.114,5.0955,5.0497,4.9923,4.9376,4.8932,4.8507,4.8187,4.8187,4.8187,4.8187,4.8187,4.8187,4.8187,4.8187,4.8187,4.8187,4.8187,4.8187,4.8187,4.8187,4.8187,4.8187,4.8187,4.8187,4.8187,4.8187,4.8187,4.8187,4.8187,4.8187,4.8187,4.8187,4.8187,4.8187,4.8187,4.8187,4.8187,4.8187,4.8187,4.8187,4.8187,4.8187,4.8187,4.8187,4.8187,4.8187,4.8187,4.8187,4.8187,4.8187,4.8187,4.8187,4.8187,4.8187,4.8187,4.8187,4.8187,4.8187,4.8187,4.8187,4.8187,4.8184,4.8026,4.7575,4.7161,4.7068,4.6661,4.6286,4.6286,4.6286,4.6361,4.6587,4.6637,4.6687,4.6888,4.6913,4.6913,4.6913,4.6913,4.7064,4.7375,4.74,4.7641,4.8209,4.8802,4.9129,4.9129,4.943,4.959,4.959,4.959,4.959,4.959,4.959,4.959,4.959,4.959,4.959,4.959,4.959,4.959,4.959,4.959,4.959,4.959,4.959,4.959,4.959,4.959,4.959,4.959,4.959,4.959,4.959,5.1206,5.0907,5.0805,5.1323,5.0246,4.9458,4.9906,4.9047,4.8347,4.8347,4.826,4.8187,4.8187,4.8187,4.8187,4.8187,4.8187,4.8187,4.8187,4.8187,4.8187,4.8187,4.8187,4.8245,4.8347,4.8245,4.8245,4.8347,4.8347,4.8347,4.8347,4.8347,4.8289,4.8187,4.8187,4.8187,4.8187,4.8187,4.8187,4.8187,4.8187,4.8187,4.8187,4.8187,4.8187,4.8187,4.8187,4.8187,4.8187,4.8187,4.8187,4.8187,4.8187,4.8187,4.8187,4.8187,4.8187,4.8187,4.8187,4.8187,4.8187,4.8187,4.8198,4.807,4.7777,4.7427,4.7142,4.6916,4.6587,4.6386,4.6436,4.6436,4.6612,4.7099,4.7174,4.7324,4.7817,4.7908,4.7908,4.7908,4.7908,4.7933,4.7983,4.8033,4.8284,4.8843,4.933,4.959,4.959,4.959,4.959,4.959,4.959,4.959,4.959,4.959,4.959,4.959,4.959,4.959,4.959,4.959,4.959,4.959,4.959,4.959,4.959,4.959,4.959,4.959,4.959,4.959,4.959,4.959,4.959,4.959,5.1206,5.1548,5.1614,5.0842,5.1241,5.1401,5.0648,4.9952,4.9532,4.9532,4.8755,4.8187,4.8187,4.8187,4.8187,4.8187,4.8187,4.8187,4.8187,4.8187,4.8187,4.8187,4.8187,4.8611,4.9504,4.8654,4.8625,4.9532,4.9532,4.9532,4.9532,4.9532,4.906,4.8187,4.8187,4.8187,4.8187,4.8187,4.8187,4.8187,4.8187,4.8187,4.8187,4.8187,4.8187,4.8187,4.8187,4.8187,4.8187,4.8187,4.8187,4.8187,4.8187,4.8187,4.8187,4.8187,4.8187,4.8187,4.8187,4.8187,4.8187,4.8187,4.7997,4.7792,4.7733,4.7427,4.7244,4.7389,4.7167,4.7048,4.7481,4.7541,4.7591,4.7716,4.7716,4.7767,4.7867,4.7908,4.7908,4.7908,4.7908,4.8083,4.8551,4.8962,4.9289,4.943,4.9515,4.959,4.959,4.959,4.959,4.959,4.959,4.959,4.959,4.959,4.959,4.959,4.959,4.959,4.959,4.959,4.959,4.959,4.959,4.959,4.959,4.959,4.959,4.959,4.959,4.959,4.959,4.959,4.959,4.959,5.1206,5.1487,5.1649,5.135,5.1408,5.1504,5.1496,5.0813,5.0395,5.0726,5.0252,4.9858,4.9858,4.9858,4.9659,4.906,4.9002,4.9002,4.9002,4.9002,4.9274,4.983,4.9858,5.0154,5.074,5.0168,5.0168,5.0754,5.0754,5.0754,5.0754,5.0754,5.014,4.9002,4.9002,4.8712,4.8187,4.8187,4.8187,4.8187,4.8187,4.8187,4.8187,4.8187,4.8187,4.8187,4.8187,4.8187,4.8187,4.8187,4.8187,4.8187,4.8187,4.8187,4.8187,4.8187,4.8187,4.8187,4.8187,4.8187,4.8187,4.8187,4.7953,4.7648,4.7486,4.741,4.7377,4.7374,4.7438,4.7566,4.7857,4.7908,4.7983,4.8284,4.8325,4.841,4.8686,4.8711,4.8711,4.8711,4.8711,4.8837,4.9154,4.943,4.959,4.959,4.959,4.959,4.959,4.959,4.959,4.959,4.959,4.959,4.959,4.959,4.959,4.959,4.959,4.959,4.959,4.959,4.959,4.959,4.959,4.959,4.959,4.959,4.959,4.959,4.959,4.959,4.959,4.959,4.959,4.959,5.1206,5.1206,5.1367,5.1935,5.1321,5.1141,5.2207,5.1512,5.1072,5.1733,5.1656,5.1562,5.1688,5.1688,5.1292,5.028,5.0196,5.0196,5.0196,5.0196,5.0643,5.1647,5.1688,5.1783,5.1973,5.1986,5.1986,5.1986,5.1986,5.1986,5.1986,5.1986,5.1347,5.0196,5.0196,4.9561,4.8507,4.8507,4.8376,4.8187,4.8187,4.8187,4.8187,4.8187,4.8187,4.8187,4.8187,4.8187,4.8187,4.8187,4.8187,4.8187,4.8187,4.8187,4.8187,4.8187,4.8187,4.8187,4.8187,4.8187,4.8187,4.8187,4.7987,4.7685,4.7419,4.7478,4.7552,4.7427,4.7741,4.8083,4.8184,4.8184,4.836,4.8868,4.8944,4.9079,4.9556,4.959,4.959,4.959,4.959,4.959,4.959,4.959,4.959,4.959,4.959,4.959,4.959,4.959,4.959,4.959,4.959,4.959,4.959,4.959,4.959,4.959,4.959,4.959,4.959,4.959,4.959,4.959,4.959,4.959,4.959,4.959,4.959,4.959,4.959,4.959,4.959,4.959,4.959,4.959,5.1206,5.1206,5.1247,5.1325,5.1697,5.2031,5.2209,5.1745,5.1619,5.2242,5.1447,5.1044,5.1632,5.1688,5.162,5.1456,5.1456,5.1456,5.1456,5.1456,5.1524,5.1674,5.1688,5.2148,5.3163,5.3177,5.3177,5.3177,5.3177,5.3177,5.3177,5.3177,5.2551,5.1456,5.1456,5.0782,4.9674,4.9674,4.9103,4.8187,4.8187,4.8187,4.8187,4.8187,4.8187,4.8187,4.8187,4.8187,4.8187,4.8187,4.8187,4.8187,4.8187,4.8187,4.8187,4.8187,4.8187,4.8187,4.8187,4.8187,4.8187,4.8187,4.8136,4.8034,4.8004,4.7784,4.7795,4.8454,4.8626,4.8827,4.9264,4.9364,4.9389,4.948,4.9506,4.9515,4.959,4.959,4.959,4.959,4.959,4.959,4.959,4.959,4.959,4.959,4.959,4.959,4.959,4.959,4.959,4.959,4.959,4.959,4.959,4.959,4.959,4.959,4.959,4.959,4.959,4.959,4.959,4.959,4.959,4.959,4.959,4.959,4.959,4.959,4.959,4.959,4.959,4.959,4.959,4.959,5.1206,5.1206,5.1206,5.1206,5.1445,5.1768,5.2127,5.2028,5.2108,5.2757,5.2419,5.2215,5.2519,5.2868,5.2971,5.2697,5.2644,5.2644,5.2644,5.2644,5.2952,5.3626,5.3652,5.3873,5.4394,5.4406,5.4406,5.4406,5.4406,5.4406,5.4406,5.4406,5.3782,5.2644,5.2644,5.1633,4.9887,4.9887,4.9246,4.8187,4.8187,4.8187,4.8187,4.8187,4.8187,4.8187,4.8187,4.8187,4.8187,4.8187,4.8187,4.8187,4.8187,4.8187,4.8187,4.8187,4.8187,4.8187,4.8187,4.8187,4.8221,4.8328,4.8227,4.8211,4.8625,4.8484,4.8362,4.8724,4.9028,4.933,4.9565,4.959,4.959,4.959,4.959,4.959,4.959,4.959,4.959,4.959,4.959,4.959,4.959,4.959,4.959,4.959,4.959,4.959,4.959,4.959,4.959,4.959,4.959,4.959,4.959,4.959,4.959,4.959,4.959,4.959,4.959,4.959,4.959,4.959,4.959,4.959,4.959,4.959,4.959,4.959,4.959,4.959,4.959,4.959,4.959,4.959]}]]